[[{"header":{"parameterUnit":"m.s-1","parameterCategory":1,"la1":31.0,"la2":29.5877,"lo1":-88.7671,"lo2":-86.6584,"dy":0.0162,"dx":0.0185,"nx":115,"ny":88,"refTime":"2026-04-05T12:00:00:Z","depth":0,"parameterNumber":2,"parameterNumberName":"U-component_of_WINDS"},"data":[0.0,0.0,0.0,0.0,0.0,0.0,0.0,0.0,0.0,0.0,0.0,0.0,0.0,0.0,0.0,0.0,0.0,0.0,0.0,0.0,0.0,0.0,0.0,0.0,0.0,0.0,0.0,0.0,0.0,0.0,0.0,0.0,0.0,0.0,0.0,0.0,0.0,0.0,0.0,0.0,0.0,0.0,0.0,0.0,0.0,0.0,0.0,0.0,0.0,0.0,0.0,0.0,0.0,0.0,0.0,0.0,0.0,0.0,0.0,0.0,0.0,0.0,0.0,0.0,0.0,0.0,0.0,0.0,0.0,0.0,0.0,0.0,0.0,0.0,0.0,0.0,0.0,0.0,0.0,0.0,0.0,0.0,0.0,0.0,0.0,0.0,0.0,0.0,0.0,0.0,0.0,0.0,0.0,0.0,0.0,0.0,0.0,0.0,0.0,0.0,0.0,0.0,0.0,0.0,0.0,0.0,0.0,0.0,0.0,0.0,0.0,0.0,0.0,0.0,0.0,0.0,0.0,0.0,0.0,0.0,0.0,0.0,0.0,0.0,0.0,0.0,0.0,0.0,0.0,0.0,0.0,0.0,0.0,0.0,0.0,0.0,0.0,0.0,0.0,0.0,0.0,0.0,0.0,0.0,0.0,0.0,0.0,0.0,0.0,0.0,0.0,0.0,0.0,0.0,0.0,0.0,0.0,0.0,0.0,0.0,0.0,0.0,0.0,0.0,0.0,0.0,0.0,0.0,0.0,0.0,0.0,0.0,0.0,0.0,0.0,0.0,0.0,0.0,0.0,0.0,0.0,0.0,0.0,0.0,0.0,0.0,0.0,0.0,0.0,0.0,0.0,0.0,0.0,0.0,0.0,0.0,0.0,0.0,0.0,0.0,0.0,0.0,0.0,0.0,0.0,0.0,0.0,0.0,0.0,0.0,0.0,0.0,0.0,0.0,0.0,0.0,0.0,0.0,0.0,0.0,0.0,0.0,0.0,0.0,0.0,0.0,0.0,0.0,0.0,0.0,0.0,0.0,0.0,0.0,0.0,0.0,0.0,0.0,0.0,0.0,0.0,0.0,0.0,0.0,0.0,0.0,0.0,0.0,0.0,0.0,0.0,0.0,0.0,0.0,0.0,0.0,0.0,0.0,0.0,0.0,0.0,0.0,0.0,0.0,0.0,0.0,0.0,0.0,0.0,0.0,0.0,0.0,0.0,0.0,0.0,0.0,0.0,0.0,0.0,0.0,0.0,0.0,0.0,0.0,0.0,0.0,0.0,0.0,0.0,0.0,0.0,0.0,0.0,0.0,0.0,0.0,0.0,0.0,0.0,0.0,0.0,0.0,0.0,0.0,0.0,0.0,0.0,0.0,0.0,0.0,0.0,0.0,0.0,0.0,0.0,0.0,0.0,0.0,0.0,0.0,0.0,0.0,0.0,0.0,0.0,0.0,0.0,0.0,0.0,0.0,0.0,0.0,0.0,0.0,0.0,0.0,0.0,0.0,0.0,0.0,0.0,0.0,0.0,0.0,0.0,0.0,0.0,0.0,0.0,0.0,0.0,0.0,0.0,0.0,0.0,0.0,0.0,0.0,0.0,0.0,0.0,0.0,0.0,0.0,0.0,0.0,0.0,0.0,0.0,0.0,0.0,0.0,0.0,0.0,0.0,0.0,0.0,0.0,0.0,0.0,0.0,0.0,0.0,0.0,0.0,0.0,0.0,0.0,0.0,0.0,0.0,0.0,0.0,0.0,0.0,0.0,0.0,0.0,0.0,0.0,0.0,0.0,0.0,0.0,0.0,0.0,0.0,0.0,0.0,0.0,0.0,0.0,0.0,0.0,0.0,0.0,0.0,0.0,0.0,0.0,0.0,0.0,0.0,0.0,0.0,0.0,0.0,0.0,0.0,0.0,0.0,0.0,0.0,0.0,0.0,0.0,0.0,0.0,0.0,0.0,0.0,0.0,0.0,0.0,0.0,0.0,0.0,0.0,0.0,0.0,0.0,0.0,0.0,0.0,0.0,0.0,0.0,0.0,0.0,0.0,0.0,0.0,0.0,0.0,0.0,0.0,0.0,0.0,0.0,0.0,0.0,0.0,0.0,0.0,0.0,0.0,0.0,0.0,0.0,0.0,0.0,0.0,0.0,0.0,0.0,0.0,0.0,0.0,0.0,0.0,0.0,0.0,0.0,0.0,0.0,0.0,0.0,0.0,0.0,0.0,0.0,0.0,0.0,0.0,0.0,0.0,0.0,0.0,0.0,0.0,0.0,0.0,0.0,0.0,0.0,0.0,0.0,0.0,0.0,0.0,0.0,0.0,0.0,0.0,0.0,0.0,0.0,0.0,0.0,0.0,0.0,0.0,0.0,0.0,0.0,0.0,0.0,0.0,0.0,0.0,0.0,0.0,0.0,0.0,0.0,0.0,0.0,0.0,0.0,0.0,0.0,0.0,0.0,0.0,0.0,0.0,0.0,0.0,0.0,0.0,0.0,0.0,0.0,0.0,0.0,0.0,0.0,0.0,0.0,0.0,0.0,0.0,0.0,0.0,0.0,0.0,0.0,0.0,0.0,0.0,0.0,0.0,0.0,0.0,0.0,0.0,0.0,0.0,0.0,0.0,0.0,0.0,0.0,0.0,0.0,0.0,0.0,0.0,0.0,0.0,0.0,0.0,0.0,0.0,0.0,0.0,0.0,0.0,0.0,0.0,0.0,0.0,0.0,0.0,0.0,0.0,0.0,0.0,0.0,0.0,0.0,0.0,0.0,0.0,0.0,0.0,0.0,0.0,0.0,0.0,0.0,0.0,0.0,0.0,0.0,0.0,0.0,0.0,0.0,0.0,0.0,0.0,0.0,0.0,0.0,0.0,0.0,0.0,0.0,0.0,0.0,0.0,0.0,0.0,0.0,0.0,0.0,0.0,0.0,0.0,0.0,0.0,0.0,0.0,0.0,0.0,0.0,0.0,0.0,0.0,0.0,0.0,0.0,0.0,0.0,0.0,0.0,0.0,0.0,0.0,0.0,0.0,0.0,0.0,0.0,0.0,0.0,0.0,0.0,0.0,0.0,0.0,0.0,0.0,0.0,0.0,0.0,0.0,0.0,0.0,0.0,0.0,0.0,0.0,0.0,0.0,0.0,0.0,0.0,0.0,0.0,0.0,0.0,0.0,0.0,0.0,0.0,0.0,0.0,0.0,0.0,0.0,0.0,0.0,0.0,0.0,0.0,0.0,0.0,0.0,0.0,0.0,0.0,0.0,0.0,0.0,0.0,0.0,0.0,0.0,0.0,0.0,0.0,0.0,0.0,0.0,0.0,0.0,0.0,0.0,0.0,0.0,0.0,0.0,0.0,0.0,0.0,0.0,0.0,0.0,0.0,0.0,0.0,0.0,0.0,0.0,0.0,0.0,0.0,0.0,0.0,0.0,0.0,0.0,0.0,0.0,0.0,0.0,0.0,0.0,0.0,0.0,0.0,0.0,0.0,0.0,0.0,0.0,0.0,0.0,0.0,0.0,0.0,0.0,0.0,0.0,0.0,0.0,0.0,0.0,0.0,0.0,0.0,0.0,0.0,0.0,0.0,0.0,0.0,0.0,0.0,0.0,0.0,0.0,0.0,0.0,0.0,0.0,0.0,0.0,0.0,0.0,0.0,0.0,0.0,0.0,0.0,0.0,0.0,0.0,0.0,0.0,0.0,0.0,0.0,0.0,0.0,0.0,0.0,0.0,0.0,0.0,0.0,0.0,0.0,0.0,0.0,0.0,0.0,0.0,0.0,0.0,0.0,0.0,0.0,0.0,0.0,0.0,0.0,0.0,0.0,0.0,0.0,0.0,0.0,0.0,0.0,0.0,0.0,0.0,0.0,0.0,0.0,0.0,0.0,0.0,0.0,0.0,0.0,0.0,0.0,0.0,0.0,0.0,0.0,0.0,0.0,0.0,0.0,0.0,0.0,0.0,0.0,0.0,0.0,0.0,0.0,0.0,0.0,0.0,0.0,0.0,0.0,0.0,0.0,0.0,0.0,0.0,0.0,0.0,0.0,0.0,0.0,0.0,0.0,0.0,0.0,0.0,0.0,0.0,0.0,0.0,0.0,0.0,0.0,0.0,0.0,0.0,0.0,0.0,0.0,0.0,0.0,0.0,0.0,0.0,0.0,0.0,0.0,0.0,0.0,0.0,0.0,0.0,0.0,0.0,0.0,0.0,0.0,0.0,0.0,0.0,0.0,0.0,0.0,0.0,0.0,0.0,0.0,0.0,0.0,0.0,0.0,0.0,0.0,0.0,2.4736,0.0,0.0,0.0,0.0,0.0,0.0,0.0,0.0,0.0,0.0,0.0,0.0,0.0,0.0,0.0,0.0,0.0,0.0,0.0,0.0,0.0,0.0,0.0,0.0,0.0,0.0,0.0,0.0,0.0,0.0,0.0,0.0,0.0,0.0,0.0,0.0,0.0,0.0,0.0,0.0,0.0,0.0,0.0,0.0,0.0,0.0,0.0,0.0,0.0,0.0,0.0,0.0,0.0,0.0,0.0,0.0,0.0,0.0,0.0,0.0,0.0,0.0,0.0,0.0,0.0,0.0,0.0,0.0,0.0,0.0,0.0,0.0,0.0,0.0,0.0,0.0,0.0,0.0,0.0,0.0,0.0,0.0,0.0,0.0,0.0,0.0,0.0,0.0,0.0,0.0,0.0,0.0,0.0,0.0,0.0,0.0,0.0,0.0,0.0,0.0,0.0,0.0,0.0,0.0,0.0,0.0,0.0,0.0,0.0,0.0,2.7018,2.6972,2.6323,2.5903,2.5757,0.0,0.0,0.0,0.0,0.0,0.0,0.0,0.0,0.0,0.0,0.0,0.0,0.0,0.0,0.0,0.0,0.0,0.0,0.0,0.0,0.0,0.0,0.0,0.0,0.0,0.0,0.0,0.0,0.0,0.0,0.0,0.0,0.0,0.0,0.0,0.0,0.0,0.0,0.0,0.0,0.0,0.0,0.0,0.0,0.0,0.0,0.0,0.0,0.0,0.0,0.0,0.0,0.0,0.0,0.0,0.0,0.0,0.0,0.0,0.0,0.0,0.0,0.0,0.0,0.0,0.0,0.0,0.0,0.0,0.0,0.0,0.0,0.0,0.0,0.0,0.0,0.0,0.0,0.0,0.0,0.0,0.0,0.0,0.0,0.0,0.0,0.0,0.0,0.0,0.0,0.0,0.0,0.0,0.0,0.0,0.0,0.0,0.0,0.0,0.0,0.0,0.0,0.0,0.0,0.0,0.0,0.0,0.0,0.0,0.0,0.0,0.0,2.7575,2.6965,2.6255,0.0,0.0,0.0,0.0,0.0,0.0,0.0,0.0,0.0,0.0,0.0,0.0,0.0,0.0,0.0,0.0,0.0,0.0,0.0,0.0,0.0,0.0,0.0,0.0,0.0,0.0,0.0,0.0,0.0,0.0,0.0,0.0,0.0,0.0,0.0,0.0,0.0,0.0,0.0,0.0,0.0,0.0,0.0,0.0,0.0,0.0,0.0,0.0,0.0,0.0,0.0,0.0,0.0,0.0,0.0,0.0,0.0,0.0,0.0,0.0,0.0,0.0,0.0,0.0,0.0,0.0,0.0,0.0,0.0,0.0,0.0,0.0,0.0,0.0,0.0,0.0,0.0,0.0,0.0,0.0,0.0,0.0,0.0,0.0,0.0,0.0,0.0,0.0,0.0,0.0,0.0,0.0,0.0,0.0,0.0,0.0,0.0,0.0,0.0,0.0,0.0,0.0,0.0,0.0,0.0,0.0,0.0,0.0,0.0,0.0,2.8541,2.8541,2.8416,0.0,2.5209,0.0,0.0,0.0,0.0,0.0,0.0,0.0,0.0,0.0,0.0,0.0,0.0,0.0,0.0,0.0,0.0,0.0,0.0,0.0,0.0,0.0,0.0,0.0,0.0,0.0,0.0,0.0,0.0,0.0,0.0,0.0,0.0,0.0,0.0,0.0,0.0,0.0,0.0,0.0,0.0,0.0,0.0,0.0,0.0,0.0,0.0,0.0,0.0,0.0,0.0,0.0,0.0,0.0,0.0,0.0,0.0,0.0,0.0,0.0,0.0,0.0,0.0,0.0,0.0,0.0,0.0,0.0,0.0,0.0,0.0,0.0,0.0,0.0,0.0,0.0,0.0,0.0,0.0,0.0,0.0,0.0,0.0,0.0,0.0,0.0,0.0,0.0,0.0,0.0,0.0,0.0,0.0,0.0,0.0,0.0,0.0,0.0,0.0,0.0,0.0,0.0,0.0,0.0,0.0,0.0,0.0,0.0,0.0,0.0,0.0,2.8662,2.9006,2.8973,2.803,0.0,0.0,0.0,0.0,0.0,0.0,0.0,0.0,0.0,0.0,0.0,0.0,0.0,0.0,0.0,0.0,0.0,0.0,0.0,0.0,0.0,0.0,0.0,0.0,0.0,0.0,0.0,0.0,0.0,0.0,0.0,0.0,0.0,0.0,0.0,0.0,0.0,0.0,0.0,0.0,0.0,0.0,0.0,0.0,0.0,0.0,0.0,0.0,0.0,0.0,0.0,0.0,0.0,0.0,0.0,0.0,0.0,0.0,0.0,0.0,0.0,0.0,0.0,0.0,0.0,0.0,0.0,0.0,0.0,0.0,0.0,0.0,0.0,0.0,0.0,0.0,0.0,0.0,0.0,0.0,0.0,0.0,0.0,0.0,0.0,0.0,0.0,0.0,0.0,0.0,0.0,0.0,0.0,0.0,0.0,0.0,0.0,0.0,0.0,0.0,0.0,0.0,0.0,0.0,0.0,0.0,0.0,0.0,0.0,0.0,2.7689,2.8986,2.9714,2.9401,2.8423,2.6897,0.0,0.0,0.0,0.0,0.0,0.0,0.0,0.0,0.0,0.0,0.0,0.0,0.0,0.0,0.0,0.0,0.0,0.0,0.0,0.0,0.0,0.0,0.0,0.0,0.0,0.0,0.0,0.0,0.0,0.0,0.0,0.0,0.0,0.0,0.0,0.0,0.0,0.0,0.0,0.0,0.0,0.0,0.0,0.0,0.0,0.0,0.0,0.0,0.0,0.0,0.0,0.0,0.0,0.0,0.0,0.0,0.0,0.0,0.0,0.0,0.0,0.0,0.0,0.0,0.0,0.0,0.0,0.0,0.0,0.0,0.0,0.0,0.0,0.0,0.0,0.0,0.0,0.0,0.0,0.0,0.0,0.0,0.0,0.0,0.0,0.0,0.0,0.0,0.0,0.0,0.0,0.0,0.0,0.0,0.0,0.0,0.0,0.0,0.0,0.0,0.0,0.0,0.0,0.0,0.0,0.0,0.0,0.0,0.0,2.7886,2.9667,3.0988,2.9764,2.8274,0.0,0.0,0.0,0.0,0.0,0.0,0.0,0.0,0.0,0.0,0.0,0.0,0.0,0.0,0.0,0.0,0.0,0.0,0.0,0.0,0.0,0.0,0.0,0.0,0.0,0.0,0.0,0.0,0.0,0.0,0.0,0.0,0.0,0.0,0.0,0.0,0.0,0.0,0.0,0.0,0.0,0.0,0.0,0.0,0.0,0.0,0.0,0.0,0.0,0.0,0.0,0.0,0.0,0.0,0.0,0.0,0.0,0.0,0.0,0.0,0.0,0.0,0.0,0.0,0.0,0.0,0.0,0.0,0.0,0.0,0.0,0.0,0.0,0.0,0.0,0.0,0.0,0.0,0.0,0.0,0.0,0.0,0.0,0.0,0.0,0.0,0.0,0.0,0.0,0.0,0.0,0.0,0.0,0.0,0.0,0.0,0.0,0.0,0.0,0.0,0.0,0.0,0.0,0.0,0.0,0.0,0.0,0.0,0.0,2.6464,2.9042,3.0417,3.047,2.9973,2.875,0.0,0.0,0.0,0.0,0.0,0.0,0.0,0.0,0.0,0.0,0.0,0.0,0.0,0.0,0.0,0.0,0.0,0.0,0.0,0.0,0.0,0.0,0.0,0.0,0.0,0.0,0.0,0.0,0.0,0.0,0.0,0.0,0.0,0.0,0.0,0.0,0.0,0.0,0.0,0.0,0.0,0.0,0.0,0.0,0.0,0.0,0.0,0.0,0.0,0.0,0.0,0.0,0.0,0.0,0.0,0.0,0.0,0.0,0.0,0.0,0.0,0.0,0.0,0.0,0.0,0.0,0.0,0.0,0.0,0.0,0.0,0.0,0.0,0.0,0.0,0.0,0.0,0.0,0.0,0.0,0.0,0.0,0.0,0.0,0.0,0.0,0.0,0.0,0.0,0.0,0.0,0.0,0.0,0.0,0.0,0.0,0.0,0.0,0.0,0.0,0.0,0.0,0.0,0.0,0.0,0.0,0.0,0.0,0.0,2.789,0.0,3.1297,0.0,3.034,2.9016,0.0,0.0,0.0,0.0,0.0,0.0,0.0,0.0,0.0,0.0,0.0,0.0,0.0,0.0,0.0,0.0,0.0,0.0,0.0,0.0,0.0,0.0,0.0,0.0,0.0,0.0,0.0,0.0,0.0,0.0,0.0,0.0,0.0,0.0,0.0,0.0,0.0,0.0,0.0,0.0,0.0,0.0,0.0,0.0,0.0,0.0,0.0,0.0,0.0,0.0,0.0,0.0,0.0,0.0,0.0,0.0,0.0,0.0,0.0,0.0,0.0,0.0,0.0,0.0,0.0,0.0,0.0,0.0,0.0,0.0,0.0,0.0,0.0,0.0,0.0,0.0,0.0,0.0,0.0,0.0,0.0,0.0,0.0,0.0,0.0,0.0,0.0,0.0,0.0,0.0,0.0,0.0,0.0,0.0,0.0,0.0,0.0,0.0,0.0,0.0,0.0,0.0,0.0,0.0,0.0,0.0,0.0,0.0,2.7237,3.004,3.1582,3.2337,3.2298,3.0929,2.9059,0.0,0.0,0.0,0.0,0.0,0.0,0.0,0.0,0.0,0.0,0.0,0.0,0.0,0.0,0.0,0.0,0.0,0.0,0.0,0.0,0.0,0.0,0.0,0.0,0.0,0.0,0.0,0.0,0.0,0.0,0.0,0.0,0.0,0.0,0.0,0.0,0.0,0.0,0.0,0.0,0.0,0.0,0.0,0.0,0.0,0.0,0.0,0.0,0.0,0.0,0.0,0.0,0.0,0.0,0.0,0.0,0.0,0.0,0.0,0.0,0.0,0.0,0.0,0.0,0.0,0.0,0.0,0.0,0.0,0.0,0.0,0.0,0.0,0.0,0.0,0.0,0.0,0.0,0.0,0.0,0.0,0.0,0.0,0.0,0.0,0.0,0.0,0.0,0.0,0.0,0.0,0.0,0.0,0.0,0.0,0.0,0.0,0.0,0.0,0.0,0.0,0.0,0.0,0.0,0.0,0.0,0.0,0.0,0.0,3.2487,3.3462,3.3938,3.3891,3.204,2.965,0.0,0.0,0.0,0.0,0.0,0.0,0.0,0.0,0.0,0.0,0.0,0.0,0.0,0.0,0.0,0.0,0.0,0.0,0.0,0.0,0.0,0.0,0.0,0.0,0.0,0.0,0.0,0.0,0.0,0.0,0.0,0.0,0.0,0.0,0.0,0.0,0.0,0.0,0.0,0.0,0.0,0.0,0.0,0.0,0.0,0.0,0.0,0.0,0.0,0.0,0.0,0.0,0.0,0.0,0.0,0.0,0.0,0.0,0.0,0.0,0.0,0.0,0.0,0.0,0.0,0.0,0.0,0.0,0.0,0.0,0.0,0.0,0.0,0.0,0.0,0.0,0.0,0.0,0.0,0.0,0.0,0.0,0.0,0.0,0.0,0.0,0.0,0.0,0.0,0.0,0.0,0.0,0.0,0.0,0.0,0.0,0.0,0.0,0.0,0.0,0.0,0.0,0.0,0.0,0.0,0.0,0.0,0.0,0.0,3.7721,3.7633,3.7428,3.7135,3.4943,3.1933,2.8209,0.0,0.0,0.0,0.0,0.0,0.0,0.0,0.0,0.0,0.0,0.0,0.0,0.0,0.0,0.0,0.0,0.0,0.0,0.0,0.0,0.0,0.0,0.0,0.0,0.0,0.0,0.0,0.0,0.0,0.0,0.0,0.0,0.0,0.0,0.0,0.0,0.0,0.0,0.0,0.0,0.0,0.0,0.0,0.0,0.0,0.0,0.0,0.0,0.0,0.0,0.0,0.0,0.0,0.0,0.0,0.0,0.0,0.0,0.0,0.0,0.0,0.0,0.0,0.0,0.0,0.0,0.0,0.0,0.0,0.0,0.0,0.0,0.0,0.0,0.0,0.0,0.0,0.0,0.0,0.0,0.0,0.0,0.0,0.0,0.0,0.0,0.0,0.0,0.0,0.0,0.0,0.0,0.0,0.0,0.0,0.0,0.0,0.0,0.0,0.0,0.0,0.0,0.0,0.0,0.0,0.0,0.0,0.0,4.52,4.3989,4.2841,4.1724,3.9247,3.5608,0.0,0.0,0.0,0.0,0.0,0.0,0.0,0.0,0.0,0.0,0.0,0.0,0.0,0.0,0.0,0.0,0.0,0.0,0.0,0.0,0.0,0.0,0.0,0.0,0.0,0.0,0.0,0.0,0.0,0.0,0.0,0.0,0.0,0.0,0.0,0.0,0.0,0.0,0.0,0.0,0.0,0.0,0.0,0.0,0.0,0.0,0.0,0.0,0.0,0.0,0.0,0.0,0.0,0.0,0.0,0.0,0.0,0.0,0.0,0.0,0.0,0.0,0.0,0.0,0.0,0.0,0.0,0.0,0.0,0.0,0.0,0.0,0.0,0.0,0.0,0.0,0.0,0.0,0.0,0.0,0.0,0.0,0.0,0.0,0.0,0.0,0.0,0.0,0.0,0.0,0.0,0.0,0.0,0.0,0.0,0.0,0.0,0.0,0.0,0.0,0.0,0.0,0.0,0.0,0.0,0.0,0.0,0.0,0.0,4.9459,5.2957,5.2523,4.7895,4.3049,3.8496,0.0,0.0,0.0,0.0,0.0,0.0,0.0,0.0,0.0,0.0,0.0,0.0,0.0,0.0,0.0,0.0,0.0,0.0,0.0,0.0,0.0,0.0,0.0,0.0,0.0,0.0,0.0,0.0,0.0,0.0,0.0,0.0,0.0,0.0,0.0,0.0,0.0,0.0,0.0,0.0,0.0,0.0,0.0,0.0,0.0,0.0,0.0,0.0,0.0,0.0,0.0,0.0,0.0,0.0,0.0,0.0,0.0,0.0,0.0,0.0,0.0,0.0,0.0,0.0,0.0,0.0,0.0,0.0,0.0,0.0,0.0,0.0,0.0,0.0,0.0,0.0,0.0,0.0,0.0,0.0,0.0,0.0,0.0,0.0,0.0,0.0,0.0,0.0,0.0,0.0,0.0,0.0,0.0,0.0,0.0,0.0,0.0,0.0,0.0,0.0,0.0,0.0,0.0,0.0,0.0,0.0,0.0,0.0,4.8203,5.3338,5.891,6.0018,5.619,4.866,4.2398,0.0,0.0,0.0,0.0,0.0,0.0,0.0,0.0,0.0,0.0,0.0,0.0,0.0,0.0,0.0,0.0,0.0,0.0,0.0,0.0,0.0,0.0,0.0,0.0,0.0,0.0,0.0,0.0,0.0,0.0,0.0,0.0,0.0,0.0,0.0,0.0,0.0,0.0,0.0,0.0,0.0,0.0,0.0,0.0,0.0,0.0,0.0,0.0,0.0,0.0,0.0,0.0,0.0,0.0,0.0,0.0,0.0,0.0,0.0,0.0,0.0,0.0,0.0,0.0,0.0,0.0,0.0,0.0,0.0,0.0,0.0,0.0,0.0,0.0,0.0,0.0,0.0,0.0,0.0,0.0,0.0,0.0,0.0,0.0,0.0,0.0,0.0,0.0,0.0,0.0,0.0,0.0,0.0,0.0,0.0,0.0,0.0,0.0,0.0,0.0,0.0,0.0,0.0,0.0,0.0,0.0,0.0,0.0,5.2633,5.7031,6.2896,6.5555,6.4425,5.476,4.6696,0.0,0.0,0.0,0.0,0.0,0.0,0.0,0.0,0.0,0.0,0.0,0.0,0.0,0.0,0.0,0.0,0.0,0.0,0.0,0.0,0.0,0.0,0.0,0.0,0.0,0.0,0.0,0.0,0.0,0.0,0.0,0.0,0.0,0.0,0.0,0.0,0.0,0.0,0.0,0.0,0.0,0.0,0.0,0.0,0.0,0.0,0.0,0.0,0.0,0.0,0.0,0.0,0.0,0.0,0.0,0.0,0.0,0.0,0.0,0.0,0.0,0.0,0.0,0.0,0.0,0.0,0.0,0.0,0.0,0.0,0.0,0.0,0.0,0.0,0.0,0.0,0.0,0.0,0.0,0.0,0.0,0.0,0.0,0.0,0.0,0.0,0.0,0.0,0.0,0.0,0.0,0.0,0.0,0.0,0.0,0.0,0.0,0.0,0.0,0.0,0.0,0.0,0.0,0.0,0.0,0.0,0.0,0.0,5.5943,6.2075,6.6268,6.7743,6.6279,5.6987,4.9878,0.0,0.0,0.0,0.0,0.0,0.0,0.0,0.0,0.0,0.0,0.0,0.0,0.0,0.0,0.0,0.0,0.0,0.0,0.0,0.0,0.0,0.0,0.0,0.0,0.0,0.0,0.0,0.0,0.0,0.0,0.0,0.0,0.0,0.0,0.0,0.0,0.0,0.0,0.0,0.0,0.0,0.0,0.0,0.0,0.0,0.0,0.0,0.0,2.6057,0.0,0.0,0.0,0.0,0.0,0.0,0.0,0.0,0.0,0.0,0.0,0.0,0.0,0.0,0.0,0.0,0.0,0.0,0.0,0.0,0.0,0.0,0.0,0.0,0.0,0.0,0.0,0.0,0.0,0.0,0.0,0.0,0.0,0.0,0.0,0.0,0.0,0.0,0.0,0.0,0.0,0.0,0.0,0.0,0.0,0.0,0.0,0.0,0.0,0.0,0.0,0.0,0.0,0.0,0.0,0.0,0.0,0.0,0.0,5.8652,6.5385,6.8633,6.9872,6.8763,6.1451,5.4359,0.0,0.0,0.0,0.0,0.0,0.0,0.0,0.0,0.0,0.0,0.0,0.0,0.0,0.0,0.0,0.0,0.0,0.0,0.0,0.0,0.0,0.0,0.0,0.0,0.0,0.0,0.0,0.0,0.0,0.0,0.0,0.0,0.0,0.0,0.0,0.0,0.0,0.0,0.0,0.0,0.0,0.0,0.0,0.0,0.0,0.0,0.0,0.0,0.0,0.0,0.0,0.0,0.0,0.0,0.0,0.0,0.0,0.0,0.0,0.0,0.0,0.0,0.0,0.0,0.0,0.0,0.0,0.0,0.0,0.0,0.0,0.0,0.0,0.0,0.0,0.0,0.0,0.0,0.0,0.0,0.0,0.0,0.0,0.0,0.0,0.0,0.0,0.0,0.0,0.0,0.0,0.0,0.0,0.0,0.0,0.0,0.0,0.0,0.0,0.0,0.0,0.0,0.0,0.0,0.0,0.0,0.0,5.4184,6.1296,6.8288,7.0725,7.174,7.1442,6.598,5.8757,4.9943,0.0,0.0,0.0,0.0,0.0,0.0,0.0,0.0,0.0,0.0,0.0,0.0,0.0,0.0,0.0,0.0,0.0,0.0,0.0,0.0,0.0,0.0,0.0,0.0,0.0,0.0,0.0,0.0,0.0,0.0,0.0,0.0,0.0,0.0,0.0,0.0,0.0,0.0,2.7188,2.8942,0.0,0.0,0.0,0.0,0.0,0.0,0.0,0.0,2.7938,0.0,0.0,0.0,0.0,0.0,0.0,0.0,0.0,0.0,0.0,0.0,0.0,0.0,0.0,0.0,0.0,0.0,0.0,0.0,0.0,0.0,0.0,0.0,0.0,0.0,0.0,0.0,0.0,0.0,0.0,0.0,0.0,0.0,0.0,0.0,0.0,0.0,0.0,0.0,0.0,0.0,0.0,0.0,0.0,0.0,0.0,0.0,0.0,0.0,0.0,0.0,0.0,0.0,0.0,0.0,0.0,5.1441,5.737,6.4426,7.2629,7.3273,7.2863,7.1442,6.7024,6.0655,5.2326,0.0,0.0,0.0,0.0,0.0,0.0,0.0,0.0,0.0,0.0,0.0,0.0,0.0,0.0,0.0,0.0,0.0,0.0,0.0,0.0,0.0,0.0,0.0,0.0,0.0,0.0,0.0,0.0,0.0,0.0,0.0,0.0,0.0,0.0,0.0,0.0,0.0,0.0,0.0,3.1858,3.2378,0.0,0.0,0.0,0.0,0.0,0.0,0.0,0.0,3.1003,0.0,0.0,0.0,0.0,0.0,0.0,0.0,0.0,0.0,0.0,0.0,0.0,0.0,0.0,0.0,0.0,0.0,0.0,0.0,0.0,0.0,0.0,0.0,0.0,0.0,0.0,0.0,0.0,0.0,0.0,0.0,0.0,0.0,0.0,0.0,0.0,0.0,0.0,0.0,0.0,0.0,0.0,0.0,0.0,0.0,0.0,0.0,0.0,0.0,0.0,0.0,0.0,0.0,0.0,0.0,5.306,6.0437,6.7549,7.4206,7.452,7.3941,7.2702,6.7654,6.1069,0.0,0.0,0.0,0.0,0.0,0.0,0.0,0.0,0.0,0.0,0.0,0.0,0.0,0.0,0.0,0.0,0.0,0.0,0.0,0.0,0.0,0.0,0.0,0.0,0.0,0.0,0.0,0.0,0.0,0.0,0.0,0.0,0.0,0.0,0.0,0.0,0.0,0.0,0.0,0.0,3.4884,3.5794,3.7239,0.0,0.0,0.0,0.0,0.0,0.0,3.4515,3.3362,0.0,0.0,0.0,0.0,0.0,0.0,0.0,0.0,0.0,0.0,0.0,0.0,0.0,0.0,0.0,0.0,0.0,0.0,0.0,0.0,0.0,0.0,0.0,0.0,0.0,0.0,0.0,0.0,0.0,0.0,0.0,0.0,0.0,0.0,0.0,0.0,0.0,0.0,0.0,0.0,0.0,0.0,0.0,0.0,0.0,0.0,0.0,0.0,0.0,0.0,0.0,0.0,0.0,0.0,0.0,5.4274,6.3249,7.0368,7.5292,7.5579,7.5136,7.4041,6.7756,6.0624,0.0,0.0,0.0,0.0,0.0,0.0,0.0,0.0,0.0,0.0,0.0,0.0,0.0,0.0,0.0,0.0,0.0,0.0,0.0,0.0,0.0,0.0,0.0,0.0,0.0,0.0,0.0,0.0,0.0,0.0,0.0,0.0,0.0,0.0,0.0,0.0,0.0,0.0,0.0,0.0,0.0,3.8952,4.1829,3.8928,0.0,0.0,0.0,0.0,3.7245,3.7193,0.0,0.0,0.0,0.0,0.0,0.0,0.0,0.0,0.0,0.0,0.0,0.0,0.0,0.0,0.0,0.0,0.0,0.0,0.0,0.0,0.0,0.0,0.0,0.0,0.0,0.0,0.0,0.0,0.0,0.0,0.0,0.0,0.0,0.0,0.0,0.0,0.0,0.0,0.0,0.0,0.0,0.0,0.0,0.0,0.0,0.0,0.0,0.0,0.0,0.0,0.0,0.0,0.0,0.0,0.0,0.0,5.5946,6.5501,7.2673,7.6938,7.7217,7.6492,7.491,6.6851,5.9344,0.0,0.0,0.0,0.0,0.0,0.0,0.0,0.0,0.0,0.0,0.0,0.0,0.0,0.0,0.0,0.0,0.0,0.0,0.0,0.0,0.0,0.0,0.0,0.0,0.0,0.0,0.0,0.0,0.0,0.0,0.0,0.0,0.0,0.0,0.0,0.0,0.0,0.0,0.0,0.0,0.0,4.0271,4.3191,4.1731,4.0003,0.0,0.0,4.1144,4.1229,4.2614,0.0,0.0,0.0,0.0,0.0,0.0,0.0,0.0,0.0,0.0,0.0,0.0,0.0,0.0,0.0,0.0,0.0,0.0,0.0,0.0,0.0,0.0,0.0,0.0,0.0,0.0,0.0,0.0,0.0,0.0,0.0,0.0,0.0,0.0,0.0,0.0,0.0,0.0,0.0,0.0,0.0,0.0,0.0,0.0,0.0,0.0,0.0,0.0,0.0,0.0,0.0,0.0,0.0,0.0,0.0,5.0926,5.7647,6.8183,7.5126,7.8033,7.7724,7.6963,7.5804,6.6951,5.9165,0.0,0.0,0.0,0.0,0.0,0.0,0.0,0.0,0.0,0.0,0.0,0.0,0.0,0.0,0.0,0.0,0.0,0.0,0.0,0.0,0.0,0.0,0.0,0.0,0.0,0.0,0.0,0.0,0.0,0.0,0.0,0.0,0.0,0.0,0.0,0.0,0.0,0.0,0.0,0.0,0.0,0.0,4.5227,4.4776,0.0,0.0,0.0,4.4009,4.3063,0.0,0.0,0.0,0.0,0.0,0.0,0.0,0.0,0.0,0.0,0.0,0.0,0.0,0.0,0.0,0.0,0.0,0.0,0.0,0.0,0.0,0.0,0.0,0.0,0.0,0.0,0.0,0.0,0.0,0.0,0.0,0.0,0.0,0.0,0.0,0.0,0.0,0.0,0.0,0.0,0.0,0.0,0.0,0.0,0.0,0.0,0.0,0.0,0.0,0.0,0.0,0.0,0.0,0.0,0.0,0.0,0.0,5.9251,7.0535,7.7224,7.8902,7.824,7.7381,7.638,6.8,0.0,0.0,0.0,0.0,0.0,0.0,0.0,0.0,0.0,0.0,0.0,0.0,0.0,0.0,0.0,0.0,0.0,0.0,0.0,0.0,0.0,0.0,0.0,0.0,0.0,0.0,0.0,2.2555,0.0,0.0,0.0,0.0,0.0,0.0,0.0,0.0,0.0,0.0,0.0,0.0,0.0,0.0,4.3335,4.7341,4.7891,4.7948,0.0,0.0,4.7215,4.5823,4.7634,4.7258,0.0,0.0,0.0,0.0,0.0,0.0,0.0,0.0,0.0,0.0,0.0,0.0,0.0,0.0,0.0,0.0,0.0,0.0,0.0,0.0,0.0,0.0,0.0,0.0,0.0,0.0,0.0,0.0,0.0,0.0,0.0,0.0,0.0,0.0,0.0,0.0,0.0,0.0,0.0,0.0,0.0,0.0,0.0,0.0,0.0,0.0,0.0,0.0,0.0,0.0,0.0,0.0,0.0,0.0,0.0,6.0846,7.2097,7.8549,7.9735,7.9028,7.8144,7.7067,7.0422,6.2615,0.0,0.0,0.0,0.0,0.0,0.0,0.0,0.0,0.0,0.0,0.0,0.0,0.0,0.0,0.0,0.0,0.0,0.0,0.0,0.0,0.0,0.0,0.0,0.0,0.0,0.0,0.0,0.0,0.0,0.0,0.0,0.0,0.0,0.0,0.0,0.0,0.0,0.0,0.0,0.0,0.0,4.4779,4.9214,5.1005,5.2218,0.0,0.0,5.1528,5.0942,5.3121,5.2256,4.4331,0.0,0.0,0.0,0.0,0.0,0.0,0.0,0.0,0.0,0.0,0.0,0.0,0.0,0.0,0.0,0.0,0.0,0.0,0.0,0.0,0.0,0.0,0.0,0.0,0.0,0.0,0.0,0.0,0.0,0.0,0.0,0.0,0.0,0.0,0.0,0.0,0.0,0.0,0.0,0.0,0.0,0.0,0.0,0.0,0.0,0.0,0.0,0.0,0.0,0.0,0.0,0.0,0.0,5.4959,6.1673,7.2966,7.9414,8.055,7.9737,7.8817,7.7943,7.1835,6.4753,0.0,0.0,0.0,0.0,0.0,0.0,0.0,0.0,0.0,0.0,0.0,0.0,0.0,0.0,0.0,0.0,0.0,0.0,0.0,0.0,0.0,0.0,0.0,0.0,0.0,0.0,0.0,0.0,3.2031,3.266,3.0555,0.0,0.0,0.0,0.0,0.0,0.0,0.0,0.0,0.0,0.0,4.6447,5.1668,5.3214,0.0,0.0,5.4013,5.326,5.187,5.2761,5.1536,4.5231,4.1597,0.0,0.0,0.0,0.0,0.0,0.0,0.0,0.0,0.0,0.0,0.0,0.0,0.0,0.0,0.0,0.0,0.0,0.0,0.0,0.0,0.0,0.0,0.0,0.0,0.0,0.0,0.0,0.0,0.0,0.0,0.0,0.0,0.0,0.0,0.0,0.0,0.0,0.0,0.0,0.0,0.0,0.0,0.0,0.0,0.0,0.0,0.0,0.0,0.0,0.0,0.0,0.0,5.5744,6.2322,7.3472,7.9773,8.0903,7.9982,7.9089,7.8135,7.3453,6.7374,0.0,0.0,0.0,0.0,0.0,0.0,0.0,0.0,0.0,0.0,0.0,0.0,0.0,0.0,0.0,0.0,0.0,0.0,0.0,0.0,0.0,0.0,0.0,0.0,0.0,0.0,0.0,0.0,3.3506,3.3158,2.9991,0.0,0.0,0.0,0.0,0.0,0.0,0.0,0.0,0.0,0.0,4.9013,5.332,5.4737,5.5229,5.4928,5.4545,5.3693,5.1935,5.1928,5.0594,4.6126,0.0,0.0,0.0,0.0,0.0,0.0,0.0,0.0,0.0,0.0,0.0,0.0,0.0,0.0,0.0,0.0,0.0,0.0,0.0,0.0,0.0,0.0,0.0,0.0,0.0,0.0,0.0,0.0,0.0,0.0,2.7722,0.0,0.0,0.0,0.0,0.0,0.0,0.0,0.0,0.0,0.0,0.0,0.0,0.0,0.0,0.0,0.0,0.0,0.0,0.0,0.0,0.0,0.0,5.6477,6.299,7.3592,7.9531,8.0472,7.9708,7.8879,7.7817,7.5442,7.0644,6.3089,0.0,0.0,0.0,0.0,0.0,0.0,0.0,0.0,0.0,0.0,0.0,0.0,0.0,0.0,0.0,0.0,0.0,0.0,0.0,0.0,0.0,0.0,0.0,0.0,0.0,0.0,3.0668,3.1724,3.1499,0.0,0.0,0.0,0.0,0.0,0.0,0.0,0.0,0.0,0.0,4.7637,5.2703,5.3832,5.5408,5.6059,5.5265,5.4058,5.2799,5.1555,5.1324,5.0289,0.0,0.0,0.0,0.0,0.0,0.0,0.0,0.0,0.0,0.0,0.0,0.0,0.0,0.0,0.0,0.0,0.0,0.0,0.0,0.0,0.0,0.0,0.0,0.0,0.0,0.0,0.0,3.6252,3.5417,0.0,0.0,0.0,0.0,0.0,0.0,0.0,0.0,0.0,0.0,0.0,4.7619,4.7396,0.0,0.0,0.0,0.0,0.0,0.0,0.0,0.0,0.0,0.0,0.0,0.0,5.7246,6.3888,7.4851,8.0553,8.0525,8.0628,7.9771,7.7861,7.6434,7.1246,6.1854,0.0,0.0,0.0,0.0,0.0,0.0,0.0,0.0,0.0,0.0,0.0,0.0,0.0,0.0,0.0,0.0,0.0,0.0,0.0,0.0,0.0,0.0,0.0,0.0,0.0,3.2968,0.0,0.0,0.0,0.0,0.0,0.0,0.0,0.0,0.0,0.0,0.0,4.132,4.6733,4.926,5.1509,5.4048,5.4746,5.5451,0.0,0.0,0.0,0.0,0.0,0.0,0.0,0.0,0.0,0.0,0.0,0.0,0.0,0.0,3.7666,3.483,3.4798,3.528,3.5565,0.0,0.0,0.0,0.0,0.0,0.0,0.0,0.0,0.0,0.0,0.0,0.0,0.0,0.0,4.1836,0.0,4.0496,0.0,0.0,0.0,0.0,0.0,0.0,0.0,0.0,5.1567,5.3843,5.4979,5.4755,5.4309,0.0,5.2647,4.8742,0.0,0.0,0.0,0.0,0.0,0.0,0.0,0.0,5.8617,6.4941,7.566,8.1233,8.1098,8.1243,8.0424,7.8554,7.6333,7.1425,6.3563,5.7851,5.1553,0.0,0.0,0.0,0.0,0.0,0.0,0.0,0.0,0.0,0.0,0.0,0.0,0.0,0.0,0.0,0.0,0.0,0.0,0.0,0.0,0.0,0.0,0.0,3.4994,0.0,0.0,0.0,0.0,0.0,0.0,0.0,0.0,0.0,3.758,4.1314,4.5701,5.0248,5.1803,5.2823,5.359,0.0,0.0,0.0,0.0,0.0,0.0,0.0,4.8928,4.7358,4.7693,4.8105,4.7785,4.6965,4.6336,4.6336,0.0,0.0,4.0734,4.0276,4.0767,4.1046,4.1236,4.1669,4.2665,4.265,4.2777,0.0,0.0,0.0,0.0,0.0,0.0,0.0,0.0,4.8694,4.815,0.0,4.6824,0.0,0.0,0.0,0.0,0.0,0.0,0.0,0.0,6.1989,6.4555,6.2365,6.1962,6.1812,6.1674,5.9102,5.7389,5.6299,5.0488,0.0,0.0,0.0,0.0,0.0,0.0,6.0711,6.6512,7.6211,8.1515,8.2112,8.1505,8.073,7.9721,7.5332,7.1442,6.8195,6.2807,5.7973,5.3936,4.5427,0.0,0.0,0.0,0.0,0.0,0.0,0.0,0.0,0.0,0.0,0.0,0.0,0.0,0.0,0.0,0.0,0.0,0.0,0.0,0.0,3.6425,0.0,0.0,0.0,0.0,0.0,0.0,0.0,0.0,0.0,0.0,4.166,4.6034,4.9915,5.128,0.0,0.0,0.0,0.0,5.557,5.1687,5.0916,5.038,4.9047,4.9701,5.0699,5.1495,0.0,0.0,5.3363,5.1988,5.0902,5.0902,5.2114,5.1638,4.6494,4.5446,4.5309,4.5211,4.5725,4.6143,4.6735,4.7567,4.8129,5.6353,0.0,0.0,0.0,0.0,5.1582,5.357,5.5313,5.6177,5.5943,5.486,5.3884,0.0,0.0,0.0,0.0,0.0,0.0,5.8574,6.1632,6.4999,6.6971,6.7873,6.7788,6.7601,6.7271,6.6488,6.5952,6.5566,6.3814,5.7315,4.6448,0.0,0.0,0.0,0.0,6.4546,7.1435,7.8915,8.255,8.2219,8.2005,8.0684,7.8222,7.5786,7.3298,7.0737,6.744,6.3266,5.8087,5.2743,0.0,0.0,0.0,0.0,0.0,0.0,0.0,0.0,0.0,0.0,0.0,0.0,0.0,0.0,0.0,0.0,0.0,0.0,0.0,3.8732,3.9362,3.8384,0.0,0.0,0.0,0.0,0.0,0.0,0.0,0.0,0.0,5.0013,5.0218,5.1283,0.0,0.0,5.3541,5.2741,5.4162,5.5453,5.5826,0.0,0.0,0.0,5.4548,5.3613,5.3676,5.5145,5.638,5.6351,5.5931,5.5501,5.5116,5.5456,5.5223,5.3856,5.2574,5.2042,5.2394,5.2735,5.3121,5.3701,5.3933,5.3964,6.5017,6.0538,5.7185,5.5849,5.6117,5.8189,6.0116,6.1859,6.2348,6.205,6.1091,6.027,5.803,5.4853,5.46,0.0,0.0,0.0,6.4611,6.7928,6.9337,7.0744,7.1988,7.1915,7.1714,7.1464,7.139,7.1305,7.122,7.0513,6.6099,5.7993,0.0,0.0,5.8126,6.3203,6.8814,7.4924,8.0511,8.33,8.3147,8.254,8.1006,7.8543,7.6652,7.4689,7.2646,7.03,6.7048,6.2673,5.8073,5.2531,0.0,0.0,0.0,0.0,0.0,0.0,0.0,0.0,0.0,0.0,0.0,2.9068,2.934,0.0,0.0,0.0,3.8579,4.1233,4.4024,4.3077,0.0,0.0,0.0,0.0,0.0,0.0,0.0,4.4274,4.904,5.3016,5.4929,5.4627,5.4939,5.6947,5.6664,5.6005,5.5267,0.0,5.825,5.842,5.743,5.7049,5.8206,5.7522,5.6867,5.7049,5.8036,5.8828,5.8933,5.8959,5.8857,5.8642,5.8564,5.8564,5.859,5.7889,5.6963,5.6227,5.6132,5.6365,5.6981,5.7192,5.7372,7.2106,7.0875,6.4191,6.1887,6.2687,6.4146,6.5783,6.7346,6.733,6.6757,6.5801,6.5838,6.4084,6.1093,6.1506,0.0,0.0,6.8413,7.0918,7.3057,7.4433,7.5051,7.5023,7.4653,7.446,7.4421,7.4235,7.4191,7.4146,7.2656,7.1888,7.1803,6.7503,6.5223,6.5259,6.8931,7.299,7.7218,8.1108,8.355,8.4457,8.3004,8.147,7.9925,7.7687,7.5724,7.41,7.1826,6.9586,6.7275,6.1953,5.7512,5.4007,0.0,0.0,0.0,0.0,0.0,0.0,0.0,0.0,0.0,0.0,0.0,0.0,0.0,0.0,0.0,4.6032,0.0,5.0079,4.7308,0.0,0.0,0.0,4.3166,4.4701,4.7472,4.9781,5.102,0.0,0.0,0.0,0.0,6.0141,6.0582,6.1733,6.1679,5.9268,6.1583,6.2779,6.0132,5.9679,5.9481,5.9405,5.965,6.0221,6.08,6.1181,6.1103,6.1,6.1009,6.1134,6.1081,6.1289,6.122,6.1289,6.1004,6.0392,5.7677,5.7095,5.7149,5.781,5.8339,5.8821,7.477,7.4435,7.245,7.0395,6.8531,6.9493,7.0177,7.055,7.043,7.0202,6.991,6.9176,6.838,6.7692,6.8947,6.9823,7.054,7.3022,7.4485,7.5061,7.598,7.6324,7.6168,7.6105,7.5861,7.5548,7.5452,7.5781,7.6296,7.594,7.6034,7.651,7.4214,7.1862,6.9653,7.093,7.3922,7.8499,7.9932,8.165,8.3565,8.2718,8.147,7.9935,7.8186,7.6509,7.4966,7.2655,7.0871,6.9658,6.6077,6.1984,5.7469,4.9623,0.0,0.0,0.0,0.0,0.0,0.0,0.0,0.0,0.0,3.3166,3.3408,0.0,4.0783,0.0,4.8984,5.2526,5.2748,5.1414,0.0,0.0,4.7795,4.8071,4.9498,5.3006,5.5485,5.5968,5.8883,6.1249,6.2227,6.3188,6.4408,6.5938,6.382,6.1987,6.1764,6.3396,6.4479,6.3804,6.4143,6.4694,6.4284,6.386,6.3261,6.2822,6.2734,6.2563,6.2014,6.1901,6.1769,6.1417,6.1323,6.1323,6.1349,6.1164,6.0928,6.0154,5.9938,5.9935,5.9963,5.9952,5.9985,7.6488,7.6206,7.6131,7.5087,7.3484,7.369,7.3717,7.3617,7.3499,7.3353,7.3132,7.215,7.1769,7.194,7.3079,7.3869,7.4414,7.637,7.7457,7.7811,7.8499,7.8574,7.8145,7.795,7.7723,7.7446,7.7341,7.7725,7.8554,7.8635,7.9084,7.9948,7.9011,7.723,7.469,7.2994,7.3714,7.6852,7.8937,8.1212,8.3671,8.274,8.0974,7.8412,7.614,7.3766,7.1322,6.8682,6.695,6.6223,6.3618,6.0763,5.7622,5.1066,4.5256,0.0,0.0,0.0,0.0,0.0,0.0,0.0,0.0,0.0,0.0,0.0,4.5264,0.0,5.2371,0.0,5.455,5.3972,5.3471,5.3096,5.3287,5.4139,5.59,5.8744,6.0714,6.1164,6.3805,6.5803,6.6303,6.7333,6.8402,6.9498,6.7663,6.6126,6.5799,6.6463,6.6834,6.6511,6.6751,6.6795,6.6324,6.5692,6.506,6.4483,6.4332,6.4195,6.3783,6.3396,6.3083,6.2855,6.254,6.2296,6.2206,6.2131,6.1993,6.1817,6.1736,6.1469,6.0752,6.0677,6.0808,7.7712,7.7174,7.7389,7.7476,7.7415,7.6965,7.65,7.6107,7.6079,7.5858,7.5462,7.4651,7.445,7.4747,7.5497,7.6346,7.7362,7.8766,7.9791,8.0478,8.0971,8.0806,8.0141,7.9748,7.9522,7.9422,7.9214,7.9597,8.0574,8.0607,8.1088,8.1973,8.1809,8.069,7.8624,7.4591,7.31,7.4372,7.8405,8.1576,8.3761,8.2338,7.9746,7.6077,7.3006,6.9802,6.6426,6.3406,6.1568,6.1014,5.9047,5.7662,5.7049,5.1381,4.7133,0.0,4.0377,0.0,0.0,0.0,0.0,0.0,0.0,0.0,0.0,4.7392,4.9857,5.3122,5.5915,5.7242,5.6499,5.6348,5.6795,5.8238,5.8942,6.0177,6.2296,6.3913,6.5171,6.5966,6.8003,6.9451,6.9654,7.0885,7.1607,7.1351,7.1224,7.0667,6.9909,6.9593,6.9303,6.8629,6.8062,6.7383,6.6447,6.6096,6.5932,6.5699,6.5567,6.5651,6.5513,6.4998,6.4599,6.4553,6.4055,6.3567,6.3355,6.3212,6.3051,6.2668,6.2591,6.2178,6.1149,6.1128,6.1434,7.9218,7.8574,7.8731,7.8811,7.8811,7.8709,7.7929,7.6711,7.658,7.6362,7.6107,7.5961,7.6207,7.6849,7.7653,7.8447,7.9297,8.0165,8.0647,8.0812,8.0921,8.0767,8.0408,8.0321,8.0115,7.9712,7.9656,8.0095,8.0892,8.1119,8.1347,8.1473,8.0285,7.8694,7.6716,0.0,0.0,0.0,7.9468,8.1843,8.15,7.9262,7.6696,7.3794,7.0806,0.0,6.6303,6.3406,6.1812,6.1764,6.0358,0.0,0.0,0.0,0.0,0.0,0.0,0.0,0.0,0.0,0.0,0.0,4.987,4.9848,4.8283,5.1249,5.4635,5.7855,5.915,6.027,6.1384,6.1391,6.1655,6.251,6.2641,6.327,6.4804,6.6298,6.7556,6.8353,6.9872,7.0963,7.1224,7.1543,7.1699,7.1731,7.169,7.1568,7.1332,7.1236,7.0911,7.019,6.9215,6.8195,6.7174,6.6933,6.6689,6.6035,6.5828,6.5863,6.5897,6.5794,6.5336,6.4876,6.4424,6.4027,6.3421,6.3038,6.2857,6.2736,6.2591,6.2382,6.2067,6.2115,6.2347,8.0317,0.0,8.0173,8.0169,0.0,8.0204,7.9621,7.8614,7.7998,7.776,7.7835,7.8104,7.8425,7.881,7.9323,7.9983,8.0764,8.1258,8.1699,8.2028,8.1918,8.1598,8.1092,8.0859,8.0623,8.0362,8.0236,8.0674,8.154,8.1828,8.201,8.2135,8.1455,8.0629,7.9663,7.863,7.7451,7.6013,7.9277,8.1361,8.2105,8.0341,7.7798,7.467,0.0,0.0,0.0,0.0,0.0,0.0,0.0,0.0,0.0,0.0,0.0,5.52,5.2837,5.1695,5.2211,5.2995,5.4195,5.5914,5.7788,5.748,5.4183,5.6961,5.9646,6.1585,6.2326,6.3178,6.433,6.4338,6.4562,6.5275,6.5224,6.5644,6.6922,6.7836,6.8752,6.9923,7.1107,7.1987,7.2226,7.2596,7.2807,7.2842,7.2842,7.2807,7.2771,7.2175,7.1479,7.1023,7.0511,6.9668,6.8673,6.8373,6.7969,6.7235,6.6989,6.6999,6.6989,6.6689,6.6196,6.5428,6.4809,6.4122,6.3382,6.3168,6.3198,6.3167,6.3306,6.3473,6.3473,6.3226,6.3159,8.1128,8.1137,8.1105,8.1084,8.1049,8.1052,8.0816,8.0384,0.0,0.0,0.0,8.0024,8.0284,8.0399,8.0588,8.1083,8.1895,8.2118,8.2557,8.3131,8.2976,8.2503,8.1773,8.1389,8.1194,8.1136,8.0927,8.1306,8.2244,8.2558,8.2881,8.3225,8.3485,8.3513,8.3419,8.3408,8.1742,7.8577,7.9354,8.0913,8.2881,8.1504,7.9043,7.5541,7.2498,6.9383,6.6297,6.343,6.1875,6.1898,6.0871,6.0126,5.9673,5.9218,5.8575,5.7728,5.7488,5.7789,5.8648,5.933,6.0698,6.2977,6.4274,6.3673,6.0603,6.2458,6.4015,6.4615,6.5092,6.5598,6.6214,6.6163,6.6382,6.7066,6.7132,6.7568,6.8667,6.9198,6.9888,7.1056,7.2071,7.2767,7.2998,7.3553,7.401,7.3975,7.386,7.401,7.3834,7.2781,7.1916,7.1711,7.1379,7.0944,7.0183,6.9837,6.9461,6.8522,6.8335,6.8305,6.8059,6.7601,6.6945,6.6163,6.5311,6.4516,6.363,6.3689,6.3876,6.372,6.4164,6.4637,6.4715,6.4333,6.413,8.1569,8.0913,8.0697,8.061,8.0564,8.0401,8.0279,8.0235,8.0092,8.0035,8.0085,8.0156,8.0562,8.1131,8.1165,8.1729,8.2723,8.2791,8.2837,0.0,8.292,8.2601,8.2072,8.1991,8.1862,8.1697,8.165,8.2029,8.2768,8.3287,8.3868,8.4507,8.4947,8.4859,8.4286,8.4215,8.3633,8.2411,8.1716,8.114,8.0645,7.8411,7.5892,7.3065,7.0151,6.7615,6.5832,6.3602,6.1999,6.1605,6.1528,6.1941,6.2929,6.305,6.3744,6.5204,6.4737,6.4433,6.4535,6.4714,6.5201,6.6196,6.6379,6.5901,6.4805,6.5436,6.6214,6.675,6.6752,6.6734,6.6874,6.6892,6.7188,6.7716,6.8325,6.8908,6.9485,7.0754,7.1663,7.2031,7.2908,7.3582,7.3725,7.3905,7.401,7.401,7.401,7.401,7.3869,7.3238,7.2701,7.2512,7.1876,7.1375,7.1119,7.1001,7.0441,6.955,6.9327,6.9006,6.8216,6.7945,6.7517,6.6721,6.6215,6.563,6.4774,6.4544,6.4515,6.4444,6.4647,6.4918,6.5436,6.5392,6.5402,8.2095,8.1758,8.1646,8.1566,8.159,8.1341,8.1216,8.1216,8.1124,8.0893,8.0649,8.0916,8.124,8.1563,8.1679,8.1979,8.2488,8.2602,8.267,8.2694,8.2522,8.2326,8.2129,8.2,8.209,8.2362,8.2397,8.2848,8.3707,8.4133,8.4553,8.5019,8.5354,8.5139,8.4461,8.4426,8.4005,8.3197,8.2758,8.2297,8.1834,8.0312,7.878,7.7225,7.5013,7.3442,7.2462,7.0196,6.8868,6.8626,6.7848,6.7544,6.785,6.7538,6.7584,6.8161,6.7481,6.7061,6.7053,6.7053,6.719,6.7483,6.8183,6.8366,6.7779,6.7595,6.7632,6.7798,6.8087,6.8251,6.8185,6.8508,6.881,6.8952,6.9569,7.0237,7.0928,7.1628,7.2399,7.2923,7.3497,7.3901,7.4,7.401,7.401,7.401,7.401,7.401,7.401,7.3694,7.3448,7.3413,7.3044,7.2596,7.2113,7.192,7.1235,6.9896,6.9629,6.9194,6.835,6.8083,6.7684,6.6922,6.6522,6.6005,6.5113,6.5071,6.5162,6.5222,6.5561,6.5922,6.6227,6.6305,6.6305,8.3021,8.3021,8.2952,8.2894,8.2824,8.2626,8.2532,8.2508,8.2365,8.2055,8.1735,8.179,8.1776,8.1834,8.1965,8.2036,8.2118,8.2315,8.2407,8.2384,8.2187,8.2163,8.2278,8.21,8.2431,8.3075,8.3143,8.3632,8.4518,8.4886,8.5298,8.5776,8.5972,8.5596,8.4672,8.4637,8.418,8.3268,8.3197,8.3197,8.3173,8.2482,8.1786,8.1081,7.9612,7.8553,7.7868,7.604,7.4839,7.445,7.3275,7.2272,7.1569,7.1002,7.0468,7.0019,6.9311,6.8917,6.8917,6.8875,6.8889,6.8949,6.9972,7.0469,7.0145,6.9605,6.9135,6.9078,6.954,6.9771,6.9675,7.0018,7.0287,7.0153,7.062,7.1205,7.197,7.2319,7.2753,7.3577,7.3881,7.4,7.401,7.401,7.401,7.401,7.401,7.401,7.401,7.401,7.401,7.401,7.401,7.367,7.2962,7.2837,7.203,7.0253,6.9986,6.9416,6.8562,6.8088,6.7787,6.7073,6.675,6.6357,6.562,6.5661,6.592,6.6,6.6464,6.7039,6.7343,6.7411,6.7242,8.4541,8.4541,8.4281,8.4077,8.3815,8.3813,8.3766,8.3766,8.3776,8.3776,8.3525,8.2374,8.1845,8.1776,8.1869,8.1987,8.2106,8.2152,8.2164,8.2164,8.2106,8.2358,8.2824,8.2811,8.3178,8.3833,8.3902,8.434,8.5163,8.5601,8.6427,8.7504,8.7691,8.6813,8.5549,8.5374,8.4672,8.3233,8.3197,8.3197,8.3173,8.2482,8.1745,8.0937,7.9448,7.8265,7.7558,7.6624,7.5474,7.42,7.3928,7.3252,7.2157,7.2051,7.2118,7.2157,7.1623,7.1379,7.1326,7.1205,7.1295,7.197,7.1831,7.1769,7.1704,7.1535,7.1386,7.1294,7.1195,7.102,7.1076,7.099,7.0838,7.0674,7.1238,7.1768,7.2037,7.269,7.3345,7.3637,7.3891,7.401,7.401,7.401,7.401,7.401,7.401,7.401,7.401,7.401,7.401,7.401,7.401,7.3965,7.3785,7.384,7.2907,7.135,7.0947,7.0065,6.8764,6.7969,6.771,6.7412,6.7295,6.6976,6.6745,6.67,6.6755,6.6966,6.743,6.8007,6.8639,6.873,6.8504,8.4332,8.432,8.42,8.4103,8.4006,8.3993,8.3993,8.3993,8.3993,8.3993,8.3924,8.335,8.3075,8.3075,8.3109,8.2928,8.2562,8.2562,8.2562,8.2562,8.2562,8.2929,8.35,8.3557,8.3971,8.4661,8.4708,8.5161,8.6027,8.6448,8.6912,8.7382,8.7429,8.6626,8.5229,8.5089,8.432,8.283,8.293,8.3032,8.3019,8.2861,8.2155,8.0986,8.0284,7.9346,7.8188,7.738,7.6633,7.6001,7.5133,7.446,7.4021,7.3235,7.2928,7.3142,7.254,7.2104,7.2005,7.1915,7.1966,7.2211,7.2477,7.2582,7.2494,7.2723,7.2886,7.2771,7.1913,7.1208,7.1052,7.127,7.1382,7.1303,7.185,7.2427,7.2719,7.3064,7.3446,7.3822,7.3951,7.401,7.401,7.401,7.401,7.401,7.401,7.401,7.401,7.401,7.401,7.401,7.401,7.401,7.401,7.401,7.3121,7.1742,7.1116,7.0377,6.8744,6.7949,6.7739,6.755,6.7731,6.7774,6.7508,6.8033,6.8345,6.8379,6.8447,6.889,6.9078,6.9079,6.918,8.4178,8.404,8.4213,8.4454,8.4626,8.4626,8.4626,8.4626,8.4626,8.4626,8.4626,8.4626,8.4639,8.4557,8.4213,8.3695,8.3247,8.3212,8.3212,8.3212,8.3178,8.3592,8.4281,8.435,8.473,8.5397,8.5501,8.5926,8.6657,8.6875,8.7009,8.7092,8.7104,8.6339,8.4959,8.4819,8.4019,8.2661,8.2716,8.2796,8.283,8.2986,8.2511,8.1337,8.1021,8.0294,7.8971,7.8153,7.7616,7.7395,7.6152,7.5379,7.5272,7.4107,7.3487,7.3547,7.3087,7.2668,7.2521,7.2475,7.2498,7.2649,7.3073,7.321,7.3124,7.3382,7.3557,7.3381,7.243,7.1678,7.1482,7.1776,7.194,7.1874,7.2381,7.287,7.3207,7.3324,7.3486,7.3921,7.4,7.401,7.401,7.401,7.401,7.401,7.401,7.401,7.401,7.401,7.401,7.401,7.401,7.401,7.4,7.3941,7.3097,7.2081,7.1425,7.0784,6.9085,6.8647,6.838,6.861,6.8649,6.8614,6.8479,6.9018,6.9746,6.9848,6.9985,7.0182,7.0394,7.0283,7.0882,8.4708,8.4144,8.4811,8.5419,8.6156,8.6075,8.6156,8.6053,8.6109,8.6156,8.6075,8.6109,8.6144,8.6006,8.473,8.4006,8.3971,8.3937,8.3971,8.3937,8.3971,8.4385,8.5121,8.5156,8.5535,8.6109,8.6156,8.6362,8.6667,8.6716,8.6838,8.708,8.6986,8.6292,8.4946,8.4703,8.4007,8.2627,8.2488,8.2522,8.2545,8.2784,8.2625,8.2006,8.1302,8.054,7.9708,7.8971,7.8188,7.743,7.6678,7.5916,7.5173,7.4587,7.396,7.352,7.3406,7.3326,7.3305,7.311,7.3297,7.3912,7.3705,7.3637,7.3537,7.3406,7.3273,7.3077,7.2904,7.2748,7.2707,7.2551,7.2561,7.2564,7.2668,7.2901,7.3273,7.3344,7.3526,7.3901,7.401,7.401,7.401,7.401,7.401,7.401,7.401,7.4045,7.4115,7.408,7.4115,7.4185,7.415,7.401,7.399,7.3881,7.3278,7.235,7.1697,7.1415,7.0776,7.0127,6.9831,6.9712,6.9809,6.9738,6.9518,6.9789,7.0473,7.096,7.1609,7.1876,7.2007,7.3028,7.3425,8.4247,8.404,8.4316,8.488,8.557,8.5604,8.5846,8.6294,8.6294,8.6294,8.6294,8.6294,8.6294,8.6247,8.573,8.5225,8.4811,8.4764,8.4777,8.4777,8.4764,8.519,8.5846,8.5915,8.6018,8.626,8.6294,8.6332,8.6419,8.6431,8.6481,8.6452,8.6096,8.5334,8.4388,8.3812,8.3051,8.2174,8.2187,8.2245,8.2269,8.2499,8.2542,8.2318,8.1395,8.0565,7.9838,7.9006,7.8444,7.8188,7.744,7.6643,7.5856,7.4884,7.4152,7.3847,7.3793,7.3744,7.3573,7.3367,7.3342,7.3597,7.3547,7.3446,7.3405,7.3242,7.3088,7.3005,7.287,7.2807,7.2797,7.2734,7.2692,7.2702,7.2818,7.2995,7.3273,7.3456,7.3667,7.3906,7.401,7.401,7.401,7.401,7.401,7.401,7.401,7.4256,7.4617,7.4722,7.4853,7.5214,7.5028,7.4662,7.4502,7.4007,7.3387,7.2574,7.1945,7.143,7.0825,7.0629,7.0377,7.0955,7.1041,7.1422,7.1417,7.2038,7.2465,7.2761,7.3378,7.3461,7.3695,7.4207,7.4503,8.3454,8.3626,8.3661,8.4247,8.5156,8.5203,8.5626,8.626,8.6294,8.6294,8.6294,8.6294,8.6294,8.6294,8.6294,8.6003,8.5505,8.552,8.552,8.5411,8.5411,8.5687,8.61,8.6169,8.6206,8.6282,8.6294,8.6294,8.6294,8.6294,8.6294,8.626,8.557,8.4799,8.4006,8.3281,8.2523,8.1984,8.193,8.2012,8.2047,8.2234,8.2373,8.2187,8.1248,8.0443,7.9929,7.8924,7.8406,7.8389,7.7758,7.6941,7.6155,7.5103,7.4381,7.4182,7.3897,7.3742,7.3577,7.3405,7.3289,7.3279,7.3217,7.3211,7.3201,7.3026,7.2911,7.2859,7.2786,7.2692,7.2692,7.2692,7.2692,7.2713,7.288,7.3088,7.3293,7.3526,7.3772,7.3951,7.401,7.401,7.4045,7.4221,7.4361,7.4361,7.4537,7.4993,7.5389,7.553,7.5635,7.6152,7.5811,7.5419,7.5222,7.4819,7.3864,7.3013,7.2828,7.2088,7.1698,7.1442,7.1557,7.2146,7.2631,7.3114,7.3651,7.4264,7.4559,7.4753,7.4822,7.4835,7.4942,7.5002,7.5412,8.2247,8.2833,8.2902,8.3695,8.4915,8.5052,8.557,8.6156,8.6282,8.6294,8.6294,8.6294,8.6269,8.6269,8.6278,8.6109,8.5864,8.6002,8.599,8.5813,8.58,8.5834,8.5903,8.5941,8.608,8.6282,8.6294,8.6294,8.6294,8.6294,8.6294,8.6156,8.5501,8.4695,8.3993,8.3212,8.2488,8.1948,8.1846,8.18,8.18,8.2012,8.2094,8.1979,8.0914,8.0284,8.0168,7.874,7.8079,7.8191,7.7597,7.6748,7.6049,7.5275,7.4754,7.4485,7.3821,7.3428,7.3358,7.3342,7.3346,7.3221,7.3133,7.3109,7.3112,7.3035,7.292,7.2896,7.2851,7.2761,7.2795,7.283,7.2761,7.2713,7.2981,7.3268,7.3408,7.3606,7.3827,7.4136,7.4256,7.408,7.4221,7.4712,7.5108,7.5214,7.559,7.6081,7.6232,7.6292,7.6292,7.6432,7.6387,7.619,7.595,7.5628,7.4504,7.3636,7.37,7.3461,7.3461,7.331,7.3521,7.4006,7.4428,7.4889,7.4913,7.5414,7.5333,7.5492,7.5744,7.5998,7.599,7.6049,7.6496,8.1781,8.2109,8.2143,8.2707,8.3638,8.4144,8.4811,8.557,8.604,8.6294,8.6294,8.6294,8.6194,8.6055,8.603,8.5878,8.5669,8.5699,8.572,8.5622,8.5609,8.5609,8.5648,8.5814,8.6043,8.6257,8.6294,8.6294,8.6294,8.6294,8.6294,8.6075,8.5006,8.4281,8.3947,8.2799,8.1983,8.1845,8.1776,8.1776,8.1776,8.1881,8.1894,8.1791,8.0951,8.0467,8.0375,7.882,7.7985,7.8036,7.7781,7.7293,7.6537,7.5785,7.5325,7.5217,7.4906,7.4382,7.3899,7.3691,7.342,7.3122,7.3312,7.3522,7.3615,7.3955,7.3947,7.3578,7.3451,7.3451,7.344,7.344,7.3278,7.2761,7.3476,7.4027,7.4231,7.4901,7.5464,7.558,7.56,7.559,7.559,7.5881,7.5906,7.5916,7.6232,7.6513,7.6924,7.7054,7.7345,7.7707,7.742,7.692,7.6639,7.6265,7.5459,7.4695,7.463,7.4602,7.4695,7.496,7.525,7.5538,7.5995,7.6259,7.6293,7.6293,7.6166,7.6339,7.6661,7.68,7.6835,7.7146,7.7605,8.149,8.1633,8.1775,8.2165,8.2769,8.3286,8.381,8.4527,8.5283,8.5592,8.5627,8.5889,8.5903,8.5776,8.575,8.5596,8.5351,8.5338,8.5307,8.5207,8.5299,8.5325,8.5424,8.5737,8.6043,8.6278,8.6294,8.6294,8.6294,8.6282,8.6244,8.5928,8.4629,8.3797,8.3564,8.228,8.1536,8.1536,8.1585,8.1633,8.1691,8.1728,8.1776,8.1672,8.1005,8.0614,8.0511,7.9197,7.8393,7.8204,7.8037,7.7652,7.709,7.6362,7.5858,7.5727,7.5377,7.49,7.4439,7.4274,7.405,7.3705,7.3947,7.4223,7.4292,7.4718,7.4626,7.4315,7.4223,7.4223,7.4223,7.4223,7.4013,7.374,7.4413,7.4938,7.5218,7.5814,7.6201,7.6187,7.6222,7.6292,7.6302,7.6608,7.6668,7.6703,7.6969,7.725,7.7731,7.7837,7.8233,7.8444,7.8107,7.7653,7.7269,7.6844,7.6368,7.5922,7.5579,7.5442,7.5408,7.5822,7.6168,7.6374,7.6741,7.6741,7.6822,7.6925,7.6891,7.7235,7.7419,7.7603,7.7719,7.8281,7.873,8.1357,8.1405,8.1656,8.1974,8.2342,8.2502,8.2803,8.3254,8.4006,8.4373,8.4532,8.4989,8.5267,8.5296,8.5215,8.5141,8.5035,8.505,8.4932,8.4813,8.4919,8.5063,8.5181,8.5571,8.589,8.6144,8.6216,8.6194,8.6156,8.6156,8.6131,8.5719,8.4389,8.3454,8.3043,8.1781,8.1066,8.1115,8.1273,8.1369,8.1381,8.1644,8.174,8.1728,8.1096,8.0705,8.0602,7.989,7.9223,7.8758,7.8311,7.801,7.7566,7.6898,7.6523,7.6244,7.5453,7.5188,7.5029,7.4971,7.4891,7.4707,7.4822,7.4983,7.4994,7.519,7.5235,7.4994,7.4994,7.496,7.496,7.4994,7.5103,7.543,7.5627,7.592,7.6361,7.6538,7.6678,7.6618,7.6478,7.6468,7.6653,7.717,7.7405,7.7616,7.8093,7.8514,7.8655,7.8725,7.876,7.8795,7.889,7.8501,7.8157,7.7629,7.7165,7.6714,7.6449,7.6302,7.6154,7.6511,7.6787,7.6994,7.7235,7.727,7.7304,7.7339,7.7442,7.758,7.7867,7.8258,7.8763,7.9269,7.9752,8.0931,8.1115,8.1175,8.1266,8.1479,8.1923,8.2262,8.2474,8.3191,8.3473,8.3567,8.3704,8.3747,8.3594,8.4113,8.4161,8.4148,8.4489,8.4707,8.464,8.468,8.4879,8.505,8.5221,8.5454,8.572,8.5784,8.572,8.5699,8.5772,8.5673,8.5528,8.4078,8.3267,8.2965,8.1697,8.1039,8.1005,8.1054,8.1102,8.1151,8.1357,8.149,8.149,8.1283,8.1146,8.1112,8.0447,7.9808,7.935,7.9188,7.8785,7.8233,7.7945,7.7566,7.6947,7.6718,7.6339,7.5891,7.5787,7.5546,7.5018,7.5511,7.5753,7.5787,7.627,7.627,7.596,7.5787,7.5787,7.5764,7.5844,7.6237,7.6988,7.7012,7.7125,7.7704,7.8023,7.7988,7.7988,7.7917,7.7882,7.7988,7.8093,7.8293,7.8469,7.8936,7.9497,7.9533,7.9803,7.9908,7.9978,7.9947,7.9492,7.9003,7.8484,7.7977,7.7528,7.7261,7.7183,7.6991,7.6994,7.7097,7.7201,7.758,7.7684,7.7684,7.7695,7.7787,7.8097,7.8762,7.9372,7.9773,8.0234,8.0729,8.0697,8.0823,8.0956,8.0943,8.0879,8.1276,8.1397,8.1467,8.2079,8.2386,8.2454,8.276,8.276,8.27,8.3081,8.3376,8.3537,8.3964,8.4289,8.458,8.4593,8.48,8.5024,8.509,8.5255,8.5489,8.5514,8.5527,8.5527,8.5514,8.5428,8.5065,8.3777,8.3011,8.2722,8.142,8.0672,8.0684,8.0771,8.0833,8.087,8.109,8.1212,8.1236,8.1224,8.1236,8.1168,8.0767,8.0304,7.9876,7.9591,7.9281,7.8936,7.8879,7.8488,7.7798,7.7695,7.7384,7.6753,7.6546,7.6373,7.6063,7.6339,7.6522,7.6615,7.6959,7.6936,7.6649,7.6557,7.6557,7.6659,7.6999,7.7678,7.8339,7.8632,7.8648,7.8679,7.8514,7.8585,7.8585,7.862,7.8795,7.9006,7.9111,7.9287,7.9557,7.9933,8.0189,8.0294,8.0705,8.0986,8.0916,8.0729,8.0271,7.9988,7.9538,7.9175,7.8676,7.8284,7.8148,7.7737,7.7579,7.7695,7.7798,7.8005,7.8189,7.8281,7.8441,7.8752,7.9211,7.9913,8.0361,8.0717,8.127,8.1766,8.0572,8.0585,8.082,8.0783,8.0585,8.0572,8.0528,8.0395,8.0949,8.1254,8.1355,8.1879,8.1985,8.2192,8.221,8.2691,8.3355,8.3524,8.4018,8.439,8.4606,8.476,8.4958,8.4971,8.509,8.5286,8.5377,8.5338,8.5299,8.5338,8.5281,8.4784,8.3576,8.2768,8.2334,8.1105,8.039,8.0309,8.0485,8.056,8.0622,8.082,8.0956,8.0968,8.0968,8.0931,8.0919,8.0841,8.0702,8.0326,7.9899,7.9775,7.9672,7.9626,7.9247,7.866,7.8488,7.8212,7.766,7.7546,7.7477,7.7442,7.7477,7.7442,7.7546,7.7546,7.7419,7.7339,7.7304,7.7441,7.7749,7.8523,7.911,7.95,8.0274,8.0087,7.9252,7.883,7.883,7.883,7.8865,7.9217,7.9638,7.9989,8.0119,8.0249,8.0705,8.0997,8.1172,8.1477,8.1583,8.1548,8.1315,8.0991,8.0799,8.0607,8.0301,7.9942,7.9492,7.9139,7.8439,7.8291,7.8453,7.8557,7.8695,7.8948,7.9235,7.9465,7.9764,8.0212,8.0833,8.1201,8.157,8.2356,8.2934,8.0297,8.0309,8.036,8.0347,8.0297,8.0297,8.0272,8.0209,8.0378,8.0488,8.0513,8.0636,8.0691,8.0758,8.1299,8.1947,8.2652,8.3206,8.3896,8.4525,8.458,8.4606,8.47,8.4747,8.476,8.4839,8.4813,8.4813,8.4826,8.4879,8.48,8.4591,8.3825,8.3014,8.2319,8.1507,8.0729,8.0335,8.0284,8.0322,8.0372,8.056,8.0697,8.0697,8.0697,8.0551,8.0439,8.0585,8.0718,8.0792,8.0887,8.0643,8.0441,8.0339,8.0005,7.9488,7.9247,7.9178,7.9005,7.8867,7.8971,7.8867,7.8798,7.9017,7.8971,7.8419,7.8178,7.8143,7.8143,7.8441,7.907,7.9629,8.0058,8.038,8.0716,8.0905,8.0494,8.0354,8.0259,8.0284,8.0284,8.0459,8.0635,8.0681,8.081,8.0975,8.1337,8.1769,8.2015,8.225,8.225,8.2179,8.1993,8.1761,8.1693,8.15,8.125,8.1028,8.0668,8.0315,7.9613,7.9234,7.9499,7.9442,7.9316,7.9684,8.0236,8.0478,8.0789,8.1284,8.1731,8.2147,8.2632,8.3386,8.3909,8.0209,8.0209,8.0209,8.0209,8.0209,8.0209,8.0209,8.0183,8.0069,8.0019,7.998,7.9904,7.9827,7.9853,8.0372,8.0997,8.1859,8.2964,8.3896,8.4458,8.458,8.458,8.458,8.458,8.458,8.458,8.4593,8.458,8.458,8.458,8.462,8.4512,8.3896,8.3097,8.2408,8.171,8.0898,8.0357,8.0209,8.0209,8.0247,8.0335,8.0422,8.0422,8.0422,8.0301,8.0259,8.0347,8.0635,8.0931,8.1139,8.1222,8.121,8.1143,8.0764,8.0178,8.0005,7.9787,7.9614,7.9488,7.9454,7.9523,7.9523,7.9488,7.9454,7.9109,7.8971,7.8902,7.8971,7.9246,7.9966,8.0553,8.0869,8.1318,8.1693,8.1923,8.1863,8.1372,8.0916,8.0916,8.081,8.1102,8.1277,8.1418,8.1758,8.2039,8.2179,8.2541,8.2612,8.2811,8.2881,8.2846,8.2717,8.2601,8.253,8.237,8.2142,8.1966,8.1731,8.1435,8.102,8.0767,8.0651,8.049,8.0305,8.0894,8.139,8.1621,8.1735,8.2149,8.2574,8.3071,8.3511,8.3999,8.4465,8.0183,8.0158,8.0145,8.0133,8.0095,8.0069,8.0057,8.0031,7.9806,7.975,7.9699,7.9492,7.9479,7.95,7.9681,8.0221,8.1374,8.2696,8.3896,8.4512,8.458,8.458,8.458,8.458,8.454,8.4574,8.46,8.4614,8.458,8.458,8.458,8.4492,8.4052,8.3422,8.2611,8.1832,8.1202,8.0581,8.0276,8.0209,8.0209,8.0234,8.0247,8.0247,8.0247,8.0247,8.0209,8.0272,8.046,8.0956,8.1005,8.1285,8.1621,8.1741,8.1557,8.0833,8.0798,8.0592,8.0247,8.004,8.0005,7.9867,7.9902,7.9902,7.9936,7.9798,7.9695,7.9684,7.9776,8.004,8.0506,8.1198,8.1782,8.221,8.2811,8.3138,8.2952,8.2004,8.1548,8.1407,8.1653,8.1909,8.2085,8.2261,8.2682,8.3022,8.3127,8.3197,8.3233,8.3208,8.3244,8.3208,8.3033,8.2928,8.2892,8.2846,8.2664,8.2543,8.246,8.221,8.1968,8.1679,8.139,8.1402,8.1494,8.1933,8.221,8.2255,8.2496,8.2921,8.3337,8.3743,8.4161,8.459,8.5093,8.0082,7.9866,7.9866,7.9717,7.9544,7.9531,7.957,7.9518,7.9492,7.9466,7.9453,7.9388,7.9349,7.9388,7.9414,8.0321,8.1699,8.2906,8.3849,8.4478,8.458,8.458,8.458,8.454,8.4446,8.4386,8.444,8.4547,8.4526,8.458,8.454,8.4566,8.4458,8.395,8.3219,8.2577,8.1832,8.1021,8.0547,8.031,8.0209,8.0209,8.0209,8.0209,8.0209,8.0209,8.0209,8.0234,8.046,8.0931,8.1005,8.1297,8.1645,8.1776,8.1672,8.1569,8.15,8.1316,8.1178,8.1293,8.1397,8.1431,8.1247,8.1281,8.1143,8.0798,8.0488,8.0477,8.0697,8.1078,8.2047,8.2264,8.2651,8.2944,8.3068,8.3197,8.3127,8.2881,8.2566,8.2495,8.2636,8.2671,8.2717,8.2822,8.3068,8.3303,8.3443,8.3478,8.3478,8.3373,8.3314,8.3244,8.3173,8.3138,8.3138,8.3103,8.3024,8.2889,8.277,8.2474,8.2292,8.2164,8.2049,8.1945,8.2095,8.2405,8.2635,8.2842,8.3235,8.3661,8.4009,8.4381,8.4965,8.5514,8.6006,7.9853,7.9596,7.9583,7.9518,7.9414,7.9388,7.9388,7.9362,7.9232,7.912,7.908,7.9022,7.8943,7.8949,7.908,8.0192,8.1808,8.2581,8.3531,8.4356,8.458,8.458,8.454,8.448,8.4359,8.4224,8.4224,8.4211,8.4224,8.4312,8.4366,8.4406,8.45,8.4221,8.3625,8.3118,8.234,8.1507,8.0966,8.0581,8.0276,8.0242,8.0209,8.0209,8.0209,8.0209,8.0234,8.0372,8.0597,8.0943,8.1139,8.1405,8.1657,8.1776,8.1776,8.1776,8.1776,8.1776,8.1776,8.1776,8.1741,8.1776,8.1776,8.1776,8.1741,8.1431,8.119,8.1237,8.1401,8.1818,8.2406,8.2762,8.2952,8.3142,8.3197,8.3197,8.3208,8.3208,8.3233,8.3268,8.3162,8.3092,8.3057,8.3208,8.3408,8.3584,8.3794,8.3829,8.3829,8.3689,8.363,8.3279,8.3197,8.3197,8.3197,8.3197,8.3197,8.3109,8.2987,8.2739,8.2684,8.2604,8.2431,8.2303,8.251,8.304,8.3117,8.3381,8.3891,8.4368,8.4742,8.521,8.5842,8.6439,8.6859,7.9557,7.931,7.9297,7.9271,7.9232,7.9219,7.9206,7.9166,7.8922,7.883,7.879,7.8617,7.8524,7.863,7.9129,8.0181,8.1923,8.2342,8.3385,8.4356,8.458,8.4566,8.4466,8.4332,8.4143,8.3911,8.3816,8.3733,8.3911,8.4116,8.4211,8.4319,8.4493,8.4356,8.3862,8.3524,8.2678,8.215,8.1541,8.1156,8.0784,8.0648,8.0547,8.0412,8.0412,8.0378,8.0234,8.0448,8.0697,8.098,8.1236,8.1502,8.1717,8.1776,8.1776,8.1776,8.1776,8.1776,8.1776,8.1776,8.1776,8.1776,8.1776,8.1776,8.1776,8.1741,8.1707,8.1823,8.2048,8.2199,8.2499,8.2772,8.2997,8.3142,8.3197,8.3208,8.3279,8.3373,8.3584,8.3619,8.3548,8.363,8.3711,8.37,8.3935,8.4402,8.4602,8.4602,8.4566,8.4251,8.4005,8.3419,8.3197,8.3197,8.3197,8.3197,8.3197,8.3175,8.3067,8.2912,8.3017,8.3077,8.302,8.3148,8.3517,8.3978,8.3938,8.4086,8.4707,8.521,8.5536,8.6073,8.6822,8.7173,8.7442,7.9271,7.8962,7.8975,7.8817,7.8631,7.8617,7.8617,7.8617,7.8577,7.8537,7.8577,7.8511,7.8517,7.8749,7.9475,8.0509,8.1631,8.2596,8.3536,8.4485,8.4587,8.4466,8.4292,8.4251,8.3837,8.3596,8.3429,8.354,8.3747,8.4034,8.4197,8.4265,8.4466,8.4525,8.4323,8.3896,8.3422,8.3118,8.2543,8.2158,8.2022,8.1989,8.1663,8.1338,8.1067,8.0877,8.0466,8.059,8.0771,8.1017,8.1273,8.1548,8.1751,8.1776,8.1776,8.1776,8.1776,8.1776,8.1776,8.1776,8.1776,8.1776,8.1776,8.1776,8.1776,8.1776,8.1776,8.1822,8.2187,8.2419,8.2556,8.2931,8.3109,8.3316,8.3478,8.3454,8.3454,8.4051,8.4215,8.4401,8.4482,8.4506,8.4588,8.4519,8.4543,8.4999,8.535,8.5397,8.5175,8.4777,8.4356,8.3794,8.3233,8.3197,8.3338,8.3338,8.3478,8.3408,8.3461,8.341,8.3609,8.3901,8.4203,8.4389,8.4747,8.4872,8.4869,8.5137,8.5654,8.6109,8.6468,8.7135,8.785,8.8049,8.8013,7.879,7.8671,7.8671,7.8604,7.8497,7.8484,7.8484,7.8484,7.8484,7.8484,7.8484,7.8484,7.8729,7.918,7.9774,8.0849,8.2067,8.2825,8.3638,8.4358,8.4453,8.4319,8.4109,8.3837,8.3452,8.336,8.3192,8.3234,8.354,8.3843,8.4021,8.4238,8.4466,8.458,8.458,8.4289,8.3896,8.3422,8.2813,8.2428,8.2395,8.2395,8.2259,8.1934,8.1541,8.1224,8.1071,8.0833,8.099,8.1212,8.1466,8.168,8.1775,8.1776,8.1776,8.1776,8.1776,8.1776,8.1776,8.1776,8.1776,8.1776,8.1776,8.1776,8.1776,8.1776,8.1776,8.1776,8.2199,8.2453,8.2684,8.335,8.374,8.3935,8.404,8.4297,8.4367,8.4683,8.5081,8.5231,8.5417,8.558,8.5672,8.5634,8.5683,8.5969,8.6249,8.6248,8.5769,8.5023,8.4602,8.411,8.3584,8.3197,8.3443,8.3584,8.4005,8.411,8.4613,8.4548,8.4609,8.4831,8.5122,8.5402,8.5623,8.576,8.5802,8.6117,8.6574,8.7017,8.7483,8.7951,8.8384,8.8406,8.8405,7.8484,7.8484,7.8484,7.8484,7.8484,7.8484,7.8484,7.8484,7.8484,7.8484,7.855,7.8682,7.9113,7.9684,8.0225,8.13,8.2514,8.2979,8.3605,8.4083,8.4211,8.4048,8.3843,8.3499,8.3304,8.3206,8.3136,8.3234,8.3499,8.3761,8.4061,8.4211,8.448,8.4566,8.458,8.4525,8.4289,8.3849,8.3375,8.3092,8.3058,8.3071,8.2902,8.2556,8.2113,8.1699,8.1608,8.1319,8.1258,8.1357,8.1644,8.1775,8.1776,8.1776,8.1776,8.1776,8.1776,8.1776,8.1776,8.1776,8.1776,8.1776,8.1776,8.1776,8.1776,8.1776,8.1776,8.1776,8.2129,8.2361,8.2742,8.3584,8.4045,8.4462,8.4894,8.5245,8.5572,8.5701,8.5853,8.6039,8.633,8.6841,8.6874,8.6843,8.6906,8.7055,8.7138,8.7113,8.6424,8.5561,8.5163,8.4777,8.4426,8.4051,8.4145,8.4321,8.4602,8.4812,8.5304,8.5597,8.5623,8.5716,8.5938,8.6206,8.6498,8.6777,8.6984,8.7205,8.7437,8.7762,8.8098,8.8398,8.8678,8.8701,8.8701,7.8484,7.8484,7.8484,7.8484,7.8484,7.8484,7.8484,7.8484,7.8484,7.8517,7.8716,7.9212,7.9577,7.9968,8.0951,8.1747,8.2327,8.296,8.3484,8.3796,8.3816,8.3678,8.3499,8.3332,8.3179,8.3066,8.3122,8.3416,8.3747,8.3966,8.4143,8.4251,8.4493,8.4553,8.458,8.458,8.458,8.4356,8.414,8.4174,8.4208,8.4187,8.3998,8.3433,8.2945,8.2399,8.1782,8.1501,8.1369,8.1476,8.168,8.1799,8.1776,8.1776,8.1776,8.1776,8.1776,8.1776,8.1776,8.1776,8.1776,8.1776,8.1776,8.1776,8.1776,8.1776,8.1776,8.1811,8.2117,8.2361,8.2777,8.3402,8.4338,8.5001,8.5596,8.5958,8.6274,8.6509,8.6672,8.6812,8.7172,8.7636,8.7911,8.781,8.7606,8.7674,8.7572,8.7536,8.7104,8.6333,8.5982,8.5631,8.5374,8.521,8.5245,8.5374,8.5444,8.5585,8.5912,8.6263,8.6509,8.6661,8.6731,8.7082,8.7375,8.7771,8.8027,8.801,8.8087,8.8411,8.8712,8.8857,8.8945,8.8978,8.8956,7.8255,7.8269,7.8417,7.8484,7.8484,7.8484,7.8484,7.8484,7.8484,7.8795,7.9212,7.9921,8.0518,8.1028,8.142,8.2222,8.2824,8.3104,8.3479,8.3609,8.3609,8.3443,8.3276,8.3192,8.3066,8.315,8.3304,8.3609,8.4034,8.4184,8.4298,8.4419,8.456,8.4566,8.458,8.458,8.458,8.458,8.458,8.458,8.458,8.4606,8.4571,8.4477,8.3214,8.2976,8.2707,8.1843,8.1625,8.1609,8.1751,8.1787,8.1776,8.1776,8.1776,8.1776,8.1776,8.1776,8.1776,8.1776,8.1776,8.1776,8.1776,8.1776,8.1776,8.1776,8.1776,8.1882,8.2129,8.2454,8.3265,8.4238,8.5212,8.5784,8.6263,8.6661,8.6918,8.7129,8.7315,8.7419,8.7871,8.8344,8.8525,8.867,8.846,8.8258,8.8098,8.7877,8.7409,8.707,8.6684,8.6368,8.6123,8.5877,8.5842,8.6017,8.6216,8.6403,8.6544,8.6871,8.7187,8.7398,8.755,8.7901,8.8041,8.8144,8.8327,8.8508,8.869,8.8801,8.8956,8.9121,8.9222,8.9255,8.9165,7.8279,7.8572,7.8748,7.8682,7.855,7.8749,7.8815,7.8881,7.9126,7.9391,7.9988,8.0711,8.1274,8.1738,8.2102,8.2437,8.3032,8.3262,8.3443,8.354,8.354,8.3457,8.3388,8.3332,8.336,8.3457,8.3596,8.387,8.417,8.4278,8.4392,8.4513,8.458,8.458,8.458,8.458,8.458,8.458,8.458,8.458,8.458,8.4593,8.4773,8.4833,8.387,8.3389,8.3202,8.2519,8.1907,8.1808,8.1776,8.1776,8.1776,8.1776,8.1776,8.1776,8.1776,8.1776,8.1776,8.1776,8.1776,8.1776,8.1776,8.1776,8.1776,8.1776,8.1776,8.1846,8.2187,8.2743,8.3648,8.4611,8.5587,8.617,8.7047,8.7492,8.7561,8.7725,8.7876,8.8015,8.8442,8.8701,8.8577,8.862,8.844,8.8225,8.8064,8.7948,8.7761,8.7468,8.7258,8.7012,8.6766,8.652,8.631,8.6661,8.7012,8.7082,8.7269,8.748,8.7761,8.7913,8.7948,8.8029,8.8167,8.8351,8.8543,8.871,8.8854,8.9023,8.9143,8.9266,8.9277,8.9288,8.9288,7.8671,7.953,7.9563,7.9179,7.8762,7.9279,7.9577,7.9676,8.0266,8.0625,8.0818,8.1481,8.186,8.2106,8.264,8.2962,8.3103,8.3276,8.3402,8.3471,8.3637,8.3733,8.3733,8.3692,8.3651,8.3829,8.3952,8.4089,8.4251,8.444,8.454,8.4566,8.458,8.458,8.458,8.458,8.458,8.458,8.458,8.458,8.4593,8.462,8.4866,8.4912,8.4498,8.4026,8.3546,8.3021,8.2371,8.1856,8.181,8.1776,8.1776,8.1776,8.1776,8.1776,8.1776,8.1776,8.1776,8.1776,8.1776,8.1776,8.1776,8.1776,8.1776,8.1788,8.1823,8.1929,8.2233,8.2813,8.3671,8.4716,8.5787,8.6697,8.7574,8.7925,8.7971,8.8041,8.8144,8.8339,8.8598,8.8788,8.8577,8.8408,8.8294,8.8133,8.8018,8.7936,8.7878,8.7796,8.7585,8.748,8.7304,8.7234,8.7129,8.748,8.7773,8.7843,8.7843,8.7878,8.7936,8.796,8.8017,8.8144,8.8351,8.8555,8.871,8.8899,8.9009,8.9143,8.9198,8.9299,8.9309,8.9309,8.9309,7.9122,8.0071,8.025,8.02,8.0001,8.02,8.0332,8.0465,8.1075,8.1536,8.1821,8.248,8.2952,8.3163,8.3271,8.3457,8.3499,8.3526,8.3637,8.3651,8.3788,8.3775,8.3816,8.3884,8.3925,8.4048,8.4211,8.4346,8.446,8.4553,8.4566,8.458,8.458,8.458,8.458,8.458,8.458,8.458,8.458,8.4593,8.464,8.4813,8.505,8.5278,8.4865,8.4377,8.3822,8.3245,8.2557,8.1914,8.1776,8.1776,8.1776,8.1776,8.1776,8.1776,8.1776,8.1776,8.1776,8.1776,8.1776,8.1776,8.1776,8.1776,8.1776,8.193,8.1988,8.2244,8.2813,8.3578,8.467,8.5635,8.6603,8.7305,8.7901,8.7994,8.8064,8.8144,8.8259,8.8543,8.8788,8.8598,8.8408,8.8316,8.8213,8.8144,8.8064,8.796,8.7925,8.7878,8.7761,8.7796,8.7737,8.7808,8.7913,8.7913,8.7913,8.7878,8.7878,8.7878,8.7948,8.7995,8.8098,8.8225,8.8498,8.8721,8.8877,8.902,8.9154,8.9277,8.9299,8.9309,8.9309,8.9309,8.9309,7.986,8.0812,8.1025,8.1241,8.1406,8.1208,8.1194,8.152,8.2067,8.2419,8.2705,8.3215,8.3535,8.3714,8.3802,8.3802,8.3816,8.3911,8.3939,8.3966,8.4061,8.4116,8.4116,8.4075,8.4224,8.4319,8.4359,8.4453,8.4553,8.458,8.458,8.458,8.458,8.458,8.458,8.458,8.458,8.458,8.458,8.458,8.4707,8.4892,8.5194,8.5296,8.5018,8.4539,8.3955,8.3281,8.2557,8.2052,8.1776,8.1776,8.1776,8.1776,8.1776,8.1776,8.1776,8.1776,8.1776,8.1776,8.1776,8.1776,8.1776,8.1823,8.1882,8.2001,8.2384,8.2848,8.3589,8.4495,8.5461,8.6393,8.6989,8.7691,8.7983,8.8075,8.819,8.8271,8.851,8.8743,8.8777,8.8519,8.8294,8.8225,8.8167,8.8121,8.811,8.8041,8.7971,8.7971,8.7913,8.7913,8.7913,8.7913,8.7913,8.7913,8.7913,8.7913,8.7913,8.7913,8.7936,8.7994,8.8156,8.8375,8.8658,8.895,8.9034,8.9165,8.9373,8.9395,8.9299,8.9309,8.9309,8.9309,8.9309,8.0911,8.1776,8.1837,8.2202,8.268,8.2172,8.2272,8.2873,8.314,8.3279,8.3354,8.3639,8.3857,8.3857,8.3857,8.3898,8.3939,8.4129,8.4197,8.4278,8.4352,8.4446,8.4486,8.4486,8.4507,8.4526,8.4553,8.4513,8.458,8.458,8.458,8.458,8.458,8.458,8.458,8.458,8.458,8.458,8.458,8.458,8.468,8.4958,8.5281,8.5314,8.5068,8.4576,8.3979,8.3316,8.2557,8.2086,8.1776,8.1776,8.1776,8.1776,8.1776,8.1776,8.1776,8.1776,8.1776,8.1776,8.1776,8.181,8.1961,8.1999,8.2082,8.2268,8.2813,8.3439,8.4204,8.5147,8.6079,8.6616,8.7187,8.7643,8.804,8.819,8.8316,8.851,8.8755,8.891,8.8899,8.8699,8.8408,8.8271,8.8305,8.8328,8.8305,8.8213,8.8144,8.8122,8.8029,8.7913,8.7913,8.7913,8.7913,8.7913,8.7913,8.7913,8.7901,8.7913,8.7983,8.8322,8.8776,8.904,8.9063,8.9274,8.982,8.9861,8.968,8.9666,8.9916,8.9488,8.9524,8.9345,8.9309,8.167,8.2585,8.2585,8.2844,8.314,8.321,8.3215,8.3248,8.3513,8.3747,8.3966,8.4014,8.4136,8.4339,8.4352,8.4325,8.4366,8.4419,8.448,8.4547,8.454,8.4566,8.458,8.458,8.458,8.458,8.458,8.458,8.458,8.458,8.458,8.458,8.458,8.458,8.458,8.458,8.458,8.458,8.458,8.458,8.4773,8.5077,8.5325,8.5271,8.5104,8.4584,8.3912,8.3212,8.2488,8.1948,8.181,8.1776,8.1776,8.1776,8.1776,8.1776,8.1776,8.1776,8.1776,8.1776,8.1788,8.1985,8.2391,8.2428,8.2476,8.2824,8.3439,8.4228,8.5053,8.5985,8.6604,8.7106,8.7491,8.7818,8.8167,8.8373,8.851,8.8723,8.8943,8.8987,8.8976,8.8788,8.8498,8.8476,8.8521,8.8555,8.8532,8.8453,8.8339,8.8282,8.8098,8.7936,8.7913,8.7913,8.7913,8.7913,8.7913,8.7913,8.8007,8.8276,8.8686,8.9061,8.9527,8.9872,9.0072,9.0453,9.0942,9.0808,9.0451,9.0797,9.0975,9.0262,8.9727,8.9609,8.937,8.2331,8.2897,8.301,8.3234,8.3526,8.3829,8.3829,8.372,8.3884,8.4061,8.4177,8.4332,8.4419,8.454,8.4553,8.4553,8.4553,8.454,8.4587,8.4587,8.458,8.458,8.458,8.458,8.458,8.458,8.458,8.458,8.458,8.458,8.458,8.458,8.458,8.458,8.458,8.458,8.458,8.458,8.458,8.458,8.4806,8.5121,8.5253,8.5057,8.4883,8.4289,8.3626,8.2902,8.2247,8.1845,8.181,8.1776,8.1776,8.1776,8.1776,8.1776,8.1776,8.1776,8.1776,8.1776,8.1823,8.2149,8.2786,8.3032,8.3381,8.3775,8.4483,8.5285,8.6078,8.6813,8.7211,8.762,8.783,8.8029,8.8294,8.8519,8.8745,8.8934,8.9023,8.9077,8.8989,8.8823,8.8712,8.8723,8.8734,8.879,8.879,8.8734,8.8588,8.843,8.819,8.7971,8.7925,8.7913,8.7913,8.7983,8.8112,8.8253,8.8451,8.8803,8.9319,8.9906,9.0395,9.0858,9.1236,9.1515,9.1642,9.1546,9.1332,9.1644,9.1615,9.0978,9.0359,9.0103,8.9815,8.2897,8.2968,8.3248,8.3568,8.3843,8.4116,8.419,8.4238,8.4238,8.4251,8.4305,8.4473,8.4566,8.458,8.458,8.458,8.458,8.458,8.458,8.458,8.458,8.458,8.458,8.458,8.458,8.458,8.458,8.458,8.458,8.458,8.458,8.458,8.458,8.458,8.458,8.458,8.458,8.458,8.458,8.4593,8.4692,8.4954,8.5057,8.4451,8.4015,8.3555,8.2937,8.2328,8.1776,8.1776,8.1776,8.1776,8.1776,8.1776,8.1776,8.1776,8.1776,8.1776,8.18,8.1858,8.2091,8.2417,8.2973,8.3752,8.4391,8.4775,8.545,8.6008,8.6731,8.7245,8.769,8.7876,8.8051,8.8282,8.8532,8.8676,8.881,8.9023,8.9132,8.9154,8.9099,8.8945,8.8912,8.8901,8.8956,8.9011,8.9023,8.8978,8.8757,8.8543,8.833,8.8018,8.7936,8.7901,8.7972,8.8112,8.8428,8.8627,8.8943,8.947,9.0103,9.0705,9.1276,9.1823,9.2382,9.211,9.2072,9.211,9.2091,9.1943,9.1851,9.1452,9.1083,9.0781,9.0399,8.301,8.3262,8.3775,8.4048,8.4143,8.4399,8.4486,8.452,8.4486,8.4473,8.45,8.4553,8.458,8.458,8.458,8.458,8.458,8.458,8.458,8.458,8.458,8.458,8.458,8.458,8.458,8.458,8.458,8.458,8.458,8.458,8.458,8.458,8.458,8.458,8.458,8.458,8.458,8.458,8.458,8.4546,8.4524,8.4321,8.4177,8.3862,8.355,8.3043,8.2542,8.2178,8.1879,8.1776,8.1776,8.1776,8.1776,8.1776,8.1776,8.1776,8.1776,8.1788,8.1881,8.208,8.2394,8.3194,8.3972,8.4903,8.5578,8.5858,8.6231,8.6732,8.7187,8.7666,8.8016,8.8144,8.8316,8.8543,8.8757,8.8821,8.8921,8.9088,8.9255,8.9244,8.9187,8.9143,8.9099,8.911,8.9176,8.9198,8.9209,8.9146,8.8779,8.8556,8.84,8.8135,8.7936,8.7936,8.8042,8.8393,8.8803,8.9259,8.9645,9.023,9.0909,9.1587,9.2246,9.3042,9.3484,9.3012,9.2791,9.3091,9.3023,9.2565,9.2353,9.2082,9.187,9.1574,9.1195,8.3165,8.3388,8.3933,8.4278,8.4399,8.456,8.458,8.458,8.458,8.458,8.458,8.458,8.458,8.458,8.458,8.458,8.458,8.458,8.458,8.458,8.458,8.458,8.458,8.458,8.458,8.458,8.458,8.458,8.458,8.458,8.458,8.458,8.458,8.458,8.458,8.458,8.458,8.458,8.458,8.4377,8.42,8.3976,8.3547,8.3268,8.2893,8.2464,8.2255,8.1971,8.1879,8.1776,8.1776,8.1776,8.1776,8.1776,8.1776,8.1776,8.1788,8.1858,8.2033,8.2394,8.2928,8.3833,8.4937,8.5846,8.6277,8.6592,8.7036,8.7515,8.7666,8.8075,8.8224,8.8327,8.8531,8.8755,8.8967,8.9088,8.9132,8.9222,8.9288,8.9288,8.923,8.9255,8.9222,8.9222,8.923,8.9198,8.923,8.9044,8.8734,8.8652,8.8507,8.8404,8.8264,8.8311,8.8522,8.8873,8.9259,8.9739,9.0336,9.1064,9.1829,9.2541,9.3286,9.3543,9.3705,9.3623,9.3554,9.3486,9.3333,9.2825,9.2789,9.2777,9.2541,9.2258,9.1905,8.3327,8.3499,8.4034,8.4399,8.4566,8.458,8.458,8.458,8.458,8.458,8.458,8.458,8.458,8.458,8.458,8.458,8.458,8.458,8.458,8.458,8.458,8.458,8.458,8.458,8.458,8.458,8.458,8.458,8.458,8.458,8.458,8.458,8.458,8.458,8.458,8.458,8.458,8.4512,8.4377,8.3984,8.3751,8.3543,8.3007,8.2535,8.2171,8.2084,8.184,8.1787,8.1764,8.1776,8.1776,8.1776,8.1776,8.1776,8.1776,8.1788,8.1859,8.2057,8.2371,8.2986,8.3636,8.4495,8.5706,8.6487,8.6872,8.7281,8.7714,8.7936,8.8075,8.8248,8.8396,8.8553,8.8766,8.8943,8.9143,8.9277,8.9323,8.937,8.937,8.9381,8.9416,8.9416,8.9488,8.9488,8.9288,8.9244,8.9066,8.8846,8.8693,8.8796,8.8813,8.8815,8.8826,8.8908,8.9119,8.954,8.9996,9.0523,9.1144,9.1922,9.256,9.2882,9.3156,9.3392,9.3509,9.3521,9.3427,9.3286,9.3084,9.2891,9.2819,9.2747,9.2616,9.2392,9.2447,8.3596,8.4061,8.4413,8.4574,8.458,8.458,8.458,8.458,8.458,8.458,8.458,8.458,8.458,8.458,8.458,8.458,8.458,8.458,8.458,8.458,8.458,8.458,8.458,8.458,8.458,8.458,8.458,8.458,8.458,8.458,8.458,8.458,8.458,8.458,8.458,8.458,8.4546,8.4411,8.3917,8.3456,8.2834,8.2579,8.2369,8.1909,8.1455,8.144,8.1464,8.1691,8.174,8.1776,8.1776,8.1776,8.1776,8.1776,8.1788,8.194,8.201,8.2486,8.2963,8.3694,8.446,8.5485,8.6522,8.6966,8.7316,8.7609,8.7878,8.7901,8.8099,8.8305,8.8487,8.8721,8.8943,8.911,8.9288,8.937,8.9406,8.9548,8.9631,8.9738,8.9845,9.0023,9.0237,8.9987,8.943,8.9318,8.9058,8.8837,8.8791,8.8939,8.9096,8.9331,8.947,8.9704,8.9985,9.0418,9.0874,9.1366,9.1777,9.2261,9.2616,9.2808,9.3048,9.325,9.3239,9.3203,9.3131,9.3048,9.2867,9.2698,9.26,9.2526,9.2512,9.2512,9.2512]},{"header":{"parameterUnit":"m.s-1","parameterCategory":1,"la1":31.0,"la2":29.5877,"lo1":-88.7671,"lo2":-86.6584,"dy":0.0162,"dx":0.0185,"nx":115,"ny":88,"refTime":"2026-04-05T12:00:00:Z","depth":0,"parameterNumber":3,"parameterNumberName":"V-component_of_WINDS"},"data":[0.0,0.0,0.0,0.0,0.0,0.0,0.0,0.0,0.0,0.0,0.0,0.0,0.0,0.0,0.0,0.0,0.0,0.0,0.0,0.0,0.0,0.0,0.0,0.0,0.0,0.0,0.0,0.0,0.0,0.0,0.0,0.0,0.0,0.0,0.0,0.0,0.0,0.0,0.0,0.0,0.0,0.0,0.0,0.0,0.0,0.0,0.0,0.0,0.0,0.0,0.0,0.0,0.0,0.0,0.0,0.0,0.0,0.0,0.0,0.0,0.0,0.0,0.0,0.0,0.0,0.0,0.0,0.0,0.0,0.0,0.0,0.0,0.0,0.0,0.0,0.0,0.0,0.0,0.0,0.0,0.0,0.0,0.0,0.0,0.0,0.0,0.0,0.0,0.0,0.0,0.0,0.0,0.0,0.0,0.0,0.0,0.0,0.0,0.0,0.0,0.0,0.0,0.0,0.0,0.0,0.0,0.0,0.0,0.0,0.0,0.0,0.0,0.0,0.0,0.0,0.0,0.0,0.0,0.0,0.0,0.0,0.0,0.0,0.0,0.0,0.0,0.0,0.0,0.0,0.0,0.0,0.0,0.0,0.0,0.0,0.0,0.0,0.0,0.0,0.0,0.0,0.0,0.0,0.0,0.0,0.0,0.0,0.0,0.0,0.0,0.0,0.0,0.0,0.0,0.0,0.0,0.0,0.0,0.0,0.0,0.0,0.0,0.0,0.0,0.0,0.0,0.0,0.0,0.0,0.0,0.0,0.0,0.0,0.0,0.0,0.0,0.0,0.0,0.0,0.0,0.0,0.0,0.0,0.0,0.0,0.0,0.0,0.0,0.0,0.0,0.0,0.0,0.0,0.0,0.0,0.0,0.0,0.0,0.0,0.0,0.0,0.0,0.0,0.0,0.0,0.0,0.0,0.0,0.0,0.0,0.0,0.0,0.0,0.0,0.0,0.0,0.0,0.0,0.0,0.0,0.0,0.0,0.0,0.0,0.0,0.0,0.0,0.0,0.0,0.0,0.0,0.0,0.0,0.0,0.0,0.0,0.0,0.0,0.0,0.0,0.0,0.0,0.0,0.0,0.0,0.0,0.0,0.0,0.0,0.0,0.0,0.0,0.0,0.0,0.0,0.0,0.0,0.0,0.0,0.0,0.0,0.0,0.0,0.0,0.0,0.0,0.0,0.0,0.0,0.0,0.0,0.0,0.0,0.0,0.0,0.0,0.0,0.0,0.0,0.0,0.0,0.0,0.0,0.0,0.0,0.0,0.0,0.0,0.0,0.0,0.0,0.0,0.0,0.0,0.0,0.0,0.0,0.0,0.0,0.0,0.0,0.0,0.0,0.0,0.0,0.0,0.0,0.0,0.0,0.0,0.0,0.0,0.0,0.0,0.0,0.0,0.0,0.0,0.0,0.0,0.0,0.0,0.0,0.0,0.0,0.0,0.0,0.0,0.0,0.0,0.0,0.0,0.0,0.0,0.0,0.0,0.0,0.0,0.0,0.0,0.0,0.0,0.0,0.0,0.0,0.0,0.0,0.0,0.0,0.0,0.0,0.0,0.0,0.0,0.0,0.0,0.0,0.0,0.0,0.0,0.0,0.0,0.0,0.0,0.0,0.0,0.0,0.0,0.0,0.0,0.0,0.0,0.0,0.0,0.0,0.0,0.0,0.0,0.0,0.0,0.0,0.0,0.0,0.0,0.0,0.0,0.0,0.0,0.0,0.0,0.0,0.0,0.0,0.0,0.0,0.0,0.0,0.0,0.0,0.0,0.0,0.0,0.0,0.0,0.0,0.0,0.0,0.0,0.0,0.0,0.0,0.0,0.0,0.0,0.0,0.0,0.0,0.0,0.0,0.0,0.0,0.0,0.0,0.0,0.0,0.0,0.0,0.0,0.0,0.0,0.0,0.0,0.0,0.0,0.0,0.0,0.0,0.0,0.0,0.0,0.0,0.0,0.0,0.0,0.0,0.0,0.0,0.0,0.0,0.0,0.0,0.0,0.0,0.0,0.0,0.0,0.0,0.0,0.0,0.0,0.0,0.0,0.0,0.0,0.0,0.0,0.0,0.0,0.0,0.0,0.0,0.0,0.0,0.0,0.0,0.0,0.0,0.0,0.0,0.0,0.0,0.0,0.0,0.0,0.0,0.0,0.0,0.0,0.0,0.0,0.0,0.0,0.0,0.0,0.0,0.0,0.0,0.0,0.0,0.0,0.0,0.0,0.0,0.0,0.0,0.0,0.0,0.0,0.0,0.0,0.0,0.0,0.0,0.0,0.0,0.0,0.0,0.0,0.0,0.0,0.0,0.0,0.0,0.0,0.0,0.0,0.0,0.0,0.0,0.0,0.0,0.0,0.0,0.0,0.0,0.0,0.0,0.0,0.0,0.0,0.0,0.0,0.0,0.0,0.0,0.0,0.0,0.0,0.0,0.0,0.0,0.0,0.0,0.0,0.0,0.0,0.0,0.0,0.0,0.0,0.0,0.0,0.0,0.0,0.0,0.0,0.0,0.0,0.0,0.0,0.0,0.0,0.0,0.0,0.0,0.0,0.0,0.0,0.0,0.0,0.0,0.0,0.0,0.0,0.0,0.0,0.0,0.0,0.0,0.0,0.0,0.0,0.0,0.0,0.0,0.0,0.0,0.0,0.0,0.0,0.0,0.0,0.0,0.0,0.0,0.0,0.0,0.0,0.0,0.0,0.0,0.0,0.0,0.0,0.0,0.0,0.0,0.0,0.0,0.0,0.0,0.0,0.0,0.0,0.0,0.0,0.0,0.0,0.0,0.0,0.0,0.0,0.0,0.0,0.0,0.0,0.0,0.0,0.0,0.0,0.0,0.0,0.0,0.0,0.0,0.0,0.0,0.0,0.0,0.0,0.0,0.0,0.0,0.0,0.0,0.0,0.0,0.0,0.0,0.0,0.0,0.0,0.0,0.0,0.0,0.0,0.0,0.0,0.0,0.0,0.0,0.0,0.0,0.0,0.0,0.0,0.0,0.0,0.0,0.0,0.0,0.0,0.0,0.0,0.0,0.0,0.0,0.0,0.0,0.0,0.0,0.0,0.0,0.0,0.0,0.0,0.0,0.0,0.0,0.0,0.0,0.0,0.0,0.0,0.0,0.0,0.0,0.0,0.0,0.0,0.0,0.0,0.0,0.0,0.0,0.0,0.0,0.0,0.0,0.0,0.0,0.0,0.0,0.0,0.0,0.0,0.0,0.0,0.0,0.0,0.0,0.0,0.0,0.0,0.0,0.0,0.0,0.0,0.0,0.0,0.0,0.0,0.0,0.0,0.0,0.0,0.0,0.0,0.0,0.0,0.0,0.0,0.0,0.0,0.0,0.0,0.0,0.0,0.0,0.0,0.0,0.0,0.0,0.0,0.0,0.0,0.0,0.0,0.0,0.0,0.0,0.0,0.0,0.0,0.0,0.0,0.0,0.0,0.0,0.0,0.0,0.0,0.0,0.0,0.0,0.0,0.0,0.0,0.0,0.0,0.0,0.0,0.0,0.0,0.0,0.0,0.0,0.0,0.0,0.0,0.0,0.0,0.0,0.0,0.0,0.0,0.0,0.0,0.0,0.0,0.0,0.0,0.0,0.0,0.0,0.0,0.0,0.0,0.0,0.0,0.0,0.0,0.0,0.0,0.0,0.0,0.0,0.0,0.0,0.0,0.0,0.0,0.0,0.0,0.0,0.0,0.0,0.0,0.0,0.0,0.0,0.0,0.0,0.0,0.0,0.0,0.0,0.0,0.0,0.0,0.0,0.0,0.0,0.0,0.0,0.0,0.0,0.0,0.0,0.0,0.0,0.0,0.0,0.0,0.0,0.0,0.0,0.0,0.0,0.0,0.0,0.0,0.0,0.0,0.0,0.0,0.0,0.0,0.0,0.0,0.0,0.0,0.0,0.0,0.0,0.0,0.0,0.0,0.0,0.0,0.0,0.0,0.0,0.0,0.0,0.0,0.0,0.0,0.0,0.0,0.0,0.0,0.0,0.0,0.0,0.0,0.0,0.0,0.0,0.0,0.0,0.0,0.0,0.0,0.0,0.0,0.0,0.0,0.0,0.0,0.0,0.0,0.0,0.0,0.0,0.0,0.0,0.0,0.0,0.0,0.0,0.0,0.0,0.0,0.0,0.0,0.0,0.0,0.0,0.0,0.0,0.0,0.0,0.0,0.0,0.0,0.0,0.0,0.0,0.0,0.0,0.0,0.0,0.0,0.0,0.0,0.0,0.0,0.0,0.0,0.0,0.0,0.0,0.0,0.0,0.0,1.09,0.0,0.0,0.0,0.0,0.0,0.0,0.0,0.0,0.0,0.0,0.0,0.0,0.0,0.0,0.0,0.0,0.0,0.0,0.0,0.0,0.0,0.0,0.0,0.0,0.0,0.0,0.0,0.0,0.0,0.0,0.0,0.0,0.0,0.0,0.0,0.0,0.0,0.0,0.0,0.0,0.0,0.0,0.0,0.0,0.0,0.0,0.0,0.0,0.0,0.0,0.0,0.0,0.0,0.0,0.0,0.0,0.0,0.0,0.0,0.0,0.0,0.0,0.0,0.0,0.0,0.0,0.0,0.0,0.0,0.0,0.0,0.0,0.0,0.0,0.0,0.0,0.0,0.0,0.0,0.0,0.0,0.0,0.0,0.0,0.0,0.0,0.0,0.0,0.0,0.0,0.0,0.0,0.0,0.0,0.0,0.0,0.0,0.0,0.0,0.0,0.0,0.0,0.0,0.0,0.0,0.0,0.0,0.0,0.0,0.0,1.2304,1.231,1.1849,1.1736,1.196,0.0,0.0,0.0,0.0,0.0,0.0,0.0,0.0,0.0,0.0,0.0,0.0,0.0,0.0,0.0,0.0,0.0,0.0,0.0,0.0,0.0,0.0,0.0,0.0,0.0,0.0,0.0,0.0,0.0,0.0,0.0,0.0,0.0,0.0,0.0,0.0,0.0,0.0,0.0,0.0,0.0,0.0,0.0,0.0,0.0,0.0,0.0,0.0,0.0,0.0,0.0,0.0,0.0,0.0,0.0,0.0,0.0,0.0,0.0,0.0,0.0,0.0,0.0,0.0,0.0,0.0,0.0,0.0,0.0,0.0,0.0,0.0,0.0,0.0,0.0,0.0,0.0,0.0,0.0,0.0,0.0,0.0,0.0,0.0,0.0,0.0,0.0,0.0,0.0,0.0,0.0,0.0,0.0,0.0,0.0,0.0,0.0,0.0,0.0,0.0,0.0,0.0,0.0,0.0,0.0,0.0,0.0,0.0,0.0,0.0,0.0,0.0,1.3051,1.288,1.2912,0.0,0.0,0.0,0.0,0.0,0.0,0.0,0.0,0.0,0.0,0.0,0.0,0.0,0.0,0.0,0.0,0.0,0.0,0.0,0.0,0.0,0.0,0.0,0.0,0.0,0.0,0.0,0.0,0.0,0.0,0.0,0.0,0.0,0.0,0.0,0.0,0.0,0.0,0.0,0.0,0.0,0.0,0.0,0.0,0.0,0.0,0.0,0.0,0.0,0.0,0.0,0.0,0.0,0.0,0.0,0.0,0.0,0.0,0.0,0.0,0.0,0.0,0.0,0.0,0.0,0.0,0.0,0.0,0.0,0.0,0.0,0.0,0.0,0.0,0.0,0.0,0.0,0.0,0.0,0.0,0.0,0.0,0.0,0.0,0.0,0.0,0.0,0.0,0.0,0.0,0.0,0.0,0.0,0.0,0.0,0.0,0.0,0.0,0.0,0.0,0.0,0.0,0.0,0.0,0.0,0.0,0.0,0.0,0.0,0.0,1.4454,1.4454,1.4527,0.0,1.3412,0.0,0.0,0.0,0.0,0.0,0.0,0.0,0.0,0.0,0.0,0.0,0.0,0.0,0.0,0.0,0.0,0.0,0.0,0.0,0.0,0.0,0.0,0.0,0.0,0.0,0.0,0.0,0.0,0.0,0.0,0.0,0.0,0.0,0.0,0.0,0.0,0.0,0.0,0.0,0.0,0.0,0.0,0.0,0.0,0.0,0.0,0.0,0.0,0.0,0.0,0.0,0.0,0.0,0.0,0.0,0.0,0.0,0.0,0.0,0.0,0.0,0.0,0.0,0.0,0.0,0.0,0.0,0.0,0.0,0.0,0.0,0.0,0.0,0.0,0.0,0.0,0.0,0.0,0.0,0.0,0.0,0.0,0.0,0.0,0.0,0.0,0.0,0.0,0.0,0.0,0.0,0.0,0.0,0.0,0.0,0.0,0.0,0.0,0.0,0.0,0.0,0.0,0.0,0.0,0.0,0.0,0.0,0.0,0.0,0.0,1.507,1.5423,1.5568,1.5259,0.0,0.0,0.0,0.0,0.0,0.0,0.0,0.0,0.0,0.0,0.0,0.0,0.0,0.0,0.0,0.0,0.0,0.0,0.0,0.0,0.0,0.0,0.0,0.0,0.0,0.0,0.0,0.0,0.0,0.0,0.0,0.0,0.0,0.0,0.0,0.0,0.0,0.0,0.0,0.0,0.0,0.0,0.0,0.0,0.0,0.0,0.0,0.0,0.0,0.0,0.0,0.0,0.0,0.0,0.0,0.0,0.0,0.0,0.0,0.0,0.0,0.0,0.0,0.0,0.0,0.0,0.0,0.0,0.0,0.0,0.0,0.0,0.0,0.0,0.0,0.0,0.0,0.0,0.0,0.0,0.0,0.0,0.0,0.0,0.0,0.0,0.0,0.0,0.0,0.0,0.0,0.0,0.0,0.0,0.0,0.0,0.0,0.0,0.0,0.0,0.0,0.0,0.0,0.0,0.0,0.0,0.0,0.0,0.0,0.0,1.4985,1.5871,1.6492,1.6413,1.5999,1.5286,0.0,0.0,0.0,0.0,0.0,0.0,0.0,0.0,0.0,0.0,0.0,0.0,0.0,0.0,0.0,0.0,0.0,0.0,0.0,0.0,0.0,0.0,0.0,0.0,0.0,0.0,0.0,0.0,0.0,0.0,0.0,0.0,0.0,0.0,0.0,0.0,0.0,0.0,0.0,0.0,0.0,0.0,0.0,0.0,0.0,0.0,0.0,0.0,0.0,0.0,0.0,0.0,0.0,0.0,0.0,0.0,0.0,0.0,0.0,0.0,0.0,0.0,0.0,0.0,0.0,0.0,0.0,0.0,0.0,0.0,0.0,0.0,0.0,0.0,0.0,0.0,0.0,0.0,0.0,0.0,0.0,0.0,0.0,0.0,0.0,0.0,0.0,0.0,0.0,0.0,0.0,0.0,0.0,0.0,0.0,0.0,0.0,0.0,0.0,0.0,0.0,0.0,0.0,0.0,0.0,0.0,0.0,0.0,0.0,1.5918,1.7053,1.7812,1.7119,1.6262,0.0,0.0,0.0,0.0,0.0,0.0,0.0,0.0,0.0,0.0,0.0,0.0,0.0,0.0,0.0,0.0,0.0,0.0,0.0,0.0,0.0,0.0,0.0,0.0,0.0,0.0,0.0,0.0,0.0,0.0,0.0,0.0,0.0,0.0,0.0,0.0,0.0,0.0,0.0,0.0,0.0,0.0,0.0,0.0,0.0,0.0,0.0,0.0,0.0,0.0,0.0,0.0,0.0,0.0,0.0,0.0,0.0,0.0,0.0,0.0,0.0,0.0,0.0,0.0,0.0,0.0,0.0,0.0,0.0,0.0,0.0,0.0,0.0,0.0,0.0,0.0,0.0,0.0,0.0,0.0,0.0,0.0,0.0,0.0,0.0,0.0,0.0,0.0,0.0,0.0,0.0,0.0,0.0,0.0,0.0,0.0,0.0,0.0,0.0,0.0,0.0,0.0,0.0,0.0,0.0,0.0,0.0,0.0,0.0,1.502,1.6651,1.755,1.7614,1.7305,1.6609,0.0,0.0,0.0,0.0,0.0,0.0,0.0,0.0,0.0,0.0,0.0,0.0,0.0,0.0,0.0,0.0,0.0,0.0,0.0,0.0,0.0,0.0,0.0,0.0,0.0,0.0,0.0,0.0,0.0,0.0,0.0,0.0,0.0,0.0,0.0,0.0,0.0,0.0,0.0,0.0,0.0,0.0,0.0,0.0,0.0,0.0,0.0,0.0,0.0,0.0,0.0,0.0,0.0,0.0,0.0,0.0,0.0,0.0,0.0,0.0,0.0,0.0,0.0,0.0,0.0,0.0,0.0,0.0,0.0,0.0,0.0,0.0,0.0,0.0,0.0,0.0,0.0,0.0,0.0,0.0,0.0,0.0,0.0,0.0,0.0,0.0,0.0,0.0,0.0,0.0,0.0,0.0,0.0,0.0,0.0,0.0,0.0,0.0,0.0,0.0,0.0,0.0,0.0,0.0,0.0,0.0,0.0,0.0,0.0,1.591,0.0,1.8058,0.0,1.7528,1.6774,0.0,0.0,0.0,0.0,0.0,0.0,0.0,0.0,0.0,0.0,0.0,0.0,0.0,0.0,0.0,0.0,0.0,0.0,0.0,0.0,0.0,0.0,0.0,0.0,0.0,0.0,0.0,0.0,0.0,0.0,0.0,0.0,0.0,0.0,0.0,0.0,0.0,0.0,0.0,0.0,0.0,0.0,0.0,0.0,0.0,0.0,0.0,0.0,0.0,0.0,0.0,0.0,0.0,0.0,0.0,0.0,0.0,0.0,0.0,0.0,0.0,0.0,0.0,0.0,0.0,0.0,0.0,0.0,0.0,0.0,0.0,0.0,0.0,0.0,0.0,0.0,0.0,0.0,0.0,0.0,0.0,0.0,0.0,0.0,0.0,0.0,0.0,0.0,0.0,0.0,0.0,0.0,0.0,0.0,0.0,0.0,0.0,0.0,0.0,0.0,0.0,0.0,0.0,0.0,0.0,0.0,0.0,0.0,1.5557,1.7344,1.8188,1.8599,1.8589,1.7835,1.6777,0.0,0.0,0.0,0.0,0.0,0.0,0.0,0.0,0.0,0.0,0.0,0.0,0.0,0.0,0.0,0.0,0.0,0.0,0.0,0.0,0.0,0.0,0.0,0.0,0.0,0.0,0.0,0.0,0.0,0.0,0.0,0.0,0.0,0.0,0.0,0.0,0.0,0.0,0.0,0.0,0.0,0.0,0.0,0.0,0.0,0.0,0.0,0.0,0.0,0.0,0.0,0.0,0.0,0.0,0.0,0.0,0.0,0.0,0.0,0.0,0.0,0.0,0.0,0.0,0.0,0.0,0.0,0.0,0.0,0.0,0.0,0.0,0.0,0.0,0.0,0.0,0.0,0.0,0.0,0.0,0.0,0.0,0.0,0.0,0.0,0.0,0.0,0.0,0.0,0.0,0.0,0.0,0.0,0.0,0.0,0.0,0.0,0.0,0.0,0.0,0.0,0.0,0.0,0.0,0.0,0.0,0.0,0.0,0.0,1.8415,1.8992,1.9262,1.9187,1.8174,1.6925,0.0,0.0,0.0,0.0,0.0,0.0,0.0,0.0,0.0,0.0,0.0,0.0,0.0,0.0,0.0,0.0,0.0,0.0,0.0,0.0,0.0,0.0,0.0,0.0,0.0,0.0,0.0,0.0,0.0,0.0,0.0,0.0,0.0,0.0,0.0,0.0,0.0,0.0,0.0,0.0,0.0,0.0,0.0,0.0,0.0,0.0,0.0,0.0,0.0,0.0,0.0,0.0,0.0,0.0,0.0,0.0,0.0,0.0,0.0,0.0,0.0,0.0,0.0,0.0,0.0,0.0,0.0,0.0,0.0,0.0,0.0,0.0,0.0,0.0,0.0,0.0,0.0,0.0,0.0,0.0,0.0,0.0,0.0,0.0,0.0,0.0,0.0,0.0,0.0,0.0,0.0,0.0,0.0,0.0,0.0,0.0,0.0,0.0,0.0,0.0,0.0,0.0,0.0,0.0,0.0,0.0,0.0,0.0,0.0,2.0083,2.0248,2.0216,2.0019,1.8899,1.7565,1.6061,0.0,0.0,0.0,0.0,0.0,0.0,0.0,0.0,0.0,0.0,0.0,0.0,0.0,0.0,0.0,0.0,0.0,0.0,0.0,0.0,0.0,0.0,0.0,0.0,0.0,0.0,0.0,0.0,0.0,0.0,0.0,0.0,0.0,0.0,0.0,0.0,0.0,0.0,0.0,0.0,0.0,0.0,0.0,0.0,0.0,0.0,0.0,0.0,0.0,0.0,0.0,0.0,0.0,0.0,0.0,0.0,0.0,0.0,0.0,0.0,0.0,0.0,0.0,0.0,0.0,0.0,0.0,0.0,0.0,0.0,0.0,0.0,0.0,0.0,0.0,0.0,0.0,0.0,0.0,0.0,0.0,0.0,0.0,0.0,0.0,0.0,0.0,0.0,0.0,0.0,0.0,0.0,0.0,0.0,0.0,0.0,0.0,0.0,0.0,0.0,0.0,0.0,0.0,0.0,0.0,0.0,0.0,0.0,2.2275,2.1902,2.1491,2.1017,1.9943,1.8648,0.0,0.0,0.0,0.0,0.0,0.0,0.0,0.0,0.0,0.0,0.0,0.0,0.0,0.0,0.0,0.0,0.0,0.0,0.0,0.0,0.0,0.0,0.0,0.0,0.0,0.0,0.0,0.0,0.0,0.0,0.0,0.0,0.0,0.0,0.0,0.0,0.0,0.0,0.0,0.0,0.0,0.0,0.0,0.0,0.0,0.0,0.0,0.0,0.0,0.0,0.0,0.0,0.0,0.0,0.0,0.0,0.0,0.0,0.0,0.0,0.0,0.0,0.0,0.0,0.0,0.0,0.0,0.0,0.0,0.0,0.0,0.0,0.0,0.0,0.0,0.0,0.0,0.0,0.0,0.0,0.0,0.0,0.0,0.0,0.0,0.0,0.0,0.0,0.0,0.0,0.0,0.0,0.0,0.0,0.0,0.0,0.0,0.0,0.0,0.0,0.0,0.0,0.0,0.0,0.0,0.0,0.0,0.0,0.0,2.3244,2.396,2.3781,2.2621,2.0982,1.9351,0.0,0.0,0.0,0.0,0.0,0.0,0.0,0.0,0.0,0.0,0.0,0.0,0.0,0.0,0.0,0.0,0.0,0.0,0.0,0.0,0.0,0.0,0.0,0.0,0.0,0.0,0.0,0.0,0.0,0.0,0.0,0.0,0.0,0.0,0.0,0.0,0.0,0.0,0.0,0.0,0.0,0.0,0.0,0.0,0.0,0.0,0.0,0.0,0.0,0.0,0.0,0.0,0.0,0.0,0.0,0.0,0.0,0.0,0.0,0.0,0.0,0.0,0.0,0.0,0.0,0.0,0.0,0.0,0.0,0.0,0.0,0.0,0.0,0.0,0.0,0.0,0.0,0.0,0.0,0.0,0.0,0.0,0.0,0.0,0.0,0.0,0.0,0.0,0.0,0.0,0.0,0.0,0.0,0.0,0.0,0.0,0.0,0.0,0.0,0.0,0.0,0.0,0.0,0.0,0.0,0.0,0.0,0.0,2.2702,2.4255,2.5272,2.536,2.4377,2.2368,2.0536,0.0,0.0,0.0,0.0,0.0,0.0,0.0,0.0,0.0,0.0,0.0,0.0,0.0,0.0,0.0,0.0,0.0,0.0,0.0,0.0,0.0,0.0,0.0,0.0,0.0,0.0,0.0,0.0,0.0,0.0,0.0,0.0,0.0,0.0,0.0,0.0,0.0,0.0,0.0,0.0,0.0,0.0,0.0,0.0,0.0,0.0,0.0,0.0,0.0,0.0,0.0,0.0,0.0,0.0,0.0,0.0,0.0,0.0,0.0,0.0,0.0,0.0,0.0,0.0,0.0,0.0,0.0,0.0,0.0,0.0,0.0,0.0,0.0,0.0,0.0,0.0,0.0,0.0,0.0,0.0,0.0,0.0,0.0,0.0,0.0,0.0,0.0,0.0,0.0,0.0,0.0,0.0,0.0,0.0,0.0,0.0,0.0,0.0,0.0,0.0,0.0,0.0,0.0,0.0,0.0,0.0,0.0,0.0,2.3917,2.528,2.6173,2.6486,2.605,2.3846,2.1868,0.0,0.0,0.0,0.0,0.0,0.0,0.0,0.0,0.0,0.0,0.0,0.0,0.0,0.0,0.0,0.0,0.0,0.0,0.0,0.0,0.0,0.0,0.0,0.0,0.0,0.0,0.0,0.0,0.0,0.0,0.0,0.0,0.0,0.0,0.0,0.0,0.0,0.0,0.0,0.0,0.0,0.0,0.0,0.0,0.0,0.0,0.0,0.0,0.0,0.0,0.0,0.0,0.0,0.0,0.0,0.0,0.0,0.0,0.0,0.0,0.0,0.0,0.0,0.0,0.0,0.0,0.0,0.0,0.0,0.0,0.0,0.0,0.0,0.0,0.0,0.0,0.0,0.0,0.0,0.0,0.0,0.0,0.0,0.0,0.0,0.0,0.0,0.0,0.0,0.0,0.0,0.0,0.0,0.0,0.0,0.0,0.0,0.0,0.0,0.0,0.0,0.0,0.0,0.0,0.0,0.0,0.0,0.0,2.5035,2.671,2.7322,2.7327,2.6778,2.4502,2.2616,0.0,0.0,0.0,0.0,0.0,0.0,0.0,0.0,0.0,0.0,0.0,0.0,0.0,0.0,0.0,0.0,0.0,0.0,0.0,0.0,0.0,0.0,0.0,0.0,0.0,0.0,0.0,0.0,0.0,0.0,0.0,0.0,0.0,0.0,0.0,0.0,0.0,0.0,0.0,0.0,0.0,0.0,0.0,0.0,0.0,0.0,0.0,0.0,1.3646,0.0,0.0,0.0,0.0,0.0,0.0,0.0,0.0,0.0,0.0,0.0,0.0,0.0,0.0,0.0,0.0,0.0,0.0,0.0,0.0,0.0,0.0,0.0,0.0,0.0,0.0,0.0,0.0,0.0,0.0,0.0,0.0,0.0,0.0,0.0,0.0,0.0,0.0,0.0,0.0,0.0,0.0,0.0,0.0,0.0,0.0,0.0,0.0,0.0,0.0,0.0,0.0,0.0,0.0,0.0,0.0,0.0,0.0,0.0,2.6056,2.7712,2.8144,2.8208,2.7826,2.6084,2.4078,0.0,0.0,0.0,0.0,0.0,0.0,0.0,0.0,0.0,0.0,0.0,0.0,0.0,0.0,0.0,0.0,0.0,0.0,0.0,0.0,0.0,0.0,0.0,0.0,0.0,0.0,0.0,0.0,0.0,0.0,0.0,0.0,0.0,0.0,0.0,0.0,0.0,0.0,0.0,0.0,0.0,0.0,0.0,0.0,0.0,0.0,0.0,0.0,0.0,0.0,0.0,0.0,0.0,0.0,0.0,0.0,0.0,0.0,0.0,0.0,0.0,0.0,0.0,0.0,0.0,0.0,0.0,0.0,0.0,0.0,0.0,0.0,0.0,0.0,0.0,0.0,0.0,0.0,0.0,0.0,0.0,0.0,0.0,0.0,0.0,0.0,0.0,0.0,0.0,0.0,0.0,0.0,0.0,0.0,0.0,0.0,0.0,0.0,0.0,0.0,0.0,0.0,0.0,0.0,0.0,0.0,0.0,2.5033,2.7031,2.857,2.8912,2.9008,2.891,2.771,2.5624,2.2662,0.0,0.0,0.0,0.0,0.0,0.0,0.0,0.0,0.0,0.0,0.0,0.0,0.0,0.0,0.0,0.0,0.0,0.0,0.0,0.0,0.0,0.0,0.0,0.0,0.0,0.0,0.0,0.0,0.0,0.0,0.0,0.0,0.0,0.0,0.0,0.0,0.0,0.0,1.0377,1.1785,0.0,0.0,0.0,0.0,0.0,0.0,0.0,0.0,1.51,0.0,0.0,0.0,0.0,0.0,0.0,0.0,0.0,0.0,0.0,0.0,0.0,0.0,0.0,0.0,0.0,0.0,0.0,0.0,0.0,0.0,0.0,0.0,0.0,0.0,0.0,0.0,0.0,0.0,0.0,0.0,0.0,0.0,0.0,0.0,0.0,0.0,0.0,0.0,0.0,0.0,0.0,0.0,0.0,0.0,0.0,0.0,0.0,0.0,0.0,0.0,0.0,0.0,0.0,0.0,0.0,2.3613,2.5862,2.7867,2.9621,2.9697,2.9462,2.891,2.8149,2.6452,2.3743,0.0,0.0,0.0,0.0,0.0,0.0,0.0,0.0,0.0,0.0,0.0,0.0,0.0,0.0,0.0,0.0,0.0,0.0,0.0,0.0,0.0,0.0,0.0,0.0,0.0,0.0,0.0,0.0,0.0,0.0,0.0,0.0,0.0,0.0,0.0,0.0,0.0,0.0,0.0,1.3523,1.4384,0.0,0.0,0.0,0.0,0.0,0.0,0.0,0.0,1.6659,0.0,0.0,0.0,0.0,0.0,0.0,0.0,0.0,0.0,0.0,0.0,0.0,0.0,0.0,0.0,0.0,0.0,0.0,0.0,0.0,0.0,0.0,0.0,0.0,0.0,0.0,0.0,0.0,0.0,0.0,0.0,0.0,0.0,0.0,0.0,0.0,0.0,0.0,0.0,0.0,0.0,0.0,0.0,0.0,0.0,0.0,0.0,0.0,0.0,0.0,0.0,0.0,0.0,0.0,0.0,2.4111,2.6849,2.8912,3.0099,3.0155,2.9921,2.9443,2.8565,2.6772,0.0,0.0,0.0,0.0,0.0,0.0,0.0,0.0,0.0,0.0,0.0,0.0,0.0,0.0,0.0,0.0,0.0,0.0,0.0,0.0,0.0,0.0,0.0,0.0,0.0,0.0,0.0,0.0,0.0,0.0,0.0,0.0,0.0,0.0,0.0,0.0,0.0,0.0,0.0,0.0,1.5383,1.6218,1.7377,0.0,0.0,0.0,0.0,0.0,0.0,1.8376,1.7797,0.0,0.0,0.0,0.0,0.0,0.0,0.0,0.0,0.0,0.0,0.0,0.0,0.0,0.0,0.0,0.0,0.0,0.0,0.0,0.0,0.0,0.0,0.0,0.0,0.0,0.0,0.0,0.0,0.0,0.0,0.0,0.0,0.0,0.0,0.0,0.0,0.0,0.0,0.0,0.0,0.0,0.0,0.0,0.0,0.0,0.0,0.0,0.0,0.0,0.0,0.0,0.0,0.0,0.0,0.0,2.4555,2.783,2.9869,3.0539,3.056,3.0405,2.9985,2.8826,2.6813,0.0,0.0,0.0,0.0,0.0,0.0,0.0,0.0,0.0,0.0,0.0,0.0,0.0,0.0,0.0,0.0,0.0,0.0,0.0,0.0,0.0,0.0,0.0,0.0,0.0,0.0,0.0,0.0,0.0,0.0,0.0,0.0,0.0,0.0,0.0,0.0,0.0,0.0,0.0,0.0,0.0,1.8047,1.9825,1.9448,0.0,0.0,0.0,0.0,2.0144,1.9828,0.0,0.0,0.0,0.0,0.0,0.0,0.0,0.0,0.0,0.0,0.0,0.0,0.0,0.0,0.0,0.0,0.0,0.0,0.0,0.0,0.0,0.0,0.0,0.0,0.0,0.0,0.0,0.0,0.0,0.0,0.0,0.0,0.0,0.0,0.0,0.0,0.0,0.0,0.0,0.0,0.0,0.0,0.0,0.0,0.0,0.0,0.0,0.0,0.0,0.0,0.0,0.0,0.0,0.0,0.0,0.0,2.5312,2.8629,3.0638,3.1158,3.1198,3.0905,3.0337,2.8657,2.6616,0.0,0.0,0.0,0.0,0.0,0.0,0.0,0.0,0.0,0.0,0.0,0.0,0.0,0.0,0.0,0.0,0.0,0.0,0.0,0.0,0.0,0.0,0.0,0.0,0.0,0.0,0.0,0.0,0.0,0.0,0.0,0.0,0.0,0.0,0.0,0.0,0.0,0.0,0.0,0.0,0.0,1.937,2.1226,2.1177,2.1033,0.0,0.0,2.2049,2.2139,2.2109,0.0,0.0,0.0,0.0,0.0,0.0,0.0,0.0,0.0,0.0,0.0,0.0,0.0,0.0,0.0,0.0,0.0,0.0,0.0,0.0,0.0,0.0,0.0,0.0,0.0,0.0,0.0,0.0,0.0,0.0,0.0,0.0,0.0,0.0,0.0,0.0,0.0,0.0,0.0,0.0,0.0,0.0,0.0,0.0,0.0,0.0,0.0,0.0,0.0,0.0,0.0,0.0,0.0,0.0,0.0,2.4069,2.5912,2.9514,3.1455,3.1577,3.1402,3.1095,3.0627,2.8721,2.6536,0.0,0.0,0.0,0.0,0.0,0.0,0.0,0.0,0.0,0.0,0.0,0.0,0.0,0.0,0.0,0.0,0.0,0.0,0.0,0.0,0.0,0.0,0.0,0.0,0.0,0.0,0.0,0.0,0.0,0.0,0.0,0.0,0.0,0.0,0.0,0.0,0.0,0.0,0.0,0.0,0.0,0.0,2.2396,2.303,0.0,0.0,0.0,2.3895,2.3671,0.0,0.0,0.0,0.0,0.0,0.0,0.0,0.0,0.0,0.0,0.0,0.0,0.0,0.0,0.0,0.0,0.0,0.0,0.0,0.0,0.0,0.0,0.0,0.0,0.0,0.0,0.0,0.0,0.0,0.0,0.0,0.0,0.0,0.0,0.0,0.0,0.0,0.0,0.0,0.0,0.0,0.0,0.0,0.0,0.0,0.0,0.0,0.0,0.0,0.0,0.0,0.0,0.0,0.0,0.0,0.0,0.0,2.6535,3.0373,3.2209,3.1928,3.1586,3.1313,3.1078,2.9149,0.0,0.0,0.0,0.0,0.0,0.0,0.0,0.0,0.0,0.0,0.0,0.0,0.0,0.0,0.0,0.0,0.0,0.0,0.0,0.0,0.0,0.0,0.0,0.0,0.0,0.0,0.0,0.9844,0.0,0.0,0.0,0.0,0.0,0.0,0.0,0.0,0.0,0.0,0.0,0.0,0.0,0.0,2.1813,2.3846,2.4914,2.5478,0.0,0.0,2.5686,2.5058,2.4731,2.3836,0.0,0.0,0.0,0.0,0.0,0.0,0.0,0.0,0.0,0.0,0.0,0.0,0.0,0.0,0.0,0.0,0.0,0.0,0.0,0.0,0.0,0.0,0.0,0.0,0.0,0.0,0.0,0.0,0.0,0.0,0.0,0.0,0.0,0.0,0.0,0.0,0.0,0.0,0.0,0.0,0.0,0.0,0.0,0.0,0.0,0.0,0.0,0.0,0.0,0.0,0.0,0.0,0.0,0.0,0.0,2.7369,3.1092,3.2787,3.2265,3.1929,3.1821,3.1873,3.0142,2.7817,0.0,0.0,0.0,0.0,0.0,0.0,0.0,0.0,0.0,0.0,0.0,0.0,0.0,0.0,0.0,0.0,0.0,0.0,0.0,0.0,0.0,0.0,0.0,0.0,0.0,0.0,0.0,0.0,0.0,0.0,0.0,0.0,0.0,0.0,0.0,0.0,0.0,0.0,0.0,0.0,0.0,2.3279,2.5756,2.68,2.7346,0.0,0.0,2.7398,2.6413,2.6612,2.5894,2.2955,0.0,0.0,0.0,0.0,0.0,0.0,0.0,0.0,0.0,0.0,0.0,0.0,0.0,0.0,0.0,0.0,0.0,0.0,0.0,0.0,0.0,0.0,0.0,0.0,0.0,0.0,0.0,0.0,0.0,0.0,0.0,0.0,0.0,0.0,0.0,0.0,0.0,0.0,0.0,0.0,0.0,0.0,0.0,0.0,0.0,0.0,0.0,0.0,0.0,0.0,0.0,0.0,0.0,2.5774,2.7721,3.1443,3.3148,3.2646,3.2571,3.2446,3.231,3.0909,2.8872,0.0,0.0,0.0,0.0,0.0,0.0,0.0,0.0,0.0,0.0,0.0,0.0,0.0,0.0,0.0,0.0,0.0,0.0,0.0,0.0,0.0,0.0,0.0,0.0,0.0,0.0,0.0,0.0,1.4011,1.452,1.4056,0.0,0.0,0.0,0.0,0.0,0.0,0.0,0.0,0.0,0.0,2.4389,2.654,2.7462,0.0,0.0,2.8043,2.7966,2.767,2.7319,2.6454,2.4511,2.2689,0.0,0.0,0.0,0.0,0.0,0.0,0.0,0.0,0.0,0.0,0.0,0.0,0.0,0.0,0.0,0.0,0.0,0.0,0.0,0.0,0.0,0.0,0.0,0.0,0.0,0.0,0.0,0.0,0.0,0.0,0.0,0.0,0.0,0.0,0.0,0.0,0.0,0.0,0.0,0.0,0.0,0.0,0.0,0.0,0.0,0.0,0.0,0.0,0.0,0.0,0.0,0.0,2.6216,2.8279,3.1947,3.3605,3.3227,3.3206,3.3114,3.2865,3.1795,2.9997,0.0,0.0,0.0,0.0,0.0,0.0,0.0,0.0,0.0,0.0,0.0,0.0,0.0,0.0,0.0,0.0,0.0,0.0,0.0,0.0,0.0,0.0,0.0,0.0,0.0,0.0,0.0,0.0,1.5115,1.5407,1.4607,0.0,0.0,0.0,0.0,0.0,0.0,0.0,0.0,0.0,0.0,2.5804,2.7683,2.8513,2.8923,2.8823,2.8964,2.8982,2.8696,2.814,2.7239,2.5881,0.0,0.0,0.0,0.0,0.0,0.0,0.0,0.0,0.0,0.0,0.0,0.0,0.0,0.0,0.0,0.0,0.0,0.0,0.0,0.0,0.0,0.0,0.0,0.0,0.0,0.0,0.0,0.0,0.0,0.0,1.3288,0.0,0.0,0.0,0.0,0.0,0.0,0.0,0.0,0.0,0.0,0.0,0.0,0.0,0.0,0.0,0.0,0.0,0.0,0.0,0.0,0.0,0.0,2.6768,2.9164,3.2549,3.4272,3.4158,3.386,3.3711,3.371,3.2803,3.1199,2.8855,0.0,0.0,0.0,0.0,0.0,0.0,0.0,0.0,0.0,0.0,0.0,0.0,0.0,0.0,0.0,0.0,0.0,0.0,0.0,0.0,0.0,0.0,0.0,0.0,0.0,0.0,1.3996,1.4877,1.5257,0.0,0.0,0.0,0.0,0.0,0.0,0.0,0.0,0.0,0.0,2.5563,2.76,2.9381,3.0162,3.0437,3.0261,3.0662,3.058,2.9373,2.9148,2.8597,0.0,0.0,0.0,0.0,0.0,0.0,0.0,0.0,0.0,0.0,0.0,0.0,0.0,0.0,0.0,0.0,0.0,0.0,0.0,0.0,0.0,0.0,0.0,0.0,0.0,0.0,0.0,1.8422,1.8082,0.0,0.0,0.0,0.0,0.0,0.0,0.0,0.0,0.0,0.0,0.0,2.2474,2.2941,0.0,0.0,0.0,0.0,0.0,0.0,0.0,0.0,0.0,0.0,0.0,0.0,2.7152,2.9643,3.3179,3.4764,3.4233,3.4589,3.4505,3.3804,3.3557,3.1767,2.827,0.0,0.0,0.0,0.0,0.0,0.0,0.0,0.0,0.0,0.0,0.0,0.0,0.0,0.0,0.0,0.0,0.0,0.0,0.0,0.0,0.0,0.0,0.0,0.0,0.0,1.5166,0.0,0.0,0.0,0.0,0.0,0.0,0.0,0.0,0.0,0.0,0.0,2.3586,2.6155,2.7799,2.9217,3.0521,3.1033,3.1134,0.0,0.0,0.0,0.0,0.0,0.0,0.0,0.0,0.0,0.0,0.0,0.0,0.0,0.0,2.1,1.9668,1.9488,1.9745,2.043,0.0,0.0,0.0,0.0,0.0,0.0,0.0,0.0,0.0,0.0,0.0,0.0,0.0,0.0,2.0617,0.0,1.9533,0.0,0.0,0.0,0.0,0.0,0.0,0.0,0.0,2.3619,2.484,2.5455,2.5934,2.6141,0.0,2.6249,2.4969,0.0,0.0,0.0,0.0,0.0,0.0,0.0,0.0,2.7998,3.0434,3.3859,3.5453,3.5078,3.5431,3.5256,3.4462,3.3786,3.1941,2.8758,2.6689,2.4297,0.0,0.0,0.0,0.0,0.0,0.0,0.0,0.0,0.0,0.0,0.0,0.0,0.0,0.0,0.0,0.0,0.0,0.0,0.0,0.0,0.0,0.0,0.0,1.6551,0.0,0.0,0.0,0.0,0.0,0.0,0.0,0.0,0.0,2.1628,2.3598,2.584,2.8033,2.9253,3.0382,3.1626,0.0,0.0,0.0,0.0,0.0,0.0,0.0,3.0278,2.9252,2.8551,2.7773,2.6675,2.5899,2.5421,2.5421,0.0,0.0,2.2637,2.2254,2.2496,2.3119,2.3419,2.3921,2.5006,2.5185,2.5355,0.0,0.0,0.0,0.0,0.0,0.0,0.0,0.0,2.3307,2.3176,0.0,2.2146,0.0,0.0,0.0,0.0,0.0,0.0,0.0,0.0,2.7782,2.8932,2.8278,2.8873,2.9194,2.9211,2.9146,2.8907,2.8377,2.576,0.0,0.0,0.0,0.0,0.0,0.0,2.9324,3.168,3.4631,3.6266,3.6559,3.6288,3.5917,3.5494,3.354,3.1808,3.0362,2.8437,2.6611,2.4918,2.1988,0.0,0.0,0.0,0.0,0.0,0.0,0.0,0.0,0.0,0.0,0.0,0.0,0.0,0.0,0.0,0.0,0.0,0.0,0.0,0.0,1.7179,0.0,0.0,0.0,0.0,0.0,0.0,0.0,0.0,0.0,0.0,2.4326,2.6045,2.7829,2.9068,0.0,0.0,0.0,0.0,3.2265,3.279,3.2908,3.2658,3.1985,3.1473,3.1202,3.1248,0.0,0.0,2.8936,2.8356,2.798,2.798,2.8369,2.8019,2.5458,2.5094,2.5261,2.5514,2.6035,2.6641,2.7255,2.7688,2.8121,2.8096,0.0,0.0,0.0,0.0,2.5141,2.5605,2.5756,2.5935,2.5883,2.5618,2.4752,0.0,0.0,0.0,0.0,0.0,0.0,2.6328,2.7622,2.928,3.0322,3.0887,3.1072,3.1478,3.2086,3.2092,3.2123,3.22,3.1426,2.8791,2.447,0.0,0.0,0.0,0.0,3.0722,3.3145,3.5574,3.6727,3.6606,3.6511,3.5923,3.4827,3.3767,3.2634,3.1471,3.0136,2.8561,2.6644,2.4612,0.0,0.0,0.0,0.0,0.0,0.0,0.0,0.0,0.0,0.0,0.0,0.0,0.0,0.0,0.0,0.0,0.0,0.0,0.0,1.8241,1.8735,1.8786,0.0,0.0,0.0,0.0,0.0,0.0,0.0,0.0,0.0,2.8134,2.8957,3.0001,0.0,0.0,3.277,3.3681,3.3475,3.3155,3.2987,0.0,0.0,0.0,3.2232,3.2274,3.1558,3.1358,3.1152,3.0636,3.0427,3.0154,2.9634,2.9661,2.9517,2.8843,2.801,2.7762,2.8263,2.8372,2.8562,2.9214,2.9684,2.9951,3.1186,2.9322,2.791,2.6995,2.6616,2.7444,2.7933,2.8069,2.8126,2.8216,2.8244,2.7506,2.6675,2.5724,2.5063,0.0,0.0,0.0,2.8999,3.0288,3.1348,3.2217,3.2878,3.3224,3.3655,3.4182,3.4338,3.4513,3.4688,3.4534,3.2798,2.9529,0.0,0.0,2.9179,3.072,3.2478,3.4441,3.6215,3.706,3.7019,3.6749,3.6066,3.497,3.4128,3.3254,3.2368,3.13,2.9961,2.8355,2.658,2.4513,0.0,0.0,0.0,0.0,0.0,0.0,0.0,0.0,0.0,0.0,0.0,1.5222,1.5375,0.0,0.0,0.0,1.8015,1.9255,2.0939,2.0836,0.0,0.0,0.0,0.0,0.0,0.0,0.0,2.6047,2.7869,2.9406,3.0467,3.1084,3.1639,3.2219,3.2715,3.3299,3.4138,0.0,3.3483,3.3263,3.3262,3.3062,3.2451,3.271,3.2832,3.2277,3.2273,3.2295,3.2102,3.2054,3.1832,3.1324,3.1139,3.1139,3.1173,3.0578,2.9989,2.9877,2.9806,2.995,3.0537,3.1053,3.1455,3.3647,3.3144,3.0467,2.9126,2.8795,2.955,2.9914,2.9963,2.9999,3.0225,3.0531,3.0265,2.9776,2.916,2.8558,0.0,0.0,3.0639,3.1737,3.2694,3.3823,3.4351,3.4413,3.5209,3.5615,3.5696,3.6081,3.626,3.6264,3.5929,3.572,3.5628,3.3748,3.263,3.2382,3.3411,3.4522,3.5623,3.6696,3.7363,3.763,3.6956,3.6273,3.5611,3.4588,3.3715,3.304,3.2002,3.0982,2.9931,2.805,2.6399,2.4951,0.0,0.0,0.0,0.0,0.0,0.0,0.0,0.0,0.0,0.0,0.0,0.0,0.0,0.0,0.0,2.1069,0.0,2.3669,2.3122,0.0,0.0,0.0,2.2906,2.3596,2.5291,2.6854,2.8009,0.0,0.0,0.0,0.0,3.2824,3.217,3.2501,3.3184,3.4219,3.3851,3.3446,3.3568,3.3657,3.361,3.3268,3.3149,3.3166,3.3248,3.3283,3.3263,3.3207,3.319,3.3042,3.2563,3.2588,3.2551,3.2588,3.2458,3.2195,3.0728,3.0738,3.1049,3.147,3.213,3.271,3.4866,3.466,3.3089,3.1757,3.0759,3.119,3.1383,3.1411,3.1773,3.1993,3.2067,3.2074,3.1932,3.1835,3.2196,3.2443,3.266,3.3808,3.4461,3.4703,3.5229,3.5692,3.6025,3.6249,3.6667,3.7307,3.7414,3.7628,3.791,3.7836,3.7909,3.8094,3.7356,3.6295,3.5037,3.58,3.6454,3.6944,3.7752,3.7858,3.7233,3.6829,3.6273,3.5589,3.4811,3.4064,3.3401,3.2348,3.1554,3.1014,2.9549,2.7983,2.6399,2.3536,0.0,0.0,0.0,0.0,0.0,0.0,0.0,0.0,0.0,1.7162,1.7206,0.0,1.9658,0.0,2.2598,2.4059,2.4509,2.4317,0.0,0.0,2.4419,2.4991,2.5887,2.7355,2.8768,3.0112,3.1288,3.2161,3.2652,3.3091,3.3284,3.3033,3.34,3.4007,3.4811,3.4198,3.3655,3.368,3.3792,3.3835,3.3776,3.391,3.4036,3.4109,3.4106,3.4013,3.3714,3.3675,3.3429,3.2763,3.2606,3.2606,3.2641,3.2822,3.2931,3.2555,3.2544,3.2712,3.3067,3.3489,3.383,3.5896,3.5485,3.462,3.38,3.3078,3.2905,3.2941,3.3162,3.3423,3.3743,3.4126,3.4197,3.4088,3.4001,3.4515,3.4765,3.4799,3.5688,3.6222,3.6387,3.6944,3.7241,3.7325,3.773,3.8197,3.8666,3.8877,3.907,3.9246,3.9259,3.9322,3.9426,3.9205,3.8663,3.78,3.7771,3.7737,3.7665,3.8022,3.8059,3.7664,3.6973,3.6423,3.6019,3.4975,3.4153,3.3662,3.2392,3.1486,3.1012,2.9666,2.8395,2.7272,2.4683,2.2425,0.0,0.0,0.0,0.0,0.0,0.0,0.0,0.0,0.0,0.0,0.0,2.1605,0.0,2.43,0.0,2.5727,2.5852,2.608,2.64,2.6804,2.7455,2.8559,2.969,3.0727,3.1649,3.2664,3.3302,3.3351,3.3824,3.422,3.4296,3.4383,3.4469,3.4504,3.4071,3.3687,3.3547,3.3851,3.4195,3.4342,3.4539,3.473,3.4897,3.4929,3.4855,3.4631,3.4443,3.4118,3.3553,3.3231,3.3189,3.3359,3.3581,3.3835,3.4155,3.4221,3.4138,3.3979,3.4351,3.4754,3.6781,3.6089,3.5626,3.5436,3.5382,3.467,3.4561,3.486,3.4922,3.5398,3.6145,3.6208,3.6086,3.5828,3.6162,3.6287,3.6332,3.7017,3.7499,3.7875,3.8567,3.8732,3.8494,3.93,3.9756,3.9869,4.028,4.0475,4.0447,4.0381,4.0291,4.0175,4.0067,4.0039,4.0061,3.927,3.8664,3.8253,3.8135,3.8202,3.8504,3.7388,3.6763,3.6669,3.5214,3.421,3.38,3.2329,3.1202,3.0566,2.9259,2.8358,2.7921,2.5461,2.3564,0.0,2.0907,0.0,0.0,0.0,0.0,0.0,0.0,0.0,0.0,2.2589,2.3498,2.463,2.6036,2.6978,2.7176,2.7578,2.8085,2.8779,2.9207,2.988,3.1059,3.1931,3.2559,3.289,3.3882,3.4391,3.4067,3.4573,3.5143,3.5308,3.5124,3.4753,3.4168,3.4014,3.3895,3.3496,3.4027,3.4588,3.4867,3.5028,3.5172,3.544,3.5438,3.553,3.5455,3.5176,3.4847,3.4436,3.4126,3.4044,3.4354,3.4455,3.4748,3.5275,3.5412,3.5268,3.4707,3.4982,3.5469,3.7706,3.7241,3.6817,3.6645,3.6645,3.6494,3.6132,3.5695,3.6067,3.6525,3.6966,3.6997,3.7117,3.7404,3.7717,3.8049,3.8355,3.8802,3.9062,3.9169,3.9304,3.9529,3.9817,3.9992,4.0491,4.1192,4.1301,4.1473,4.1718,4.136,4.1169,4.1094,4.0412,4.0096,4.0096,0.0,0.0,0.0,3.9162,3.9009,3.9092,3.8338,3.7718,3.7322,3.5786,0.0,3.3783,3.2329,3.1325,3.09,2.9868,0.0,0.0,0.0,0.0,0.0,0.0,0.0,0.0,0.0,0.0,0.0,2.4105,2.4061,2.3079,2.4393,2.5822,2.6959,2.7877,2.8526,2.891,2.9261,2.9614,3.0088,3.0446,3.1116,3.2244,3.31,3.3728,3.4056,3.4861,3.5212,3.4859,3.4918,3.5043,3.5155,3.5062,3.4955,3.4815,3.4744,3.4609,3.4305,3.4603,3.4888,3.4992,3.5285,3.5412,3.5227,3.5117,3.5135,3.5153,3.5098,3.4877,3.4495,3.4594,3.4673,3.4479,3.4853,3.5337,3.5472,3.5728,3.5857,3.5699,3.5772,3.5996,3.8578,0.0,3.7972,3.789,0.0,3.7907,3.7951,3.7972,3.736,3.7585,3.841,3.8835,3.9155,3.9347,3.9279,3.9443,3.9801,3.977,3.9847,4.0063,4.0287,4.0406,4.0459,4.0922,4.1385,4.189,4.2131,4.2305,4.2419,4.1947,4.1589,4.1343,4.0695,4.0337,4.0344,4.0307,4.0292,4.0257,3.9634,3.9381,3.9547,3.8617,3.7866,3.7407,0.0,0.0,0.0,0.0,0.0,0.0,0.0,0.0,0.0,0.0,0.0,2.6089,2.5237,2.4727,2.4642,2.4994,2.538,2.5758,2.664,2.6746,2.5681,2.6751,2.7833,2.8758,2.9478,3.005,3.0447,3.0795,3.1141,3.1551,3.1922,3.2573,3.3686,3.4215,3.4654,3.5196,3.5622,3.5696,3.53,3.5432,3.5535,3.5552,3.5552,3.5535,3.5518,3.5226,3.4959,3.5001,3.5155,3.5354,3.5582,3.5735,3.5831,3.5632,3.5595,3.5577,3.5595,3.5412,3.5174,3.4788,3.4869,3.4906,3.4795,3.5263,3.5847,3.6057,3.6366,3.6623,3.6623,3.6504,3.6465,3.9323,3.8945,3.9012,3.9056,3.9039,3.9122,3.9608,4.0215,0.0,0.0,0.0,4.0582,4.0934,4.0965,4.0592,4.0565,4.0775,4.0413,4.0405,4.0742,4.1145,4.1219,4.1105,4.1862,4.2323,4.2434,4.2831,4.3032,4.3013,4.2406,4.1946,4.1608,4.1085,4.076,4.0686,4.0709,4.0644,4.0497,3.9916,3.9765,4.0005,3.8903,3.8073,3.7586,3.6072,3.4877,3.4054,3.2625,3.1633,3.1242,3.0328,2.9631,2.9225,2.8643,2.7997,2.7322,2.719,2.7101,2.6921,2.7214,2.7602,2.806,2.8701,2.8892,2.8461,2.8918,2.9554,3.0302,3.0938,3.142,3.176,3.2047,3.2399,3.2869,3.3265,3.3965,3.5082,3.5329,3.561,3.6156,3.6228,3.6058,3.5677,3.5874,3.6097,3.608,3.6049,3.6097,3.6011,3.5498,3.5222,3.5461,3.5515,3.5686,3.5977,3.6137,3.6183,3.6123,3.6143,3.6199,3.6164,3.5944,3.5595,3.5319,3.5254,3.5326,3.5316,3.585,3.6393,3.6743,3.7068,3.7342,3.7363,3.7166,3.7049,3.9756,3.9409,3.985,4.0026,4.003,4.0443,4.0684,4.0772,4.0534,4.056,4.0723,4.0841,4.1076,4.1422,4.1356,4.1279,4.1216,4.1165,4.116,0.0,4.1258,4.1719,4.2497,4.2653,4.2899,4.3296,4.3385,4.3587,4.3777,4.2953,4.2675,4.2798,4.2006,4.1388,4.1137,4.1103,4.096,4.0613,4.052,4.0538,4.0566,3.9791,3.9139,3.8645,3.7055,3.5833,3.5027,3.3729,3.2749,3.2155,3.171,3.1157,3.048,3.0137,2.9767,2.9394,2.9098,2.8919,2.8881,2.8961,2.9115,2.9472,2.9924,3.0033,2.9704,3.0296,3.103,3.1726,3.2175,3.2481,3.2549,3.2603,3.2974,3.367,3.4112,3.4779,3.5883,3.6319,3.6514,3.6652,3.6649,3.6436,3.6058,3.6046,3.6097,3.6097,3.6097,3.6097,3.6029,3.572,3.5483,3.5514,3.5567,3.5611,3.5774,3.6006,3.6158,3.6181,3.6186,3.621,3.62,3.6127,3.6018,3.6015,3.6209,3.638,3.6391,3.6797,3.7084,3.7207,3.7324,3.748,3.7756,3.7754,3.7736,4.0987,4.0874,4.1097,4.1169,4.1208,4.1697,4.1941,4.1941,4.2203,4.2054,4.1676,4.2094,4.2403,4.2544,4.2321,4.2165,4.2115,4.1804,4.1669,4.1709,4.1962,4.2344,4.2811,4.3057,4.339,4.3793,4.3811,4.3877,4.3924,4.3273,4.2879,4.2737,4.2063,4.1525,4.1223,4.1206,4.1,4.0606,4.0615,4.0668,4.0634,4.0097,3.9493,3.8846,3.7681,3.6717,3.5882,3.4736,3.3985,3.368,3.3137,3.2511,3.1774,3.1426,3.0956,3.0437,3.0044,2.9835,2.9854,2.9854,3.0025,3.0421,3.096,3.1404,3.1741,3.1858,3.2146,3.2702,3.3093,3.338,3.3602,3.3831,3.419,3.4778,3.5376,3.5957,3.6408,3.6669,3.679,3.6706,3.6519,3.6319,3.6117,3.6097,3.6097,3.6097,3.6097,3.6097,3.6097,3.5943,3.5823,3.5806,3.5848,3.5874,3.5881,3.6005,3.6149,3.6192,3.6198,3.6188,3.6199,3.6201,3.6202,3.6217,3.6543,3.6752,3.6745,3.7215,3.7527,3.7656,3.7851,3.8084,3.826,3.8281,3.8281,4.2273,4.2273,4.2409,4.2522,4.2657,4.3041,4.3221,4.3266,4.3621,4.3371,4.2889,4.3288,4.3481,4.3455,4.3124,4.2904,4.2748,4.2367,4.2187,4.2232,4.2613,4.2914,4.3117,4.3453,4.3829,4.4201,4.4237,4.4234,4.4144,4.3602,4.3052,4.2533,4.2135,4.1748,4.1326,4.1309,4.1086,4.064,4.0606,4.0606,4.0566,4.0201,3.9669,3.8972,3.824,3.7468,3.6725,3.5838,3.5271,3.5088,3.4559,3.3845,3.3041,3.2592,3.2068,3.1449,3.0927,3.0661,3.0661,3.0755,3.101,3.1445,3.2119,3.2813,3.341,3.3363,3.3347,3.3645,3.4034,3.436,3.4644,3.5005,3.5428,3.5865,3.6494,3.6894,3.6943,3.6948,3.687,3.6709,3.6359,3.6117,3.6097,3.6097,3.6097,3.6097,3.6097,3.6097,3.6097,3.6097,3.6097,3.6097,3.6097,3.6081,3.6104,3.6092,3.6134,3.6183,3.619,3.6184,3.6215,3.6275,3.6423,3.6512,3.6857,3.7162,3.7197,3.7599,3.8011,3.8105,3.8397,3.8729,3.8905,3.8944,3.8846,4.3076,4.3163,4.3582,4.4059,4.4389,4.4476,4.4481,4.4481,4.4545,4.4545,4.4352,4.377,4.3518,4.3481,4.3473,4.325,4.2855,4.2766,4.2743,4.2743,4.277,4.3216,4.3923,4.4031,4.4256,4.4604,4.4641,4.4815,4.5014,4.4176,4.3415,4.2826,4.271,4.2371,4.1754,4.1668,4.1326,4.0623,4.0606,4.0606,4.0566,4.0201,3.9842,3.9448,3.8669,3.8067,3.7644,3.7243,3.6659,3.6064,3.5908,3.5333,3.4272,3.3765,3.3342,3.2884,3.217,3.1757,3.178,3.2146,3.2514,3.2917,3.3591,3.4088,3.4225,3.4576,3.4793,3.4893,3.5182,3.5361,3.551,3.5855,3.624,3.6644,3.7084,3.7335,3.7325,3.7338,3.717,3.6764,3.6339,3.6097,3.6097,3.6097,3.6097,3.6097,3.6097,3.6097,3.6097,3.6097,3.6097,3.6097,3.6097,3.61,3.6112,3.6089,3.6127,3.6183,3.6198,3.6207,3.625,3.6497,3.6812,3.7031,3.7566,3.7893,3.8221,3.8534,3.8517,3.8541,3.8833,3.9239,3.9629,3.9706,3.9551,4.4076,4.4099,4.4329,4.4513,4.4696,4.4719,4.4719,4.4719,4.4719,4.4719,4.4682,4.4347,4.4201,4.4201,4.4219,4.3977,4.3582,4.3582,4.3582,4.3582,4.3582,4.3891,4.4398,4.4457,4.4678,4.5045,4.504,4.5102,4.5051,4.4494,4.4015,4.3776,4.3769,4.3367,4.2668,4.2598,4.2213,4.1438,4.115,4.1031,4.0969,4.0582,4.007,3.9527,3.9184,3.87,3.8135,3.7741,3.7402,3.7094,3.6645,3.6065,3.5356,3.4735,3.4104,3.3453,3.2891,3.2717,3.2933,3.313,3.3391,3.3792,3.4327,3.4742,3.5016,3.5617,3.5993,3.5961,3.5757,3.577,3.6252,3.6682,3.706,3.7465,3.7852,3.7929,3.7453,3.7379,3.7145,3.648,3.6218,3.6097,3.6097,3.6097,3.6097,3.6097,3.6097,3.6097,3.6097,3.6097,3.6097,3.6097,3.6097,3.6097,3.6097,3.6097,3.6134,3.6186,3.6211,3.6198,3.6288,3.6534,3.6923,3.7347,3.7907,3.8467,3.8853,3.8958,3.8964,3.8983,3.9022,3.9349,3.9807,3.9883,3.9941,4.4788,4.4714,4.4806,4.4934,4.5026,4.5026,4.5026,4.5026,4.5026,4.5026,4.5026,4.5026,4.5003,4.499,4.4806,4.4531,4.4292,4.4274,4.4274,4.4274,4.4256,4.4476,4.4843,4.4879,4.5081,4.5407,4.5462,4.5327,4.5111,4.4774,4.4513,4.4436,4.4412,4.4022,4.3289,4.3218,4.281,4.2033,4.1664,4.1506,4.1438,4.1037,4.041,3.9698,3.9544,3.9162,3.849,3.8118,3.7882,3.78,3.7142,3.6587,3.618,3.5447,3.4659,3.3881,3.3573,3.3549,3.3865,3.3964,3.4192,3.4603,3.5074,3.5509,3.5863,3.6487,3.6925,3.7012,3.6557,3.6571,3.7038,3.7489,3.7849,3.8141,3.8435,3.8263,3.7528,3.7385,3.7065,3.6279,3.6117,3.6097,3.6097,3.6097,3.6097,3.6097,3.6097,3.6097,3.6097,3.6097,3.6097,3.6097,3.6097,3.6097,3.6117,3.6238,3.6271,3.6381,3.6466,3.6603,3.6564,3.6886,3.7297,3.7933,3.8347,3.8647,3.8966,3.9123,3.9185,3.9242,3.9319,3.9606,4.0259,4.0297,4.0666,4.504,4.4769,4.5095,4.5448,4.581,4.5797,4.581,4.5755,4.5815,4.581,4.5797,4.5815,4.5834,4.576,4.5081,4.4696,4.4678,4.4659,4.4678,4.4659,4.4678,4.4898,4.526,4.5278,4.548,4.5815,4.581,4.5588,4.5176,4.5081,4.4845,4.4459,4.4471,4.4027,4.3399,4.3275,4.2833,4.2186,4.2029,4.1962,4.1917,4.1529,4.0886,4.0108,3.9681,3.9282,3.8849,3.849,3.8135,3.7817,3.7398,3.7001,3.6563,3.5801,3.503,3.4405,3.4279,3.4266,3.4402,3.4725,3.5059,3.5403,3.6098,3.6589,3.6614,3.705,3.7485,3.7865,3.7775,3.782,3.7899,3.8196,3.8429,3.8507,3.8562,3.8203,3.7485,3.7345,3.6985,3.6319,3.6097,3.6097,3.6097,3.6097,3.6097,3.6097,3.6097,3.6114,3.6148,3.6131,3.6148,3.6183,3.6166,3.6097,3.6137,3.6359,3.661,3.6715,3.6877,3.7251,3.7459,3.7681,3.8063,3.8443,3.8671,3.888,3.9032,3.9109,3.9165,3.9334,3.9694,4.0098,4.0662,4.1317,4.1568,4.4824,4.4714,4.4861,4.5132,4.5498,4.5517,4.5645,4.5883,4.5883,4.5883,4.5883,4.5883,4.5883,4.5889,4.5613,4.5315,4.5095,4.51,4.5077,4.5077,4.51,4.5297,4.5645,4.5682,4.5737,4.5865,4.5883,4.5813,4.5648,4.5624,4.553,4.5334,4.5088,4.4689,4.4223,4.3891,4.3493,4.2977,4.2699,4.2501,4.2456,4.2007,4.1576,4.1239,4.0112,3.9321,3.894,3.8507,3.8233,3.8135,3.7796,3.7381,3.6946,3.5994,3.5443,3.5446,3.547,3.557,3.5834,3.6255,3.6567,3.6669,3.6945,3.7145,3.7225,3.7545,3.7845,3.8004,3.8263,3.8382,3.8402,3.8521,3.86,3.858,3.8362,3.8024,3.7485,3.7125,3.6704,3.6221,3.6097,3.6097,3.6097,3.6097,3.6097,3.6097,3.6097,3.6217,3.6368,3.6419,3.6508,3.6659,3.6594,3.6541,3.6867,3.6722,3.674,3.6878,3.7079,3.7308,3.7534,3.7901,3.8286,3.8776,3.9025,3.9386,3.9638,3.9726,3.9679,3.9789,4.0126,4.038,4.1007,4.1372,4.1564,4.4402,4.4494,4.4512,4.4824,4.5278,4.5273,4.5558,4.5865,4.5883,4.5883,4.5883,4.5883,4.5883,4.5883,4.5883,4.5849,4.5703,4.5592,4.5592,4.5713,4.5713,4.5861,4.6082,4.6119,4.6048,4.5907,4.5883,4.5883,4.5883,4.5883,4.5883,4.5865,4.5498,4.5118,4.4696,4.4311,4.3907,4.3506,4.3191,4.3034,4.2967,4.2524,4.2254,4.2017,4.0758,3.9834,3.9552,3.9028,3.8666,3.8524,3.8214,3.7839,3.7401,3.6529,3.6228,3.6633,3.6592,3.6641,3.6885,3.7225,3.7368,3.7388,3.7508,3.7605,3.7625,3.7964,3.8183,3.8282,3.8421,3.86,3.86,3.86,3.86,3.856,3.8243,3.7845,3.7445,3.6985,3.6581,3.6218,3.6097,3.6097,3.6114,3.62,3.6268,3.6268,3.6354,3.6577,3.6744,3.6813,3.6864,3.7142,3.695,3.7039,3.7351,3.7457,3.7357,3.7478,3.7836,3.7902,3.7972,3.8287,3.865,3.9121,3.9538,3.9956,4.0197,4.0296,4.0325,4.0377,4.0414,4.0553,4.0929,4.1227,4.1453,4.376,4.4072,4.4109,4.4531,4.515,4.5223,4.5498,4.581,4.5907,4.5883,4.5883,4.5883,4.593,4.593,4.5996,4.6147,4.6438,4.6181,4.6204,4.6532,4.6555,4.6574,4.6611,4.6541,4.6283,4.5907,4.5883,4.5883,4.5883,4.5883,4.5883,4.581,4.5462,4.5063,4.4719,4.4274,4.3889,4.3573,4.3432,4.3436,4.3436,4.3034,4.2793,4.2676,4.159,4.0934,4.0903,4.0093,3.9409,3.9011,3.8715,3.8317,3.7968,3.7505,3.75,3.7773,3.7614,3.7439,3.7403,3.7521,3.7599,3.7585,3.7843,3.8058,3.8136,3.8451,3.867,3.8632,3.8634,3.8637,3.8655,3.8673,3.8637,3.856,3.8219,3.7837,3.7479,3.7,3.6558,3.6284,3.6217,3.6131,3.62,3.644,3.6607,3.6659,3.6868,3.7107,3.7155,3.721,3.721,3.7279,3.7282,3.7418,3.7816,3.8197,3.8167,3.823,3.8698,3.8983,3.8983,3.9185,3.9452,3.9869,3.9992,4.0371,4.041,4.0468,4.0372,4.0404,4.0513,4.0702,4.0964,4.1265,4.1507,4.3885,4.3687,4.3705,4.3976,4.4471,4.4769,4.5095,4.5498,4.5778,4.5883,4.5883,4.5883,4.6072,4.633,4.6377,4.6658,4.7121,4.6986,4.7028,4.7126,4.7149,4.7149,4.7079,4.6775,4.6353,4.5954,4.5883,4.5883,4.5883,4.5883,4.5883,4.5797,4.5228,4.4843,4.4723,4.4054,4.3591,4.3518,4.3481,4.3481,4.3481,4.3365,4.3258,4.3203,4.2618,4.228,4.2203,4.0622,3.9682,3.9494,3.9391,3.9144,3.8735,3.8406,3.8276,3.8402,3.8579,3.8489,3.8316,3.8463,3.8475,3.837,3.8597,3.8784,3.8859,3.9219,3.9318,3.9096,3.9003,3.9003,3.9023,3.9023,3.8911,3.8637,3.8198,3.7897,3.767,3.7293,3.7036,3.6888,3.6847,3.6868,3.6868,3.6984,3.7022,3.7001,3.7155,3.7292,3.7518,3.7608,3.7724,3.7874,3.7839,3.7881,3.8446,3.8754,3.8786,3.8987,3.9447,3.9667,3.9742,3.9909,4.0195,4.0402,4.054,4.0628,4.0646,4.0646,4.0552,4.0644,4.0869,4.1024,4.1123,4.1371,4.1672,4.4015,4.3748,4.3566,4.3832,4.4357,4.4634,4.5062,4.5626,4.6034,4.6201,4.622,4.6392,4.6611,4.6845,4.6892,4.7173,4.7615,4.7639,4.7774,4.7871,4.7708,4.7662,4.7565,4.6916,4.6353,4.5996,4.5883,4.5883,4.5883,4.5907,4.5978,4.599,4.5354,4.5085,4.5106,4.4442,4.4012,4.4012,4.3837,4.3748,4.3722,4.357,4.3481,4.3426,4.31,4.292,4.2781,4.142,4.0511,4.0197,3.9923,3.9646,3.9544,3.925,3.9122,3.929,3.9369,3.9354,3.9139,3.9285,3.9373,3.919,3.9318,3.9465,3.9502,3.9781,3.9705,3.954,3.9465,3.9465,3.9465,3.9465,3.9276,3.8874,3.8428,3.8003,3.7707,3.7387,3.7217,3.7159,3.7176,3.721,3.7189,3.7364,3.7419,3.7436,3.7514,3.7651,3.7912,3.7964,3.8131,3.8233,3.8122,3.8426,3.9106,3.9339,3.9411,3.976,4.0159,4.0166,4.0148,4.0368,4.0632,4.0743,4.0885,4.0885,4.0901,4.0956,4.0937,4.1121,4.1191,4.1344,4.146,4.1733,4.1971,4.426,4.4171,4.3789,4.4104,4.4737,4.4853,4.528,4.6,4.6416,4.6559,4.6676,4.6898,4.7203,4.7311,4.7296,4.759,4.8019,4.815,4.8358,4.8567,4.8382,4.8127,4.7918,4.7219,4.6635,4.6166,4.6113,4.6072,4.6142,4.6142,4.6189,4.6542,4.5879,4.5636,4.5736,4.5274,4.4791,4.4703,4.4415,4.4237,4.4215,4.3811,4.3548,4.357,4.3262,4.3081,4.3026,4.2534,4.1875,4.1081,4.0414,4.0232,4.0325,4.0084,4.0128,4.0406,4.0146,3.9978,3.9946,3.9889,3.9872,3.9801,3.9836,3.9948,3.9928,4.0058,4.0056,3.9928,3.9928,3.9909,3.9909,3.9928,3.9723,3.9267,3.8716,3.8137,3.7424,3.733,3.7398,3.7343,3.7275,3.7296,3.736,3.7638,3.7779,3.7882,3.8062,3.8267,3.8336,3.837,3.8387,3.8404,3.8477,3.8739,3.9341,3.9261,3.9397,4.0015,4.0435,4.0464,4.0492,4.0735,4.0882,4.0992,4.1121,4.1139,4.1158,4.1176,4.1231,4.1304,4.143,4.161,4.1742,4.1871,4.1876,4.5034,4.4703,4.4592,4.4671,4.4932,4.5177,4.5452,4.5716,4.6114,4.633,4.6322,4.6398,4.6721,4.6995,4.7347,4.7738,4.8156,4.8504,4.8752,4.8867,4.8798,4.8451,4.815,4.7848,4.7429,4.7028,4.6911,4.7028,4.6986,4.6934,4.7032,4.7135,4.6366,4.5977,4.5958,4.5344,4.4921,4.4902,4.4813,4.4725,4.4636,4.426,4.4015,4.4015,4.3904,4.383,4.3811,4.348,4.2854,4.2052,4.1773,4.1533,4.1324,4.1199,4.108,4.0914,4.0845,4.0644,4.0405,4.035,4.0221,3.9966,4.0203,4.0331,4.035,4.0607,4.0607,4.0442,4.035,4.035,4.0311,4.0327,4.0084,3.9572,3.8923,3.8348,3.8056,3.8028,3.8011,3.8011,3.7977,3.7959,3.8011,3.8062,3.8186,3.8272,3.8473,3.8747,3.8764,3.8922,3.8974,3.9008,3.9074,3.9201,3.9309,3.9211,3.9437,4.0144,4.0487,4.0635,4.0748,4.0992,4.1047,4.1102,4.1304,4.1359,4.1359,4.1338,4.1415,4.1498,4.1576,4.1677,4.1583,4.1628,4.1606,4.5453,4.5147,4.499,4.5012,4.5208,4.5458,4.5643,4.5916,4.6261,4.6434,4.6472,4.6645,4.6883,4.7147,4.7425,4.7774,4.82,4.8476,4.8695,4.8894,4.8871,4.859,4.8196,4.808,4.7867,4.7448,4.7401,4.7378,4.7378,4.7401,4.7476,4.7486,4.6828,4.6518,4.6712,4.5919,4.5497,4.5475,4.5321,4.5211,4.5144,4.4747,4.4526,4.4481,4.4503,4.4481,4.4444,4.4281,4.3743,4.2975,4.2514,4.2182,4.1999,4.1941,4.176,4.1393,4.1338,4.1173,4.0864,4.0754,4.0662,4.0497,4.0644,4.0714,4.079,4.0974,4.0935,4.0809,4.0733,4.0733,4.0707,4.0565,4.0194,3.9674,3.9178,3.8705,3.8375,3.8267,3.8302,3.8302,3.8319,3.8404,3.8507,3.8558,3.8644,3.8803,3.9013,3.9111,3.9162,3.939,3.9527,3.9493,3.9429,3.9476,3.9609,3.9548,3.9664,4.0304,4.0806,4.0898,4.1008,4.1223,4.1338,4.1393,4.1503,4.1574,4.1568,4.1598,4.168,4.173,4.1738,4.1638,4.1544,4.1493,4.1466,4.5673,4.5651,4.5233,4.5299,4.5651,4.5673,4.5909,4.6299,4.6589,4.6764,4.6823,4.7243,4.7215,4.7483,4.7374,4.7712,4.8125,4.8223,4.8538,4.8753,4.8848,4.8659,4.8312,4.8289,4.808,4.7732,4.7569,4.7639,4.7708,4.7639,4.7821,4.7907,4.7345,4.7186,4.7236,4.6708,4.6384,4.6133,4.5826,4.5695,4.5585,4.5233,4.499,4.4968,4.4968,4.5034,4.5056,4.4955,4.4561,4.3784,4.2931,4.2585,4.2446,4.2366,4.2164,4.1852,4.176,4.1613,4.132,4.1286,4.1249,4.1231,4.1249,4.1231,4.1286,4.1286,4.1191,4.1176,4.1158,4.1149,4.1069,4.0686,4.0227,3.98,3.9559,3.9142,3.8627,3.8422,3.8422,3.8422,3.8439,3.861,3.8815,3.8986,3.9077,3.9167,3.939,3.9505,3.959,3.9767,3.9818,3.9801,3.9742,3.9694,3.9818,3.9943,4.0119,4.0486,4.1023,4.1279,4.1269,4.1464,4.1659,4.1797,4.187,4.1894,4.1853,4.1919,4.1938,4.1756,4.1576,4.1542,4.1506,4.1511,4.1491,4.6155,4.6133,4.6046,4.6068,4.6155,4.6155,4.6199,4.6308,4.6406,4.6528,4.6484,4.6584,4.6645,4.6685,4.6997,4.7282,4.7779,4.8069,4.8437,4.8832,4.8894,4.8848,4.8686,4.8682,4.8659,4.852,4.8567,4.8567,4.8544,4.8451,4.859,4.8562,4.8092,4.7777,4.7497,4.7028,4.6579,4.6323,4.6177,4.6111,4.6024,4.5695,4.5453,4.5453,4.5453,4.5631,4.5829,4.5651,4.5175,4.464,4.4061,4.3445,4.2912,4.2773,4.2568,4.2292,4.2164,4.2127,4.2035,4.1962,4.2017,4.1962,4.1925,4.2014,4.2017,4.1724,4.1595,4.1577,4.1577,4.1516,4.1326,4.1012,4.0517,4.0049,3.9723,3.9515,3.9287,3.9218,3.9145,3.9184,3.9184,3.927,3.9355,3.9351,3.9441,3.9549,3.9698,3.9881,4.0001,4.0144,4.0144,4.0109,4.0046,3.9988,4.0037,4.0164,4.0316,4.0675,4.1213,4.1726,4.172,4.177,4.2021,4.2129,4.2201,4.2174,4.2047,4.2006,4.2,4.1724,4.1448,4.1405,4.1396,4.1461,4.155,4.6308,4.6308,4.6308,4.6308,4.6308,4.6308,4.6308,4.6352,4.6549,4.6636,4.6702,4.6832,4.6963,4.692,4.696,4.7207,4.7589,4.802,4.8437,4.8792,4.8894,4.8894,4.8894,4.8894,4.8894,4.8894,4.8871,4.8894,4.8894,4.8894,4.8824,4.8855,4.8437,4.7946,4.7578,4.7146,4.6677,4.6365,4.6308,4.6308,4.6243,4.609,4.5936,4.5936,4.5936,4.607,4.6221,4.6068,4.5563,4.5034,4.4658,4.41,4.3379,4.3173,4.2971,4.2659,4.2568,4.2479,4.2387,4.2292,4.2274,4.2311,4.2311,4.2292,4.2274,4.2091,4.2017,4.198,4.1934,4.1831,4.1296,4.1265,4.0817,4.0267,4.0037,4.0012,3.9955,3.9715,3.9493,3.9493,3.9441,3.9556,3.9642,3.971,3.9904,4.0041,4.0109,4.0258,4.0292,4.0418,4.0452,4.0435,4.0344,4.0315,4.0281,4.0342,4.0452,4.0895,4.1448,4.1942,4.2233,4.2297,4.2433,4.2404,4.2335,4.2223,4.2115,4.2094,4.1871,4.1575,4.1339,4.1305,4.1296,4.1367,4.1482,4.6352,4.6396,4.6418,4.644,4.6505,4.6549,4.6571,4.6614,4.6922,4.7094,4.7181,4.7528,4.755,4.7591,4.7287,4.7372,4.7724,4.8015,4.8437,4.8855,4.8894,4.8894,4.8894,4.8894,4.8963,4.8982,4.8936,4.8913,4.8894,4.8894,4.8894,4.8812,4.8558,4.8164,4.7695,4.7246,4.6853,4.6523,4.6348,4.6308,4.6308,4.6265,4.6243,4.6243,4.6243,4.6243,4.6308,4.6199,4.587,4.499,4.4902,4.4393,4.3771,4.3463,4.3393,4.3008,4.299,4.2879,4.2696,4.2586,4.2568,4.2494,4.2513,4.2513,4.2531,4.2457,4.2402,4.2341,4.225,4.1916,4.1186,4.1205,4.0914,4.0402,4.0418,4.0549,4.0486,4.0024,3.9801,3.9732,3.9852,3.995,4.0036,4.0121,4.0327,4.0521,4.0572,4.0606,4.0623,4.0583,4.0601,4.0583,4.0498,4.0446,4.0429,4.0435,4.0541,4.0874,4.1479,4.1973,4.2443,4.2576,4.2538,4.2431,4.2338,4.217,4.1973,4.1798,4.1581,4.1343,4.1295,4.1269,4.1304,4.1315,4.1531,4.6527,4.6898,4.6898,4.7074,4.7441,4.7463,4.7398,4.7485,4.7528,4.7571,4.7593,4.7701,4.7766,4.7701,4.7658,4.7816,4.8095,4.8198,4.8441,4.8835,4.8894,4.8894,4.8894,4.8963,4.9124,4.9305,4.9213,4.9029,4.8986,4.8894,4.8963,4.8917,4.8792,4.8499,4.8047,4.7676,4.7246,4.6777,4.6504,4.6367,4.6308,4.6308,4.6308,4.6308,4.6308,4.6308,4.6308,4.6265,4.587,4.5034,4.4902,4.437,4.3726,4.3481,4.3426,4.3371,4.3334,4.3265,4.3191,4.3224,4.3279,4.3298,4.3228,4.3246,4.3173,4.299,4.2824,4.2678,4.2429,4.2038,4.1861,4.1521,4.1096,4.0679,4.0515,4.0606,4.0572,4.0452,4.0298,4.0264,4.0332,4.0349,4.0344,4.0395,4.0515,4.0658,4.0726,4.0743,4.0743,4.0692,4.0635,4.0601,4.0566,4.0549,4.0549,4.0532,4.0606,4.0792,4.1296,4.1796,4.2241,4.2573,4.2626,4.2402,4.2112,4.1846,4.1652,4.1501,4.1414,4.1257,4.1258,4.1298,4.1526,4.1737,4.1977,4.692,4.7354,4.7376,4.7485,4.7658,4.7701,4.7701,4.7745,4.7961,4.807,4.8135,4.8306,4.8435,4.835,4.8135,4.8184,4.8219,4.7979,4.8288,4.8734,4.8894,4.8894,4.8963,4.9144,4.9351,4.9581,4.9581,4.9604,4.9581,4.9354,4.9262,4.9193,4.9032,4.8656,4.8281,4.7988,4.7539,4.7028,4.6716,4.6523,4.6348,4.6328,4.6308,4.6308,4.6308,4.6308,4.6265,4.6024,4.5629,4.5012,4.4658,4.4171,4.3704,4.3481,4.3481,4.3481,4.3481,4.3481,4.3481,4.3481,4.3463,4.3481,4.3481,4.3481,4.3463,4.3298,4.3169,4.3081,4.277,4.2308,4.2016,4.1574,4.1105,4.072,4.0606,4.0606,4.0583,4.0583,4.0623,4.064,4.0589,4.0555,4.0538,4.0583,4.0709,4.0795,4.0897,4.0915,4.0915,4.0846,4.0789,4.0618,4.0606,4.0606,4.0606,4.0606,4.0606,4.0788,4.1122,4.1619,4.1902,4.2231,4.2312,4.2219,4.1899,4.1629,4.1299,4.1119,4.1143,4.1235,4.136,4.156,4.1868,4.2159,4.2276,4.742,4.7831,4.7853,4.7896,4.7961,4.7982,4.8004,4.8069,4.8393,4.8544,4.8608,4.8887,4.9037,4.9014,4.8728,4.8505,4.8407,4.808,4.8385,4.8734,4.8894,4.8917,4.9167,4.9397,4.9719,5.0108,5.0268,5.0405,5.0108,4.9764,4.9604,4.942,4.9121,4.8734,4.8418,4.8223,4.7734,4.7399,4.7048,4.6855,4.6641,4.6562,4.6504,4.6426,4.6426,4.6406,4.6265,4.5892,4.5453,4.4946,4.4481,4.3993,4.3593,4.3481,4.3481,4.3481,4.3481,4.3481,4.3481,4.3481,4.3481,4.3481,4.3481,4.3481,4.3481,4.3463,4.3444,4.3392,4.2882,4.2421,4.2007,4.1466,4.1014,4.072,4.0606,4.0583,4.0618,4.0692,4.0795,4.0812,4.0778,4.0789,4.08,4.0823,4.0966,4.1166,4.1292,4.1292,4.1274,4.112,4.1,4.0686,4.0606,4.0606,4.0606,4.0606,4.0606,4.0652,4.1049,4.1536,4.1674,4.1817,4.1931,4.2109,4.1811,4.1499,4.1138,4.1012,4.1343,4.156,4.1603,4.1749,4.1995,4.2077,4.2148,4.7896,4.8329,4.8307,4.8565,4.8866,4.8887,4.8887,4.8887,4.8952,4.9016,4.8952,4.9059,4.9122,4.9119,4.9061,4.8944,4.8898,4.8805,4.8747,4.8901,4.8959,4.9167,4.9466,4.9535,5.0157,5.0633,5.0907,5.0725,5.0382,4.9902,4.9627,4.9512,4.9167,4.8832,4.8714,4.8437,4.8164,4.7988,4.7656,4.7464,4.7386,4.7366,4.7148,4.6931,4.6775,4.6635,4.6253,4.5799,4.5321,4.488,4.4415,4.3989,4.3611,4.3481,4.3481,4.3481,4.3481,4.3481,4.3481,4.3481,4.3481,4.3481,4.3481,4.3481,4.3481,4.3481,4.3481,4.3477,4.2699,4.2164,4.1894,4.1235,4.0788,4.072,4.0743,4.0703,4.0703,4.0994,4.1103,4.108,4.1091,4.1131,4.1142,4.1194,4.1234,4.1457,4.1628,4.1622,4.1542,4.1377,4.1172,4.0897,4.0623,4.0606,4.0675,4.0675,4.0743,4.0709,4.1045,4.1501,4.1714,4.1917,4.2011,4.2075,4.1793,4.1538,4.1279,4.1352,4.1718,4.1766,4.1649,4.1795,4.202,4.2056,4.1951,4.8608,4.8802,4.8802,4.8909,4.908,4.9102,4.9102,4.9102,4.9102,4.9102,4.9102,4.9102,4.9225,4.9387,4.9245,4.9211,4.9311,4.9184,4.896,4.9042,4.919,4.942,4.9699,5.0157,5.0795,5.102,5.1293,5.1225,5.0725,5.0223,4.9925,4.9558,4.9167,4.8894,4.8894,4.8695,4.8437,4.8164,4.7812,4.762,4.76,4.76,4.7522,4.7305,4.7048,4.6659,4.6219,4.5529,4.5009,4.4526,4.406,4.3745,4.3566,4.3481,4.3481,4.3481,4.3481,4.3481,4.3481,4.3481,4.3481,4.3481,4.3481,4.3481,4.3481,4.3481,4.3481,4.3481,4.2591,4.2097,4.1902,4.1358,4.1097,4.0966,4.1017,4.1114,4.1149,4.1303,4.1468,4.1426,4.1401,4.1423,4.1323,4.1132,4.13,4.1785,4.1834,4.1746,4.1659,4.1497,4.1292,4.1052,4.0795,4.0606,4.0726,4.0795,4.1,4.1052,4.1268,4.1666,4.1983,4.2151,4.218,4.2231,4.2137,4.1857,4.1502,4.148,4.17,4.168,4.161,4.1627,4.1625,4.1577,4.1488,4.9102,4.9102,4.9102,4.9102,4.9102,4.9102,4.9102,4.9102,4.9102,4.9102,4.9143,4.9226,4.9495,4.9762,4.9705,4.9821,4.9855,4.9613,4.9401,4.9436,4.9604,4.9879,5.0223,5.0793,5.1111,5.127,5.1384,5.1225,5.0793,5.036,4.9856,4.9604,4.9144,4.8917,4.8894,4.8832,4.8695,4.8441,4.8167,4.8033,4.8014,4.7991,4.7894,4.7634,4.7229,4.6695,4.6142,4.5221,4.4522,4.426,4.3811,4.3566,4.3481,4.3481,4.3481,4.3481,4.3481,4.3481,4.3481,4.3481,4.3481,4.3481,4.3481,4.3481,4.3481,4.3481,4.3481,4.3481,4.2811,4.2277,4.196,4.1588,4.1361,4.1309,4.1405,4.1577,4.1707,4.1799,4.1844,4.1819,4.1757,4.1596,4.1437,4.1045,4.1278,4.1961,4.206,4.1931,4.1831,4.1731,4.1566,4.1377,4.1206,4.0994,4.1069,4.1154,4.1292,4.1394,4.1634,4.1835,4.2137,4.2212,4.2205,4.2279,4.2393,4.2178,4.1839,4.1741,4.1617,4.1479,4.1315,4.1133,4.1087,4.1038,4.1038,4.9102,4.9102,4.9102,4.9102,4.9102,4.9102,4.9102,4.9102,4.9102,4.9122,4.9247,4.9557,4.9785,4.997,5.0461,5.0586,5.0388,5.0776,5.0441,5.0225,5.0268,5.0497,5.0793,5.1066,5.1316,5.1497,5.1406,5.093,5.0382,5.0017,4.9719,4.9535,4.9121,4.894,4.8894,4.8894,4.8894,4.8734,4.864,4.8659,4.8679,4.8636,4.8496,4.7988,4.7347,4.6649,4.6152,4.4973,4.4237,4.4123,4.3745,4.3522,4.3481,4.3481,4.3481,4.3481,4.3481,4.3481,4.3481,4.3481,4.3481,4.3481,4.3481,4.3481,4.3481,4.3481,4.3481,4.3414,4.2833,4.2447,4.2149,4.1867,4.1562,4.163,4.1748,4.1896,4.205,4.2193,4.2214,4.2195,4.1988,4.1653,4.1345,4.0917,4.1259,4.1936,4.2328,4.2223,4.2219,4.2108,4.1936,4.1765,4.1668,4.156,4.1577,4.1668,4.1703,4.1771,4.1902,4.2073,4.2281,4.2326,4.236,4.2443,4.2556,4.2365,4.2104,4.1684,4.1339,4.1198,4.1014,4.0699,4.0505,4.0433,4.0481,4.9465,4.9444,4.9209,4.9102,4.9102,4.9102,4.9102,4.9102,4.9102,4.9267,4.9557,4.9971,5.0343,5.0632,5.0815,5.1005,5.0848,5.0989,5.075,5.0611,5.0611,5.0884,5.1157,5.1293,5.1497,5.1361,5.1111,5.0611,4.9902,4.965,4.9377,4.917,4.9006,4.8917,4.8894,4.8894,4.8894,4.8894,4.8894,4.8894,4.8894,4.8848,4.8674,4.813,4.735,4.6499,4.5698,4.4756,4.4175,4.3793,4.3611,4.3544,4.3481,4.3481,4.3481,4.3481,4.3481,4.3481,4.3481,4.3481,4.3481,4.3481,4.3481,4.3481,4.3481,4.3481,4.3481,4.328,4.2811,4.2353,4.2397,4.2028,4.1733,4.1897,4.2073,4.2238,4.2334,4.2437,4.2321,4.2195,4.1795,4.1342,4.1045,4.0731,4.1279,4.189,4.2227,4.2505,4.2485,4.2467,4.2279,4.2125,4.2005,4.1885,4.1868,4.1953,4.208,4.2142,4.221,4.2341,4.2495,4.2597,4.2642,4.2724,4.2525,4.2131,4.1746,4.136,4.1063,4.0821,4.0481,4.0117,3.9987,3.9914,4.002,4.9719,4.9695,4.9416,4.9226,4.9143,4.9267,4.9309,4.935,4.9474,4.9639,5.0012,5.0403,5.0755,5.1044,5.1272,5.1325,5.1256,5.118,5.0884,5.0725,5.0725,5.0861,5.0975,5.1066,5.102,5.0861,5.0633,5.0177,4.9673,4.9489,4.9216,4.9009,4.8894,4.8894,4.8894,4.8894,4.8894,4.8894,4.8894,4.8894,4.8894,4.8871,4.8636,4.8057,4.7301,4.6402,4.5528,4.4658,4.3982,4.367,4.3481,4.3481,4.3481,4.3481,4.3481,4.3481,4.3481,4.3481,4.3481,4.3481,4.3481,4.3481,4.3481,4.3481,4.3481,4.3481,4.3481,4.3432,4.2784,4.2302,4.2592,4.2243,4.2033,4.2174,4.2426,4.2584,4.2529,4.255,4.2327,4.2128,4.1594,4.1038,4.1304,4.1119,4.1505,4.2052,4.2388,4.2628,4.2656,4.2632,4.2529,4.2409,4.2289,4.217,4.2067,4.2238,4.2409,4.2443,4.2505,4.2608,4.2745,4.2789,4.2628,4.246,4.2172,4.1787,4.1377,4.0925,4.061,4.0336,4.0068,3.989,3.9865,3.9841,3.9841,4.9758,4.9786,4.9807,4.9537,4.9246,4.9599,4.9785,4.9847,5.0156,5.0319,5.0378,5.0792,5.0997,5.1119,5.1295,5.1369,5.1363,5.1157,5.0952,5.0839,5.0565,5.0405,5.0405,5.0474,5.0542,5.0245,5.0039,4.981,4.9535,4.9213,4.8963,4.8917,4.8894,4.8894,4.8894,4.8894,4.8894,4.8894,4.8894,4.8894,4.8871,4.8824,4.8474,4.7919,4.714,4.6218,4.5303,4.455,4.3942,4.3581,4.3499,4.3481,4.3481,4.3481,4.3481,4.3481,4.3481,4.3481,4.3481,4.3481,4.3481,4.3481,4.3481,4.3481,4.3481,4.3459,4.3392,4.3276,4.2865,4.2594,4.2546,4.2469,4.2334,4.2431,4.2683,4.2676,4.258,4.2436,4.222,4.1811,4.1167,4.0756,4.1304,4.1666,4.1907,4.2244,4.2573,4.2741,4.2772,4.2762,4.2659,4.2608,4.2522,4.2488,4.2437,4.2608,4.2721,4.2755,4.2755,4.2772,4.2741,4.2693,4.2484,4.222,4.1787,4.1353,4.0925,4.0513,4.0271,4.0068,3.9947,3.9817,3.9792,3.9792,3.9792,5.0649,5.0613,5.0329,5.0115,4.999,5.0115,5.0197,5.028,5.0631,5.0703,5.054,5.0885,5.0864,5.0744,5.0717,5.0861,5.0793,5.0747,5.0565,5.0542,5.0314,5.0337,5.0268,5.0154,5.0085,4.9879,4.9604,4.9374,4.9101,4.894,4.8917,4.8894,4.8894,4.8894,4.8894,4.8894,4.8894,4.8894,4.8894,4.8871,4.8867,4.8567,4.815,4.7666,4.68,4.5902,4.5039,4.4379,4.3925,4.3554,4.3481,4.3481,4.3481,4.3481,4.3481,4.3481,4.3481,4.3481,4.3481,4.3481,4.3481,4.3481,4.3481,4.3481,4.3481,4.3191,4.3079,4.2928,4.2594,4.2384,4.2388,4.2376,4.2356,4.2611,4.2724,4.2532,4.2388,4.222,4.1979,4.1377,4.0756,4.1167,4.1666,4.1859,4.2076,4.222,4.2477,4.2693,4.2765,4.2772,4.2745,4.2762,4.2704,4.2738,4.2789,4.2789,4.2789,4.2772,4.2772,4.2772,4.2717,4.2621,4.2316,4.2052,4.1473,4.0901,4.0562,4.0247,4.0044,3.9865,3.9817,3.9792,3.9792,3.9792,3.9792,5.1091,5.105,5.0784,5.0734,5.0838,5.0713,5.0736,5.0877,5.1033,5.0909,5.0744,5.0807,5.0659,5.0362,5.0291,5.0291,5.0268,5.0108,5.0062,5.0017,4.9856,4.9764,4.9764,4.9833,4.9581,4.942,4.9351,4.919,4.894,4.8894,4.8894,4.8894,4.8894,4.8894,4.8894,4.8894,4.8894,4.8894,4.8894,4.8894,4.8752,4.8428,4.7894,4.7311,4.6522,4.5603,4.4875,4.4311,4.3925,4.3628,4.3481,4.3481,4.3481,4.3481,4.3481,4.3481,4.3481,4.3481,4.3481,4.3481,4.3481,4.3481,4.3481,4.3392,4.328,4.2972,4.2829,4.2612,4.2189,4.23,4.2464,4.2429,4.2457,4.271,4.2556,4.2364,4.2124,4.1955,4.1449,4.0853,4.078,4.1336,4.1907,4.2052,4.2172,4.2268,4.2381,4.2525,4.2669,4.2669,4.27,4.2789,4.2789,4.2789,4.2789,4.2789,4.2789,4.2789,4.2789,4.2789,4.2652,4.2532,4.2196,4.1828,4.1224,4.0683,4.0311,4.002,3.9938,3.9889,3.9817,3.9792,3.9792,3.9792,3.9792,5.1113,5.113,5.1106,5.1334,5.1601,5.116,5.1222,5.1659,5.1229,5.1002,5.0955,5.0411,5.02,5.02,5.02,5.0131,5.0062,4.9742,4.9627,4.9489,4.9285,4.9124,4.9055,4.9055,4.9098,4.8986,4.894,4.9009,4.8894,4.8894,4.8894,4.8894,4.8894,4.8894,4.8894,4.8894,4.8894,4.8894,4.8894,4.8894,4.8798,4.8312,4.7821,4.7199,4.6429,4.5534,4.4829,4.4329,4.3925,4.3646,4.3481,4.3481,4.3481,4.3481,4.3481,4.3481,4.3481,4.3481,4.3481,4.3481,4.3481,4.3499,4.3465,4.3227,4.2985,4.2797,4.268,4.2486,4.2183,4.2482,4.2712,4.2597,4.2495,4.2451,4.2347,4.2124,4.1859,4.1449,4.0828,4.0489,4.0513,4.0949,4.1666,4.1955,4.1883,4.1835,4.1883,4.2076,4.222,4.2357,4.246,4.2789,4.2789,4.2789,4.2789,4.2789,4.2789,4.2789,4.2813,4.2789,4.2645,4.2483,4.2166,4.1698,4.1,4.0538,4.0373,4.0185,4.0016,3.9951,4.0063,3.9872,3.9888,3.9808,3.9792,5.1592,5.1605,5.1605,5.1485,5.1229,5.0742,5.0807,5.1202,5.077,5.0382,5.0017,4.9859,4.9653,4.9308,4.9285,4.9331,4.9262,4.917,4.9144,4.9029,4.8963,4.8917,4.8894,4.8894,4.8894,4.8894,4.8894,4.8894,4.8894,4.8894,4.8894,4.8894,4.8894,4.8894,4.8894,4.8894,4.8894,4.8894,4.8894,4.8894,4.8636,4.8103,4.7662,4.7115,4.6118,4.5271,4.4705,4.4274,4.3889,4.3573,4.3499,4.3481,4.3481,4.3481,4.3481,4.3481,4.3481,4.3481,4.3481,4.3481,4.3459,4.342,4.3405,4.3167,4.2906,4.2657,4.2486,4.231,4.2232,4.2462,4.262,4.2573,4.2495,4.2447,4.2172,4.1739,4.1449,4.099,4.0416,4.0319,4.0344,4.0756,4.1473,4.1522,4.1425,4.1353,4.1401,4.157,4.1811,4.1931,4.2316,4.2652,4.2789,4.2789,4.2789,4.2789,4.2789,4.2789,4.2864,4.2936,4.2986,4.2748,4.2224,4.167,4.1048,4.0776,4.0639,4.046,4.0301,4.0485,4.0564,4.0246,4.0008,3.9984,3.9848,5.179,5.1769,5.1588,5.1225,5.0747,5.0245,5.0245,5.0428,5.0154,4.9856,4.9584,4.9397,4.917,4.8963,4.894,4.894,4.894,4.8963,4.8959,4.8959,4.8894,4.8894,4.8894,4.8894,4.8894,4.8894,4.8894,4.8894,4.8894,4.8894,4.8894,4.8894,4.8894,4.8894,4.8894,4.8894,4.8894,4.8894,4.8894,4.8894,4.8501,4.7945,4.747,4.6936,4.5788,4.4994,4.4494,4.4109,4.376,4.3518,4.3499,4.3481,4.3481,4.3481,4.3481,4.3481,4.3481,4.3481,4.3481,4.3481,4.3392,4.3278,4.3239,4.2936,4.2685,4.2427,4.2323,4.2203,4.2274,4.2371,4.2447,4.2499,4.2512,4.246,4.1907,4.1336,4.0942,4.053,4.0336,4.0214,4.0408,4.0772,4.1014,4.099,4.0966,4.0845,4.0845,4.0966,4.128,4.1618,4.2124,4.2669,4.2765,4.2789,4.2789,4.2823,4.2916,4.2984,4.3111,4.3192,4.3293,4.2883,4.2212,4.1676,4.1129,4.0985,4.0892,4.0819,4.0723,4.0982,4.1239,4.1132,4.0793,4.0411,4.0194,5.1769,5.1656,5.1202,5.0679,5.0223,4.9764,4.9561,4.9558,4.9558,4.9535,4.9443,4.9078,4.8917,4.8894,4.8894,4.8894,4.8894,4.8894,4.8894,4.8894,4.8894,4.8894,4.8894,4.8894,4.8894,4.8894,4.8894,4.8894,4.8894,4.8894,4.8894,4.8894,4.8894,4.8894,4.8894,4.8894,4.8894,4.8894,4.8894,4.8871,4.862,4.8003,4.7178,4.6661,4.5587,4.4544,4.4127,4.3774,4.3481,4.3481,4.3481,4.3481,4.3481,4.3481,4.3481,4.3481,4.3481,4.3481,4.3436,4.341,4.3219,4.3104,4.3049,4.2818,4.2594,4.2527,4.2487,4.2327,4.236,4.2376,4.2444,4.2327,4.2234,4.1931,4.1401,4.0998,4.0707,4.0336,4.0093,4.0044,4.0166,4.0505,4.0578,4.0602,4.0481,4.036,4.0336,4.0433,4.0917,4.1377,4.2013,4.2662,4.2741,4.2813,4.2847,4.2916,4.307,4.3196,4.335,4.3607,4.3824,4.3112,4.217,4.1725,4.1343,4.1281,4.1174,4.1281,4.1514,4.184,4.2041,4.2069,4.1749,4.1282,4.0989,5.1588,5.118,5.0337,4.9879,4.9719,4.9282,4.9055,4.9075,4.9055,4.9078,4.9032,4.894,4.8894,4.8894,4.8894,4.8894,4.8894,4.8894,4.8894,4.8894,4.8894,4.8894,4.8894,4.8894,4.8894,4.8894,4.8894,4.8894,4.8894,4.8894,4.8894,4.8894,4.8894,4.8894,4.8894,4.8894,4.8894,4.8894,4.8894,4.8874,4.8677,4.801,4.7232,4.6515,4.5541,4.4591,4.412,4.3724,4.3536,4.3481,4.3481,4.3481,4.3481,4.3481,4.3481,4.3481,4.3481,4.3459,4.3365,4.3241,4.3063,4.2963,4.2901,4.2794,4.2755,4.2807,4.2758,4.2537,4.2406,4.2403,4.2306,4.2131,4.1859,4.1377,4.0917,4.0683,4.0465,4.019,3.9914,3.9938,3.9971,4.0068,4.0166,4.0141,3.9995,3.9947,3.9922,4.0157,4.0869,4.1442,4.2046,4.26,4.2741,4.283,4.2881,4.3052,4.3282,4.3504,4.3693,4.4008,4.4309,4.3532,4.2679,4.2065,4.1652,4.1655,4.186,4.224,4.2485,4.2734,4.2912,4.2939,4.2931,4.255,4.2253,5.1338,5.0975,4.9997,4.9489,4.9282,4.9006,4.8894,4.8894,4.8894,4.8894,4.8894,4.8894,4.8894,4.8894,4.8894,4.8894,4.8894,4.8894,4.8894,4.8894,4.8894,4.8894,4.8894,4.8894,4.8894,4.8894,4.8894,4.8894,4.8894,4.8894,4.8894,4.8894,4.8894,4.8894,4.8894,4.8894,4.8894,4.8894,4.8894,4.8776,4.8613,4.7905,4.6998,4.6216,4.5359,4.4513,4.3995,4.3613,4.3536,4.3481,4.3481,4.3481,4.3481,4.3481,4.3481,4.3481,4.3459,4.341,4.3246,4.3063,4.2882,4.2744,4.2899,4.283,4.2576,4.2644,4.2804,4.2625,4.2314,4.2275,4.1963,4.1746,4.1312,4.0828,4.0457,4.019,4.0093,3.9987,3.9841,3.9841,3.9874,3.9914,3.9987,3.9987,3.9874,3.9947,3.9874,4.0287,4.0966,4.1604,4.2186,4.2671,4.2871,4.3042,4.3145,4.3316,4.3504,4.3769,4.406,4.4169,4.4293,4.3799,4.3222,4.2568,4.2211,4.2297,4.2543,4.2881,4.3305,4.3563,4.3731,4.3849,4.3799,4.3758,4.3591,5.1,5.0793,4.9902,4.9282,4.8917,4.8894,4.8894,4.8894,4.8894,4.8894,4.8894,4.8894,4.8894,4.8894,4.8894,4.8894,4.8894,4.8894,4.8894,4.8894,4.8894,4.8894,4.8894,4.8894,4.8894,4.8894,4.8894,4.8894,4.8894,4.8894,4.8894,4.8894,4.8894,4.8894,4.8894,4.8894,4.8894,4.8855,4.8776,4.8519,4.8141,4.7719,4.6843,4.5927,4.5051,4.4394,4.3859,4.3544,4.3503,4.3481,4.3481,4.3481,4.3481,4.3481,4.3481,4.3459,4.3325,4.3201,4.3022,4.2941,4.2615,4.2474,4.2761,4.2768,4.2517,4.257,4.2751,4.2652,4.2364,4.2003,4.169,4.1264,4.0804,4.0416,4.0068,3.9865,3.9857,3.9848,3.9848,3.9824,3.984,3.984,3.9872,3.9872,3.9841,3.9938,4.0238,4.0724,4.1241,4.1849,4.2451,4.2899,4.3234,4.3333,4.3436,4.3641,4.3864,4.4121,4.4362,4.4369,4.4304,4.3992,4.3594,4.3085,4.283,4.2898,4.3102,4.3407,4.3839,4.4245,4.4397,4.4456,4.4548,4.4564,4.4809,5.0633,4.9856,4.9259,4.8982,4.8894,4.8894,4.8894,4.8894,4.8894,4.8894,4.8894,4.8894,4.8894,4.8894,4.8894,4.8894,4.8894,4.8894,4.8894,4.8894,4.8894,4.8894,4.8894,4.8894,4.8894,4.8894,4.8894,4.8894,4.8894,4.8894,4.8894,4.8894,4.8894,4.8894,4.8894,4.8894,4.8874,4.8796,4.848,4.8183,4.7855,4.7437,4.7018,4.6165,4.5297,4.4679,4.4145,4.3722,4.3548,4.3481,4.3481,4.3481,4.3481,4.3481,4.3459,4.3339,4.3205,4.3054,4.29,4.2673,4.237,4.2592,4.2786,4.2681,4.2587,4.27,4.2772,4.2724,4.2405,4.1883,4.1497,4.0901,4.0416,4.0141,3.9841,3.9848,3.9864,3.9928,3.9935,3.9983,4.0031,4.011,4.0206,4.0094,3.9905,4.0059,4.0352,4.0837,4.1492,4.2095,4.2765,4.3178,4.3607,4.3751,4.3888,4.4069,4.4292,4.4531,4.467,4.4656,4.4548,4.4329,4.3915,4.3483,4.3416,4.3492,4.3737,4.3915,4.4295,4.465,4.4852,4.5003,4.5121,4.5121,4.5121]}]]